<?xml version="1.0" encoding="utf-8"?>
<gpx xmlns:xsi="http://www.w3.org/2001/XMLSchema-instance" xmlns:xsd="http://www.w3.org/2001/XMLSchema" version="1.1" creator="Shapelink.com" xmlns="http://www.topografix.com/GPX/1/1" xmlns:gpxtpx="http://www.garmin.com/xmlschemas/TrackPointExtension/v1">
  <metadata>
    <name>Cykling - Mtb 22.51 km, 2013-03-10</name>
    <desc></desc>
    <author><name>Alexander Engvall</name></author> 
    <time>2013-03-10T15:02:31Z</time>
  </metadata>
  <trk>
    <name>Cykling - Mtb 22.51 km, 2013-03-10</name>
    <trkseg>
      <trkpt lat="59.4574627872" lon="17.8048668487">
        <ele>16.6</ele>
        <time>2013-03-10T15:02:31Z</time>
      </trkpt>
      <trkpt lat="59.457419788" lon="17.8049053216">
        <ele>17.6</ele>
        <time>2013-03-10T15:02:32Z</time>
      </trkpt>
      <trkpt lat="59.4573823209" lon="17.8049899788">
        <ele>18.2</ele>
        <time>2013-03-10T15:02:33Z</time>
      </trkpt>
      <trkpt lat="59.4573409143" lon="17.8050602191">
        <ele>18.8</ele>
        <time>2013-03-10T15:02:34Z</time>
      </trkpt>
      <trkpt lat="59.4573016032" lon="17.8051276934">
        <ele>19.4</ele>
        <time>2013-03-10T15:02:35Z</time>
      </trkpt>
      <trkpt lat="59.4572304409" lon="17.8052884583">
        <ele>19.4</ele>
        <time>2013-03-10T15:02:37Z</time>
      </trkpt>
      <trkpt lat="59.4571596977" lon="17.8054328784">
        <ele>19.4</ele>
        <time>2013-03-10T15:02:39Z</time>
      </trkpt>
      <trkpt lat="59.4570839253" lon="17.8055027835">
        <ele>19.4</ele>
        <time>2013-03-10T15:02:41Z</time>
      </trkpt>
      <trkpt lat="59.4570398365" lon="17.8055078126">
        <ele>19.4</ele>
        <time>2013-03-10T15:02:42Z</time>
      </trkpt>
      <trkpt lat="59.4567290356" lon="17.8053687569">
        <ele>19.4</ele>
        <time>2013-03-10T15:02:48Z</time>
      </trkpt>
      <trkpt lat="59.4564268681" lon="17.805162646">
        <ele>19.4</ele>
        <time>2013-03-10T15:02:53Z</time>
      </trkpt>
      <trkpt lat="59.4562306479" lon="17.8050275297">
        <ele>18.6</ele>
        <time>2013-03-10T15:02:56Z</time>
      </trkpt>
      <trkpt lat="59.4561662749" lon="17.8049787471">
        <ele>17.6</ele>
        <time>2013-03-10T15:02:57Z</time>
      </trkpt>
      <trkpt lat="59.4561011475" lon="17.8049289586">
        <ele>16.8</ele>
        <time>2013-03-10T15:02:58Z</time>
      </trkpt>
      <trkpt lat="59.4559661989" lon="17.8048184013">
        <ele>15</ele>
        <time>2013-03-10T15:02:59Z</time>
      </trkpt>
      <trkpt lat="59.4559048434" lon="17.8047675232">
        <ele>15</ele>
        <time>2013-03-10T15:03:01Z</time>
      </trkpt>
      <trkpt lat="59.4554904423" lon="17.8044214345">
        <ele>15</ele>
        <time>2013-03-10T15:03:07Z</time>
      </trkpt>
      <trkpt lat="59.455289109" lon="17.804313308">
        <ele>15</ele>
        <time>2013-03-10T15:03:10Z</time>
      </trkpt>
      <trkpt lat="59.4551362232" lon="17.8042904254">
        <ele>15</ele>
        <time>2013-03-10T15:03:12Z</time>
      </trkpt>
      <trkpt lat="59.4549897076" lon="17.8043092847">
        <ele>15</ele>
        <time>2013-03-10T15:03:14Z</time>
      </trkpt>
      <trkpt lat="59.4549192996" lon="17.8043345142">
        <ele>14.4</ele>
        <time>2013-03-10T15:03:15Z</time>
      </trkpt>
      <trkpt lat="59.4548499813" lon="17.8043703049">
        <ele>14</ele>
        <time>2013-03-10T15:03:16Z</time>
      </trkpt>
      <trkpt lat="59.454784351" lon="17.8044050898">
        <ele>13.6</ele>
        <time>2013-03-10T15:03:17Z</time>
      </trkpt>
      <trkpt lat="59.4547162062" lon="17.8044697143">
        <ele>13.2</ele>
        <time>2013-03-10T15:03:18Z</time>
      </trkpt>
      <trkpt lat="59.4546514141" lon="17.8045301478">
        <ele>12.8</ele>
        <time>2013-03-10T15:03:19Z</time>
      </trkpt>
      <trkpt lat="59.4545266076" lon="17.8046720533">
        <ele>12.4</ele>
        <time>2013-03-10T15:03:21Z</time>
      </trkpt>
      <trkpt lat="59.4544683534" lon="17.8047489992">
        <ele>12</ele>
        <time>2013-03-10T15:03:22Z</time>
      </trkpt>
      <trkpt lat="59.4544105183" lon="17.8048333211">
        <ele>11.4</ele>
        <time>2013-03-10T15:03:23Z</time>
      </trkpt>
      <trkpt lat="59.4543554492" lon="17.8049195709">
        <ele>11</ele>
        <time>2013-03-10T15:03:24Z</time>
      </trkpt>
      <trkpt lat="59.4543028947" lon="17.805004731">
        <ele>10.6</ele>
        <time>2013-03-10T15:03:25Z</time>
      </trkpt>
      <trkpt lat="59.4541977018" lon="17.8051602152">
        <ele>10.6</ele>
        <time>2013-03-10T15:03:27Z</time>
      </trkpt>
      <trkpt lat="59.4539319118" lon="17.8055786397">
        <ele>10.6</ele>
        <time>2013-03-10T15:03:32Z</time>
      </trkpt>
      <trkpt lat="59.4535754296" lon="17.8061459266">
        <ele>10.6</ele>
        <time>2013-03-10T15:03:39Z</time>
      </trkpt>
      <trkpt lat="59.4533232182" lon="17.8066500979">
        <ele>10.6</ele>
        <time>2013-03-10T15:03:45Z</time>
      </trkpt>
      <trkpt lat="59.4532985754" lon="17.8067448972">
        <ele>10.6</ele>
        <time>2013-03-10T15:03:46Z</time>
      </trkpt>
      <trkpt lat="59.453293211" lon="17.8069504214">
        <ele>10.6</ele>
        <time>2013-03-10T15:03:48Z</time>
      </trkpt>
      <trkpt lat="59.4533715818" lon="17.8072804168">
        <ele>10.6</ele>
        <time>2013-03-10T15:03:51Z</time>
      </trkpt>
      <trkpt lat="59.4534038521" lon="17.8073908903">
        <ele>10.6</ele>
        <time>2013-03-10T15:03:52Z</time>
      </trkpt>
      <trkpt lat="59.4535072847" lon="17.8077156889">
        <ele>10.6</ele>
        <time>2013-03-10T15:03:55Z</time>
      </trkpt>
      <trkpt lat="59.4536069455" lon="17.8078936366">
        <ele>10.6</ele>
        <time>2013-03-10T15:03:57Z</time>
      </trkpt>
      <trkpt lat="59.4538195943" lon="17.8082196925">
        <ele>10.6</ele>
        <time>2013-03-10T15:04:01Z</time>
      </trkpt>
      <trkpt lat="59.4539098674" lon="17.8084074471">
        <ele>10.6</ele>
        <time>2013-03-10T15:04:03Z</time>
      </trkpt>
      <trkpt lat="59.4541143858" lon="17.8088479159">
        <ele>10.6</ele>
        <time>2013-03-10T15:04:08Z</time>
      </trkpt>
      <trkpt lat="59.4541466561" lon="17.8089355906">
        <ele>10.6</ele>
        <time>2013-03-10T15:04:09Z</time>
      </trkpt>
      <trkpt lat="59.4542666011" lon="17.8091531847">
        <ele>10.6</ele>
        <time>2013-03-10T15:04:12Z</time>
      </trkpt>
      <trkpt lat="59.4544300481" lon="17.8094617225">
        <ele>10.6</ele>
        <time>2013-03-10T15:04:16Z</time>
      </trkpt>
      <trkpt lat="59.4544862068" lon="17.8096583618">
        <ele>10.6</ele>
        <time>2013-03-10T15:04:18Z</time>
      </trkpt>
      <trkpt lat="59.4545641585" lon="17.8098254131">
        <ele>10.6</ele>
        <time>2013-03-10T15:04:20Z</time>
      </trkpt>
      <trkpt lat="59.4546446248" lon="17.8099879381">
        <ele>10.6</ele>
        <time>2013-03-10T15:04:22Z</time>
      </trkpt>
      <trkpt lat="59.454844114" lon="17.8105117231">
        <ele>10.6</ele>
        <time>2013-03-10T15:04:28Z</time>
      </trkpt>
      <trkpt lat="59.4549336327" lon="17.8108329175">
        <ele>10.6</ele>
        <time>2013-03-10T15:04:32Z</time>
      </trkpt>
      <trkpt lat="59.4549705968" lon="17.8109969513">
        <ele>10.6</ele>
        <time>2013-03-10T15:04:34Z</time>
      </trkpt>
      <trkpt lat="59.4550680783" lon="17.8115278608">
        <ele>10.6</ele>
        <time>2013-03-10T15:04:40Z</time>
      </trkpt>
      <trkpt lat="59.4551116642" lon="17.8117322954">
        <ele>10.6</ele>
        <time>2013-03-10T15:04:43Z</time>
      </trkpt>
      <trkpt lat="59.4551272546" lon="17.8118167849">
        <ele>10.6</ele>
        <time>2013-03-10T15:04:44Z</time>
      </trkpt>
      <trkpt lat="59.4552391529" lon="17.8122996662">
        <ele>10.6</ele>
        <time>2013-03-10T15:04:49Z</time>
      </trkpt>
      <trkpt lat="59.4553643785" lon="17.8128881594">
        <ele>10.6</ele>
        <time>2013-03-10T15:04:55Z</time>
      </trkpt>
      <trkpt lat="59.4553855009" lon="17.8129967888">
        <ele>10.6</ele>
        <time>2013-03-10T15:04:56Z</time>
      </trkpt>
      <trkpt lat="59.455409054" lon="17.8130982936">
        <ele>11</ele>
        <time>2013-03-10T15:04:57Z</time>
      </trkpt>
      <trkpt lat="59.4554370496" lon="17.8132052466">
        <ele>11.6</ele>
        <time>2013-03-10T15:04:58Z</time>
      </trkpt>
      <trkpt lat="59.4554656319" lon="17.8133151334">
        <ele>12</ele>
        <time>2013-03-10T15:04:59Z</time>
      </trkpt>
      <trkpt lat="59.4554923701" lon="17.8134252715">
        <ele>12.4</ele>
        <time>2013-03-10T15:05:00Z</time>
      </trkpt>
      <trkpt lat="59.4555168453" lon="17.8135351582">
        <ele>12.8</ele>
        <time>2013-03-10T15:05:01Z</time>
      </trkpt>
      <trkpt lat="59.4555435835" lon="17.8136359925">
        <ele>12.8</ele>
        <time>2013-03-10T15:05:02Z</time>
      </trkpt>
      <trkpt lat="59.4556672166" lon="17.8140497231">
        <ele>12.8</ele>
        <time>2013-03-10T15:05:06Z</time>
      </trkpt>
      <trkpt lat="59.4556993192" lon="17.8141487971">
        <ele>12.4</ele>
        <time>2013-03-10T15:05:07Z</time>
      </trkpt>
      <trkpt lat="59.4557329306" lon="17.8142511401">
        <ele>12</ele>
        <time>2013-03-10T15:05:08Z</time>
      </trkpt>
      <trkpt lat="59.4557674641" lon="17.814355411">
        <ele>11.6</ele>
        <time>2013-03-10T15:05:09Z</time>
      </trkpt>
      <trkpt lat="59.4558051826" lon="17.8144604362">
        <ele>11</ele>
        <time>2013-03-10T15:05:10Z</time>
      </trkpt>
      <trkpt lat="59.4558458348" lon="17.8145598455">
        <ele>10.6</ele>
        <time>2013-03-10T15:05:11Z</time>
      </trkpt>
      <trkpt lat="59.4559293186" lon="17.8147504499">
        <ele>10.6</ele>
        <time>2013-03-10T15:05:13Z</time>
      </trkpt>
      <trkpt lat="59.456227798" lon="17.8153234366">
        <ele>10.6</ele>
        <time>2013-03-10T15:05:20Z</time>
      </trkpt>
      <trkpt lat="59.4563197475" lon="17.8154736402">
        <ele>10.6</ele>
        <time>2013-03-10T15:05:22Z</time>
      </trkpt>
      <trkpt lat="59.4565424546" lon="17.8158274402">
        <ele>10.6</ele>
        <time>2013-03-10T15:05:27Z</time>
      </trkpt>
      <trkpt lat="59.4567373337" lon="17.816236477">
        <ele>10.6</ele>
        <time>2013-03-10T15:05:32Z</time>
      </trkpt>
      <trkpt lat="59.4567676762" lon="17.8163264986">
        <ele>10.6</ele>
        <time>2013-03-10T15:05:33Z</time>
      </trkpt>
      <trkpt lat="59.4569637288" lon="17.8168593359">
        <ele>10.6</ele>
        <time>2013-03-10T15:05:39Z</time>
      </trkpt>
      <trkpt lat="59.4572071392" lon="17.8174621622">
        <ele>10.6</ele>
        <time>2013-03-10T15:05:46Z</time>
      </trkpt>
      <trkpt lat="59.4572906229" lon="17.8176909042">
        <ele>10.6</ele>
        <time>2013-03-10T15:05:49Z</time>
      </trkpt>
      <trkpt lat="59.457373017" lon="17.8179030501">
        <ele>10.6</ele>
        <time>2013-03-10T15:05:52Z</time>
      </trkpt>
      <trkpt lat="59.4574050359" lon="17.8179532577">
        <ele>10.6</ele>
        <time>2013-03-10T15:05:53Z</time>
      </trkpt>
      <trkpt lat="59.4575402359" lon="17.818080495">
        <ele>10.6</ele>
        <time>2013-03-10T15:05:57Z</time>
      </trkpt>
      <trkpt lat="59.4576957202" lon="17.8181490589">
        <ele>10.6</ele>
        <time>2013-03-10T15:06:02Z</time>
      </trkpt>
      <trkpt lat="59.4578497795" lon="17.8182174552">
        <ele>11</ele>
        <time>2013-03-10T15:06:07Z</time>
      </trkpt>
      <trkpt lat="59.457881044" lon="17.8182485521">
        <ele>11.6</ele>
        <time>2013-03-10T15:06:08Z</time>
      </trkpt>
      <trkpt lat="59.4579141525" lon="17.8182745359">
        <ele>12</ele>
        <time>2013-03-10T15:06:09Z</time>
      </trkpt>
      <trkpt lat="59.4579449141" lon="17.818303202">
        <ele>12.4</ele>
        <time>2013-03-10T15:06:10Z</time>
      </trkpt>
      <trkpt lat="59.4579761785" lon="17.8183341313">
        <ele>12.8</ele>
        <time>2013-03-10T15:06:11Z</time>
      </trkpt>
      <trkpt lat="59.4580070239" lon="17.8183500569">
        <ele>12.8</ele>
        <time>2013-03-10T15:06:12Z</time>
      </trkpt>
      <trkpt lat="59.4580385399" lon="17.8183487158">
        <ele>12.8</ele>
        <time>2013-03-10T15:06:13Z</time>
      </trkpt>
      <trkpt lat="59.4581267175" lon="17.8183818243">
        <ele>13.2</ele>
        <time>2013-03-10T15:06:16Z</time>
      </trkpt>
      <trkpt lat="59.4581472531" lon="17.8183900385">
        <ele>13.8</ele>
        <time>2013-03-10T15:06:17Z</time>
      </trkpt>
      <trkpt lat="59.458171393" lon="17.818407892">
        <ele>14.2</ele>
        <time>2013-03-10T15:06:18Z</time>
      </trkpt>
      <trkpt lat="59.4581989694" lon="17.8184353008">
        <ele>14.6</ele>
        <time>2013-03-10T15:06:19Z</time>
      </trkpt>
      <trkpt lat="59.4582293119" lon="17.8184715106">
        <ele>15</ele>
        <time>2013-03-10T15:06:20Z</time>
      </trkpt>
      <trkpt lat="59.4582615822" lon="17.8185110732">
        <ele>15</ele>
        <time>2013-03-10T15:06:21Z</time>
      </trkpt>
      <trkpt lat="59.4584755721" lon="17.8187683975">
        <ele>15.6</ele>
        <time>2013-03-10T15:06:27Z</time>
      </trkpt>
      <trkpt lat="59.4585140451" lon="17.8188145818">
        <ele>16</ele>
        <time>2013-03-10T15:06:28Z</time>
      </trkpt>
      <trkpt lat="59.4585546973" lon="17.818861688">
        <ele>16.4</ele>
        <time>2013-03-10T15:06:29Z</time>
      </trkpt>
      <trkpt lat="59.4585943437" lon="17.8189062797">
        <ele>16.8</ele>
        <time>2013-03-10T15:06:30Z</time>
      </trkpt>
      <trkpt lat="59.4586334033" lon="17.8189497818">
        <ele>17.2</ele>
        <time>2013-03-10T15:06:31Z</time>
      </trkpt>
      <trkpt lat="59.4588679289" lon="17.8192024123">
        <ele>17.2</ele>
        <time>2013-03-10T15:06:37Z</time>
      </trkpt>
      <trkpt lat="59.4591316235" lon="17.8194992154">
        <ele>17.2</ele>
        <time>2013-03-10T15:06:44Z</time>
      </trkpt>
      <trkpt lat="59.4593675739" lon="17.8197589704">
        <ele>17.2</ele>
        <time>2013-03-10T15:06:50Z</time>
      </trkpt>
      <trkpt lat="59.4594501357" lon="17.8198501655">
        <ele>17.6</ele>
        <time>2013-03-10T15:06:52Z</time>
      </trkpt>
      <trkpt lat="59.4594919613" lon="17.8198946734">
        <ele>18</ele>
        <time>2013-03-10T15:06:53Z</time>
      </trkpt>
      <trkpt lat="59.4595318592" lon="17.8199387622">
        <ele>18.4</ele>
        <time>2013-03-10T15:06:54Z</time>
      </trkpt>
      <trkpt lat="59.4595691586" lon="17.8199851141">
        <ele>19</ele>
        <time>2013-03-10T15:06:55Z</time>
      </trkpt>
      <trkpt lat="59.4596068772" lon="17.8200330586">
        <ele>19.4</ele>
        <time>2013-03-10T15:06:56Z</time>
      </trkpt>
      <trkpt lat="59.4596452663" lon="17.8200763092">
        <ele>19.4</ele>
        <time>2013-03-10T15:06:57Z</time>
      </trkpt>
      <trkpt lat="59.4596839907" lon="17.8201126866">
        <ele>19.4</ele>
        <time>2013-03-10T15:06:58Z</time>
      </trkpt>
      <trkpt lat="59.4599567377" lon="17.8203948214">
        <ele>19.4</ele>
        <time>2013-03-10T15:07:05Z</time>
      </trkpt>
      <trkpt lat="59.4601599988" lon="17.8206127508">
        <ele>19.4</ele>
        <time>2013-03-10T15:07:10Z</time>
      </trkpt>
      <trkpt lat="59.460245578" lon="17.8207010122">
        <ele>19.4</ele>
        <time>2013-03-10T15:07:12Z</time>
      </trkpt>
      <trkpt lat="59.4603796046" lon="17.8208302611">
        <ele>19.4</ele>
        <time>2013-03-10T15:07:15Z</time>
      </trkpt>
      <trkpt lat="59.4604189157" lon="17.8208751881">
        <ele>19.8</ele>
        <time>2013-03-10T15:07:16Z</time>
      </trkpt>
      <trkpt lat="59.460458143" lon="17.820925228">
        <ele>20.2</ele>
        <time>2013-03-10T15:07:17Z</time>
      </trkpt>
      <trkpt lat="59.460496113" lon="17.8209763576">
        <ele>20.6</ele>
        <time>2013-03-10T15:07:18Z</time>
      </trkpt>
      <trkpt lat="59.4605349212" lon="17.8210245535">
        <ele>21</ele>
        <time>2013-03-10T15:07:19Z</time>
      </trkpt>
      <trkpt lat="59.4605733103" lon="17.8210716598">
        <ele>21.4</ele>
        <time>2013-03-10T15:07:20Z</time>
      </trkpt>
      <trkpt lat="59.4606121185" lon="17.8211152457">
        <ele>21.4</ele>
        <time>2013-03-10T15:07:21Z</time>
      </trkpt>
      <trkpt lat="59.4609255177" lon="17.8214736557">
        <ele>21.4</ele>
        <time>2013-03-10T15:07:29Z</time>
      </trkpt>
      <trkpt lat="59.4610039723" lon="17.8215621686">
        <ele>21.8</ele>
        <time>2013-03-10T15:07:31Z</time>
      </trkpt>
      <trkpt lat="59.4610427805" lon="17.8216024017">
        <ele>22.2</ele>
        <time>2013-03-10T15:07:32Z</time>
      </trkpt>
      <trkpt lat="59.4610794094" lon="17.8216443112">
        <ele>22.6</ele>
        <time>2013-03-10T15:07:33Z</time>
      </trkpt>
      <trkpt lat="59.4611152001" lon="17.8216879809">
        <ele>23</ele>
        <time>2013-03-10T15:07:34Z</time>
      </trkpt>
      <trkpt lat="59.4611539245" lon="17.8217336623">
        <ele>23.4</ele>
        <time>2013-03-10T15:07:35Z</time>
      </trkpt>
      <trkpt lat="59.4611923974" lon="17.821776829">
        <ele>23.4</ele>
        <time>2013-03-10T15:07:36Z</time>
      </trkpt>
      <trkpt lat="59.4612696785" lon="17.8218724665">
        <ele>23.4</ele>
        <time>2013-03-10T15:07:38Z</time>
      </trkpt>
      <trkpt lat="59.4614214747" lon="17.8220430382">
        <ele>23.4</ele>
        <time>2013-03-10T15:07:42Z</time>
      </trkpt>
      <trkpt lat="59.4614945649" lon="17.8221377537">
        <ele>23.4</ele>
        <time>2013-03-10T15:07:44Z</time>
      </trkpt>
      <trkpt lat="59.4615327025" lon="17.8221750531">
        <ele>23.4</ele>
        <time>2013-03-10T15:07:45Z</time>
      </trkpt>
      <trkpt lat="59.4616523961" lon="17.8223067328">
        <ele>23.4</ele>
        <time>2013-03-10T15:07:48Z</time>
      </trkpt>
      <trkpt lat="59.4616913719" lon="17.822359874">
        <ele>23.4</ele>
        <time>2013-03-10T15:07:49Z</time>
      </trkpt>
      <trkpt lat="59.4618688167" lon="17.8226785538">
        <ele>23.4</ele>
        <time>2013-03-10T15:07:54Z</time>
      </trkpt>
      <trkpt lat="59.4619259813" lon="17.8228219682">
        <ele>23.8</ele>
        <time>2013-03-10T15:07:56Z</time>
      </trkpt>
      <trkpt lat="59.4619507917" lon="17.8228954774">
        <ele>24.2</ele>
        <time>2013-03-10T15:07:57Z</time>
      </trkpt>
      <trkpt lat="59.4619730037" lon="17.8229676456">
        <ele>24.6</ele>
        <time>2013-03-10T15:07:58Z</time>
      </trkpt>
      <trkpt lat="59.4619920307" lon="17.8230426636">
        <ele>25.4</ele>
        <time>2013-03-10T15:07:59Z</time>
      </trkpt>
      <trkpt lat="59.462010387" lon="17.8231204476">
        <ele>25.4</ele>
        <time>2013-03-10T15:08:00Z</time>
      </trkpt>
      <trkpt lat="59.4620551464" lon="17.8232783626">
        <ele>25.4</ele>
        <time>2013-03-10T15:08:02Z</time>
      </trkpt>
      <trkpt lat="59.4621023365" lon="17.8234374511">
        <ele>25.4</ele>
        <time>2013-03-10T15:08:04Z</time>
      </trkpt>
      <trkpt lat="59.4621297453" lon="17.8235027461">
        <ele>25.4</ele>
        <time>2013-03-10T15:08:05Z</time>
      </trkpt>
      <trkpt lat="59.4622021649" lon="17.8235535404">
        <ele>25.4</ele>
        <time>2013-03-10T15:08:07Z</time>
      </trkpt>
      <trkpt lat="59.4623308271" lon="17.8235180011">
        <ele>25.4</ele>
        <time>2013-03-10T15:08:10Z</time>
      </trkpt>
      <trkpt lat="59.4623730718" lon="17.8234887483">
        <ele>25.4</ele>
        <time>2013-03-10T15:08:11Z</time>
      </trkpt>
      <trkpt lat="59.4624125506" lon="17.8234510297">
        <ele>25.4</ele>
        <time>2013-03-10T15:08:12Z</time>
      </trkpt>
      <trkpt lat="59.4624503529" lon="17.823411551">
        <ele>25.4</ele>
        <time>2013-03-10T15:08:13Z</time>
      </trkpt>
      <trkpt lat="59.4625464095" lon="17.8233728266">
        <ele>25.4</ele>
        <time>2013-03-10T15:08:16Z</time>
      </trkpt>
      <trkpt lat="59.4626023168" lon="17.8234335954">
        <ele>25.8</ele>
        <time>2013-03-10T15:08:18Z</time>
      </trkpt>
      <trkpt lat="59.462628636" lon="17.8234737447">
        <ele>26.4</ele>
        <time>2013-03-10T15:08:19Z</time>
      </trkpt>
      <trkpt lat="59.4626599843" lon="17.8235248743">
        <ele>26.8</ele>
        <time>2013-03-10T15:08:20Z</time>
      </trkpt>
      <trkpt lat="59.4626951882" lon="17.8235811168">
        <ele>27.2</ele>
        <time>2013-03-10T15:08:21Z</time>
      </trkpt>
      <trkpt lat="59.4627373492" lon="17.8236469986">
        <ele>27.6</ele>
        <time>2013-03-10T15:08:22Z</time>
      </trkpt>
      <trkpt lat="59.4628633292" lon="17.8238640898">
        <ele>27.6</ele>
        <time>2013-03-10T15:08:25Z</time>
      </trkpt>
      <trkpt lat="59.4631308794" lon="17.8242805026">
        <ele>27.2</ele>
        <time>2013-03-10T15:08:31Z</time>
      </trkpt>
      <trkpt lat="59.463175052" lon="17.8243576999">
        <ele>26.6</ele>
        <time>2013-03-10T15:08:32Z</time>
      </trkpt>
      <trkpt lat="59.4632187217" lon="17.824434059">
        <ele>26.2</ele>
        <time>2013-03-10T15:08:33Z</time>
      </trkpt>
      <trkpt lat="59.4632666662" lon="17.8245084064">
        <ele>25.6</ele>
        <time>2013-03-10T15:08:34Z</time>
      </trkpt>
      <trkpt lat="59.4633146107" lon="17.824584095">
        <ele>25.2</ele>
        <time>2013-03-10T15:08:35Z</time>
      </trkpt>
      <trkpt lat="59.4634069792" lon="17.8247423453">
        <ele>25.2</ele>
        <time>2013-03-10T15:08:37Z</time>
      </trkpt>
      <trkpt lat="59.4637433448" lon="17.8253988157">
        <ele>25.2</ele>
        <time>2013-03-10T15:08:45Z</time>
      </trkpt>
      <trkpt lat="59.4639005893" lon="17.8257609976">
        <ele>24.8</ele>
        <time>2013-03-10T15:08:49Z</time>
      </trkpt>
      <trkpt lat="59.4639398166" lon="17.8258560483">
        <ele>24.4</ele>
        <time>2013-03-10T15:08:50Z</time>
      </trkpt>
      <trkpt lat="59.4639768646" lon="17.825957134">
        <ele>24</ele>
        <time>2013-03-10T15:08:51Z</time>
      </trkpt>
      <trkpt lat="59.4640107275" lon="17.8260602314">
        <ele>23.6</ele>
        <time>2013-03-10T15:08:52Z</time>
      </trkpt>
      <trkpt lat="59.4640421596" lon="17.8261643346">
        <ele>23.2</ele>
        <time>2013-03-10T15:08:53Z</time>
      </trkpt>
      <trkpt lat="59.4640721668" lon="17.8262680187">
        <ele>23.2</ele>
        <time>2013-03-10T15:08:54Z</time>
      </trkpt>
      <trkpt lat="59.4642538864" lon="17.8269208849">
        <ele>23.2</ele>
        <time>2013-03-10T15:09:00Z</time>
      </trkpt>
      <trkpt lat="59.4642781939" lon="17.8270404108">
        <ele>23.2</ele>
        <time>2013-03-10T15:09:01Z</time>
      </trkpt>
      <trkpt lat="59.4643041778" lon="17.8271651335">
        <ele>22.8</ele>
        <time>2013-03-10T15:09:02Z</time>
      </trkpt>
      <trkpt lat="59.4643315028" lon="17.827282983">
        <ele>22.4</ele>
        <time>2013-03-10T15:09:03Z</time>
      </trkpt>
      <trkpt lat="59.4643578219" lon="17.8274002458">
        <ele>22</ele>
        <time>2013-03-10T15:09:04Z</time>
      </trkpt>
      <trkpt lat="59.4643822971" lon="17.8275154969">
        <ele>21.6</ele>
        <time>2013-03-10T15:09:05Z</time>
      </trkpt>
      <trkpt lat="59.464406856" lon="17.8276318376">
        <ele>21.2</ele>
        <time>2013-03-10T15:09:06Z</time>
      </trkpt>
      <trkpt lat="59.4644538785" lon="17.8278651059">
        <ele>21.2</ele>
        <time>2013-03-10T15:09:08Z</time>
      </trkpt>
      <trkpt lat="59.4646400405" lon="17.8287431099">
        <ele>21.2</ele>
        <time>2013-03-10T15:09:16Z</time>
      </trkpt>
      <trkpt lat="59.4647883163" lon="17.8293518035">
        <ele>21.2</ele>
        <time>2013-03-10T15:09:22Z</time>
      </trkpt>
      <trkpt lat="59.4648114504" lon="17.8294574993">
        <ele>21.2</ele>
        <time>2013-03-10T15:09:23Z</time>
      </trkpt>
      <trkpt lat="59.464973221" lon="17.8302013091">
        <ele>21.2</ele>
        <time>2013-03-10T15:09:30Z</time>
      </trkpt>
      <trkpt lat="59.4651381768" lon="17.8311477094">
        <ele>21.2</ele>
        <time>2013-03-10T15:09:39Z</time>
      </trkpt>
      <trkpt lat="59.4652110155" lon="17.8319721531">
        <ele>21.2</ele>
        <time>2013-03-10T15:09:47Z</time>
      </trkpt>
      <trkpt lat="59.465268683" lon="17.8326543559">
        <ele>21.6</ele>
        <time>2013-03-10T15:09:54Z</time>
      </trkpt>
      <trkpt lat="59.4652752209" lon="17.8327442937">
        <ele>22</ele>
        <time>2013-03-10T15:09:55Z</time>
      </trkpt>
      <trkpt lat="59.4652823455" lon="17.832837249">
        <ele>22.4</ele>
        <time>2013-03-10T15:09:56Z</time>
      </trkpt>
      <trkpt lat="59.4652917332" lon="17.8329218224">
        <ele>22.8</ele>
        <time>2013-03-10T15:09:57Z</time>
      </trkpt>
      <trkpt lat="59.4653010371" lon="17.8330071501">
        <ele>23.2</ele>
        <time>2013-03-10T15:09:58Z</time>
      </trkpt>
      <trkpt lat="59.4653219919" lon="17.8332531589">
        <ele>23.2</ele>
        <time>2013-03-10T15:10:01Z</time>
      </trkpt>
      <trkpt lat="59.4653845209" lon="17.8339258902">
        <ele>23.2</ele>
        <time>2013-03-10T15:10:10Z</time>
      </trkpt>
      <trkpt lat="59.4654014523" lon="17.8340734954">
        <ele>23.6</ele>
        <time>2013-03-10T15:10:12Z</time>
      </trkpt>
      <trkpt lat="59.4654069844" lon="17.8341449092">
        <ele>24</ele>
        <time>2013-03-10T15:10:13Z</time>
      </trkpt>
      <trkpt lat="59.4654131031" lon="17.8342159039">
        <ele>24.6</ele>
        <time>2013-03-10T15:10:14Z</time>
      </trkpt>
      <trkpt lat="59.4654234129" lon="17.8342852222">
        <ele>25</ele>
        <time>2013-03-10T15:10:15Z</time>
      </trkpt>
      <trkpt lat="59.4654334712" lon="17.8343551273">
        <ele>25.4</ele>
        <time>2013-03-10T15:10:16Z</time>
      </trkpt>
      <trkpt lat="59.4654427751" lon="17.8344258705">
        <ele>25.4</ele>
        <time>2013-03-10T15:10:17Z</time>
      </trkpt>
      <trkpt lat="59.4655430226" lon="17.834740527">
        <ele>25.8</ele>
        <time>2013-03-10T15:10:22Z</time>
      </trkpt>
      <trkpt lat="59.4655702638" lon="17.8347955961">
        <ele>26.2</ele>
        <time>2013-03-10T15:10:23Z</time>
      </trkpt>
      <trkpt lat="59.4655981755" lon="17.8348510843">
        <ele>26.6</ele>
        <time>2013-03-10T15:10:24Z</time>
      </trkpt>
      <trkpt lat="59.4656276798" lon="17.834904477">
        <ele>27</ele>
        <time>2013-03-10T15:10:25Z</time>
      </trkpt>
      <trkpt lat="59.4656562621" lon="17.8349617254">
        <ele>27.4</ele>
        <time>2013-03-10T15:10:26Z</time>
      </trkpt>
      <trkpt lat="59.4657399134" lon="17.8351167905">
        <ele>27.4</ele>
        <time>2013-03-10T15:10:29Z</time>
      </trkpt>
      <trkpt lat="59.4657990896" lon="17.8352250009">
        <ele>27.4</ele>
        <time>2013-03-10T15:10:31Z</time>
      </trkpt>
      <trkpt lat="59.4658892789" lon="17.8354038706">
        <ele>27.4</ele>
        <time>2013-03-10T15:10:34Z</time>
      </trkpt>
      <trkpt lat="59.4660665561" lon="17.8357544855">
        <ele>27.4</ele>
        <time>2013-03-10T15:10:39Z</time>
      </trkpt>
      <trkpt lat="59.4662761036" lon="17.8363199285">
        <ele>27</ele>
        <time>2013-03-10T15:10:45Z</time>
      </trkpt>
      <trkpt lat="59.4663060269" lon="17.8364041665">
        <ele>26.4</ele>
        <time>2013-03-10T15:10:46Z</time>
      </trkpt>
      <trkpt lat="59.4663332681" lon="17.8364899972">
        <ele>26</ele>
        <time>2013-03-10T15:10:47Z</time>
      </trkpt>
      <trkpt lat="59.4663590006" lon="17.8365864729">
        <ele>25.4</ele>
        <time>2013-03-10T15:10:48Z</time>
      </trkpt>
      <trkpt lat="59.4663838948" lon="17.8366773327">
        <ele>25</ele>
        <time>2013-03-10T15:10:49Z</time>
      </trkpt>
      <trkpt lat="59.4664489383" lon="17.836930969">
        <ele>25</ele>
        <time>2013-03-10T15:10:52Z</time>
      </trkpt>
      <trkpt lat="59.4665995611" lon="17.8374971663">
        <ele>25</ele>
        <time>2013-03-10T15:10:59Z</time>
      </trkpt>
      <trkpt lat="59.4667615832" lon="17.8380732543">
        <ele>25</ele>
        <time>2013-03-10T15:11:07Z</time>
      </trkpt>
      <trkpt lat="59.4668063426" lon="17.8382251343">
        <ele>25</ele>
        <time>2013-03-10T15:11:11Z</time>
      </trkpt>
      <trkpt lat="59.4668670275" lon="17.8385344264">
        <ele>25.4</ele>
        <time>2013-03-10T15:11:16Z</time>
      </trkpt>
      <trkpt lat="59.466882534" lon="17.8386074328">
        <ele>26.2</ele>
        <time>2013-03-10T15:11:17Z</time>
      </trkpt>
      <trkpt lat="59.4668960289" lon="17.8386843786">
        <ele>26.6</ele>
        <time>2013-03-10T15:11:18Z</time>
      </trkpt>
      <trkpt lat="59.4669057519" lon="17.8387674433">
        <ele>27</ele>
        <time>2013-03-10T15:11:19Z</time>
      </trkpt>
      <trkpt lat="59.466907093" lon="17.8389210835">
        <ele>27</ele>
        <time>2013-03-10T15:11:21Z</time>
      </trkpt>
      <trkpt lat="59.4668927599" lon="17.8390784956">
        <ele>27</ele>
        <time>2013-03-10T15:11:23Z</time>
      </trkpt>
      <trkpt lat="59.4668827017" lon="17.8391558605">
        <ele>27</ele>
        <time>2013-03-10T15:11:24Z</time>
      </trkpt>
      <trkpt lat="59.4668426362" lon="17.8393077405">
        <ele>27</ele>
        <time>2013-03-10T15:11:26Z</time>
      </trkpt>
      <trkpt lat="59.4666429793" lon="17.8397908732">
        <ele>27</ele>
        <time>2013-03-10T15:11:33Z</time>
      </trkpt>
      <trkpt lat="59.4665579869" lon="17.840007713">
        <ele>27.4</ele>
        <time>2013-03-10T15:11:36Z</time>
      </trkpt>
      <trkpt lat="59.4665293208" lon="17.8400728404">
        <ele>28</ele>
        <time>2013-03-10T15:11:37Z</time>
      </trkpt>
      <trkpt lat="59.4664993136" lon="17.8401384706">
        <ele>28.4</ele>
        <time>2013-03-10T15:11:38Z</time>
      </trkpt>
      <trkpt lat="59.4664680491" lon="17.840210555">
        <ele>28.8</ele>
        <time>2013-03-10T15:11:39Z</time>
      </trkpt>
      <trkpt lat="59.4664367846" lon="17.8402833937">
        <ele>29.2</ele>
        <time>2013-03-10T15:11:40Z</time>
      </trkpt>
      <trkpt lat="59.4662333559" lon="17.8407634251">
        <ele>29.2</ele>
        <time>2013-03-10T15:11:47Z</time>
      </trkpt>
      <trkpt lat="59.4660124928" lon="17.8412635731">
        <ele>29.2</ele>
        <time>2013-03-10T15:11:53Z</time>
      </trkpt>
      <trkpt lat="59.4658133389" lon="17.8417226497">
        <ele>28.8</ele>
        <time>2013-03-10T15:11:58Z</time>
      </trkpt>
      <trkpt lat="59.4657730219" lon="17.8418187901">
        <ele>28.4</ele>
        <time>2013-03-10T15:11:59Z</time>
      </trkpt>
      <trkpt lat="59.4657304419" lon="17.8419172775">
        <ele>28</ele>
        <time>2013-03-10T15:12:00Z</time>
      </trkpt>
      <trkpt lat="59.4656894544" lon="17.8420122444">
        <ele>27.6</ele>
        <time>2013-03-10T15:12:01Z</time>
      </trkpt>
      <trkpt lat="59.4656481316" lon="17.8421065408">
        <ele>27.2</ele>
        <time>2013-03-10T15:12:02Z</time>
      </trkpt>
      <trkpt lat="59.4654054756" lon="17.8426386238">
        <ele>26.8</ele>
        <time>2013-03-10T15:12:08Z</time>
      </trkpt>
      <trkpt lat="59.4653680085" lon="17.8427257955">
        <ele>26.2</ele>
        <time>2013-03-10T15:12:09Z</time>
      </trkpt>
      <trkpt lat="59.4653304576" lon="17.8428081058">
        <ele>25.8</ele>
        <time>2013-03-10T15:12:10Z</time>
      </trkpt>
      <trkpt lat="59.4652934934" lon="17.8428889911">
        <ele>25.4</ele>
        <time>2013-03-10T15:12:11Z</time>
      </trkpt>
      <trkpt lat="59.4652577865" lon="17.8429680324">
        <ele>25</ele>
        <time>2013-03-10T15:12:12Z</time>
      </trkpt>
      <trkpt lat="59.4651428707" lon="17.8431961039">
        <ele>25</ele>
        <time>2013-03-10T15:12:15Z</time>
      </trkpt>
      <trkpt lat="59.4649727181" lon="17.8434671746">
        <ele>25</ele>
        <time>2013-03-10T15:12:19Z</time>
      </trkpt>
      <trkpt lat="59.4649195769" lon="17.8435163763">
        <ele>24.4</ele>
        <time>2013-03-10T15:12:20Z</time>
      </trkpt>
      <trkpt lat="59.4648688664" lon="17.8435455453">
        <ele>24</ele>
        <time>2013-03-10T15:12:21Z</time>
      </trkpt>
      <trkpt lat="59.464820419" lon="17.8435722836">
        <ele>23.4</ele>
        <time>2013-03-10T15:12:22Z</time>
      </trkpt>
      <trkpt lat="59.4647760787" lon="17.8436006983">
        <ele>23</ele>
        <time>2013-03-10T15:12:23Z</time>
      </trkpt>
      <trkpt lat="59.464733331" lon="17.8436255087">
        <ele>22.4</ele>
        <time>2013-03-10T15:12:24Z</time>
      </trkpt>
      <trkpt lat="59.4646945229" lon="17.8436618861">
        <ele>22.4</ele>
        <time>2013-03-10T15:12:25Z</time>
      </trkpt>
      <trkpt lat="59.4646358496" lon="17.8438233215">
        <ele>22.4</ele>
        <time>2013-03-10T15:12:27Z</time>
      </trkpt>
      <trkpt lat="59.4645925989" lon="17.8441787979">
        <ele>22.4</ele>
        <time>2013-03-10T15:12:30Z</time>
      </trkpt>
      <trkpt lat="59.464580529" lon="17.8443036044">
        <ele>22.4</ele>
        <time>2013-03-10T15:12:31Z</time>
      </trkpt>
      <trkpt lat="59.4645544613" lon="17.8445567378">
        <ele>22</ele>
        <time>2013-03-10T15:12:33Z</time>
      </trkpt>
      <trkpt lat="59.4645396253" lon="17.8446792811">
        <ele>21.6</ele>
        <time>2013-03-10T15:12:34Z</time>
      </trkpt>
      <trkpt lat="59.464522191" lon="17.8448091168">
        <ele>21</ele>
        <time>2013-03-10T15:12:35Z</time>
      </trkpt>
      <trkpt lat="59.4645058463" lon="17.8449309058">
        <ele>20.6</ele>
        <time>2013-03-10T15:12:36Z</time>
      </trkpt>
      <trkpt lat="59.4644909265" lon="17.84504842">
        <ele>20.2</ele>
        <time>2013-03-10T15:12:37Z</time>
      </trkpt>
      <trkpt lat="59.4644625119" lon="17.8452754857">
        <ele>20.2</ele>
        <time>2013-03-10T15:12:39Z</time>
      </trkpt>
      <trkpt lat="59.4644431497" lon="17.8454909843">
        <ele>19.8</ele>
        <time>2013-03-10T15:12:41Z</time>
      </trkpt>
      <trkpt lat="59.464434684" lon="17.8455967639">
        <ele>19.2</ele>
        <time>2013-03-10T15:12:42Z</time>
      </trkpt>
      <trkpt lat="59.4644267211" lon="17.845714362">
        <ele>18.8</ele>
        <time>2013-03-10T15:12:43Z</time>
      </trkpt>
      <trkpt lat="59.4644190936" lon="17.8458378274">
        <ele>18.4</ele>
        <time>2013-03-10T15:12:44Z</time>
      </trkpt>
      <trkpt lat="59.4644112146" lon="17.8459671601">
        <ele>18</ele>
        <time>2013-03-10T15:12:45Z</time>
      </trkpt>
      <trkpt lat="59.4644035033" lon="17.8460933915">
        <ele>17.4</ele>
        <time>2013-03-10T15:12:46Z</time>
      </trkpt>
      <trkpt lat="59.464396211" lon="17.8462125821">
        <ele>16.8</ele>
        <time>2013-03-10T15:12:47Z</time>
      </trkpt>
      <trkpt lat="59.4643910981" lon="17.8463305154">
        <ele>16.2</ele>
        <time>2013-03-10T15:12:48Z</time>
      </trkpt>
      <trkpt lat="59.4643861528" lon="17.8464466048">
        <ele>15.8</ele>
        <time>2013-03-10T15:12:49Z</time>
      </trkpt>
      <trkpt lat="59.4643813751" lon="17.8465626941">
        <ele>15.2</ele>
        <time>2013-03-10T15:12:50Z</time>
      </trkpt>
      <trkpt lat="59.4643759268" lon="17.8466784481">
        <ele>15.2</ele>
        <time>2013-03-10T15:12:51Z</time>
      </trkpt>
      <trkpt lat="59.4643190976" lon="17.8472547876">
        <ele>15.2</ele>
        <time>2013-03-10T15:12:56Z</time>
      </trkpt>
      <trkpt lat="59.4642949577" lon="17.8473575497">
        <ele>15.2</ele>
        <time>2013-03-10T15:12:57Z</time>
      </trkpt>
      <trkpt lat="59.4641947102" lon="17.8476146225">
        <ele>15.2</ele>
        <time>2013-03-10T15:13:00Z</time>
      </trkpt>
      <trkpt lat="59.4640880086" lon="17.8478335578">
        <ele>15.2</ele>
        <time>2013-03-10T15:13:03Z</time>
      </trkpt>
      <trkpt lat="59.4640186903" lon="17.8479835099">
        <ele>15.2</ele>
        <time>2013-03-10T15:13:05Z</time>
      </trkpt>
      <trkpt lat="59.4639243101" lon="17.848212252">
        <ele>15.2</ele>
        <time>2013-03-10T15:13:08Z</time>
      </trkpt>
      <trkpt lat="59.4638616134" lon="17.8483347954">
        <ele>15.2</ele>
        <time>2013-03-10T15:13:10Z</time>
      </trkpt>
      <trkpt lat="59.4637529002" lon="17.8485608552">
        <ele>15.2</ele>
        <time>2013-03-10T15:13:15Z</time>
      </trkpt>
      <trkpt lat="59.4636829952" lon="17.8486768607">
        <ele>15.6</ele>
        <time>2013-03-10T15:13:18Z</time>
      </trkpt>
      <trkpt lat="59.4636586038" lon="17.8487139087">
        <ele>16</ele>
        <time>2013-03-10T15:13:19Z</time>
      </trkpt>
      <trkpt lat="59.4636357212" lon="17.8487436645">
        <ele>16.4</ele>
        <time>2013-03-10T15:13:20Z</time>
      </trkpt>
      <trkpt lat="59.4636113299" lon="17.8487805448">
        <ele>16.8</ele>
        <time>2013-03-10T15:13:21Z</time>
      </trkpt>
      <trkpt lat="59.4635866871" lon="17.8488140724">
        <ele>17.2</ele>
        <time>2013-03-10T15:13:22Z</time>
      </trkpt>
      <trkpt lat="59.4635365634" lon="17.8488927785">
        <ele>17.6</ele>
        <time>2013-03-10T15:13:24Z</time>
      </trkpt>
      <trkpt lat="59.4635101604" lon="17.8489398009">
        <ele>18.2</ele>
        <time>2013-03-10T15:13:25Z</time>
      </trkpt>
      <trkpt lat="59.4634818296" lon="17.8489843088">
        <ele>18.6</ele>
        <time>2013-03-10T15:13:26Z</time>
      </trkpt>
      <trkpt lat="59.4634514871" lon="17.8490279785">
        <ele>19</ele>
        <time>2013-03-10T15:13:27Z</time>
      </trkpt>
      <trkpt lat="59.4634240783" lon="17.8490656132">
        <ele>19.4</ele>
        <time>2013-03-10T15:13:28Z</time>
      </trkpt>
      <trkpt lat="59.4632835976" lon="17.8492191696">
        <ele>19.8</ele>
        <time>2013-03-10T15:13:32Z</time>
      </trkpt>
      <trkpt lat="59.4632499862" lon="17.8492616659">
        <ele>20.4</ele>
        <time>2013-03-10T15:13:33Z</time>
      </trkpt>
      <trkpt lat="59.4632176321" lon="17.8492917569">
        <ele>20.8</ele>
        <time>2013-03-10T15:13:34Z</time>
      </trkpt>
      <trkpt lat="59.4631882954" lon="17.8493214288">
        <ele>21.4</ele>
        <time>2013-03-10T15:13:35Z</time>
      </trkpt>
      <trkpt lat="59.463155606" lon="17.8493599017">
        <ele>21.8</ele>
        <time>2013-03-10T15:13:36Z</time>
      </trkpt>
      <trkpt lat="59.4630680152" lon="17.849475069">
        <ele>22.2</ele>
        <time>2013-03-10T15:13:39Z</time>
      </trkpt>
      <trkpt lat="59.4630395167" lon="17.8495148831">
        <ele>22.8</ele>
        <time>2013-03-10T15:13:40Z</time>
      </trkpt>
      <trkpt lat="59.4630072464" lon="17.8495502547">
        <ele>23.2</ele>
        <time>2013-03-10T15:13:41Z</time>
      </trkpt>
      <trkpt lat="59.4629795023" lon="17.8495944273">
        <ele>23.6</ele>
        <time>2013-03-10T15:13:42Z</time>
      </trkpt>
      <trkpt lat="59.4629561168" lon="17.8496463951">
        <ele>24</ele>
        <time>2013-03-10T15:13:43Z</time>
      </trkpt>
      <trkpt lat="59.4629322284" lon="17.8496888913">
        <ele>24.6</ele>
        <time>2013-03-10T15:13:44Z</time>
      </trkpt>
      <trkpt lat="59.4629127824" lon="17.8497273642">
        <ele>25</ele>
        <time>2013-03-10T15:13:45Z</time>
      </trkpt>
      <trkpt lat="59.4628918276" lon="17.8497775718">
        <ele>25.8</ele>
        <time>2013-03-10T15:13:46Z</time>
      </trkpt>
      <trkpt lat="59.4628725492" lon="17.849829372">
        <ele>26.2</ele>
        <time>2013-03-10T15:13:47Z</time>
      </trkpt>
      <trkpt lat="59.4628354174" lon="17.8499505742">
        <ele>26.2</ele>
        <time>2013-03-10T15:13:49Z</time>
      </trkpt>
      <trkpt lat="59.4627100242" lon="17.8502779712">
        <ele>26.2</ele>
        <time>2013-03-10T15:13:55Z</time>
      </trkpt>
      <trkpt lat="59.4626899915" lon="17.8503279274">
        <ele>26.6</ele>
        <time>2013-03-10T15:13:56Z</time>
      </trkpt>
      <trkpt lat="59.4626713836" lon="17.8503757042">
        <ele>27</ele>
        <time>2013-03-10T15:13:57Z</time>
      </trkpt>
      <trkpt lat="59.4626512671" lon="17.8504221399">
        <ele>27.4</ele>
        <time>2013-03-10T15:13:58Z</time>
      </trkpt>
      <trkpt lat="59.4626310667" lon="17.8504729342">
        <ele>27.8</ele>
        <time>2013-03-10T15:13:59Z</time>
      </trkpt>
      <trkpt lat="59.4626145544" lon="17.8505266622">
        <ele>28.2</ele>
        <time>2013-03-10T15:14:00Z</time>
      </trkpt>
      <trkpt lat="59.4625819488" lon="17.8506357946">
        <ele>28.2</ele>
        <time>2013-03-10T15:14:02Z</time>
      </trkpt>
      <trkpt lat="59.4624167415" lon="17.851055141">
        <ele>28.2</ele>
        <time>2013-03-10T15:14:09Z</time>
      </trkpt>
      <trkpt lat="59.4622374527" lon="17.8515879784">
        <ele>28.2</ele>
        <time>2013-03-10T15:14:16Z</time>
      </trkpt>
      <trkpt lat="59.4622118041" lon="17.8516776647">
        <ele>28.2</ele>
        <time>2013-03-10T15:14:17Z</time>
      </trkpt>
      <trkpt lat="59.4621750075" lon="17.8518772378">
        <ele>28.2</ele>
        <time>2013-03-10T15:14:19Z</time>
      </trkpt>
      <trkpt lat="59.4621561483" lon="17.8520920659">
        <ele>28.2</ele>
        <time>2013-03-10T15:14:21Z</time>
      </trkpt>
      <trkpt lat="59.4621599201" lon="17.8527772862">
        <ele>28.2</ele>
        <time>2013-03-10T15:14:27Z</time>
      </trkpt>
      <trkpt lat="59.4622312501" lon="17.8534553819">
        <ele>28.2</ele>
        <time>2013-03-10T15:14:33Z</time>
      </trkpt>
      <trkpt lat="59.4622769314" lon="17.8536695394">
        <ele>28.2</ele>
        <time>2013-03-10T15:14:35Z</time>
      </trkpt>
      <trkpt lat="59.4623699705" lon="17.8539919073">
        <ele>28.2</ele>
        <time>2013-03-10T15:14:38Z</time>
      </trkpt>
      <trkpt lat="59.4624185017" lon="17.8542448731">
        <ele>28.2</ele>
        <time>2013-03-10T15:14:40Z</time>
      </trkpt>
      <trkpt lat="59.4624522808" lon="17.8545425981">
        <ele>28.2</ele>
        <time>2013-03-10T15:14:42Z</time>
      </trkpt>
      <trkpt lat="59.4625058411" lon="17.8552193528">
        <ele>28.2</ele>
        <time>2013-03-10T15:14:47Z</time>
      </trkpt>
      <trkpt lat="59.4625366027" lon="17.8557682834">
        <ele>27.8</ele>
        <time>2013-03-10T15:14:51Z</time>
      </trkpt>
      <trkpt lat="59.462535513" lon="17.8559044893">
        <ele>27.4</ele>
        <time>2013-03-10T15:14:52Z</time>
      </trkpt>
      <trkpt lat="59.4625288913" lon="17.8560416171">
        <ele>27</ele>
        <time>2013-03-10T15:14:53Z</time>
      </trkpt>
      <trkpt lat="59.4625200904" lon="17.8561791641">
        <ele>26.6</ele>
        <time>2013-03-10T15:14:54Z</time>
      </trkpt>
      <trkpt lat="59.4625087748" lon="17.8563162082">
        <ele>26.2</ele>
        <time>2013-03-10T15:14:55Z</time>
      </trkpt>
      <trkpt lat="59.4624450723" lon="17.856921549">
        <ele>26.2</ele>
        <time>2013-03-10T15:14:59Z</time>
      </trkpt>
      <trkpt lat="59.4623863152" lon="17.8573426557">
        <ele>25.6</ele>
        <time>2013-03-10T15:15:02Z</time>
      </trkpt>
      <trkpt lat="59.4623676236" lon="17.8574895066">
        <ele>25.2</ele>
        <time>2013-03-10T15:15:03Z</time>
      </trkpt>
      <trkpt lat="59.4623480938" lon="17.8576356031">
        <ele>24.6</ele>
        <time>2013-03-10T15:15:04Z</time>
      </trkpt>
      <trkpt lat="59.4623257141" lon="17.8577880698">
        <ele>24.2</ele>
        <time>2013-03-10T15:15:05Z</time>
      </trkpt>
      <trkpt lat="59.462306771" lon="17.8579331605">
        <ele>23.8</ele>
        <time>2013-03-10T15:15:06Z</time>
      </trkpt>
      <trkpt lat="59.462269723" lon="17.8585013695">
        <ele>23.8</ele>
        <time>2013-03-10T15:15:10Z</time>
      </trkpt>
      <trkpt lat="59.4622750874" lon="17.8586418502">
        <ele>23.8</ele>
        <time>2013-03-10T15:15:11Z</time>
      </trkpt>
      <trkpt lat="59.4622685495" lon="17.8593889289">
        <ele>23.8</ele>
        <time>2013-03-10T15:15:16Z</time>
      </trkpt>
      <trkpt lat="59.4622673761" lon="17.8595383782">
        <ele>23.2</ele>
        <time>2013-03-10T15:15:17Z</time>
      </trkpt>
      <trkpt lat="59.4622753389" lon="17.8596813734">
        <ele>22.8</ele>
        <time>2013-03-10T15:15:18Z</time>
      </trkpt>
      <trkpt lat="59.4622967127" lon="17.8598147294">
        <ele>22.4</ele>
        <time>2013-03-10T15:15:19Z</time>
      </trkpt>
      <trkpt lat="59.4623328387" lon="17.8599406256">
        <ele>22</ele>
        <time>2013-03-10T15:15:20Z</time>
      </trkpt>
      <trkpt lat="59.4623754188" lon="17.8600511828">
        <ele>21.6</ele>
        <time>2013-03-10T15:15:21Z</time>
      </trkpt>
      <trkpt lat="59.4624786838" lon="17.8602128697">
        <ele>21.6</ele>
        <time>2013-03-10T15:15:23Z</time>
      </trkpt>
      <trkpt lat="59.4627371816" lon="17.8604117722">
        <ele>21.6</ele>
        <time>2013-03-10T15:15:27Z</time>
      </trkpt>
      <trkpt lat="59.462945388" lon="17.8606075734">
        <ele>21.6</ele>
        <time>2013-03-10T15:15:30Z</time>
      </trkpt>
      <trkpt lat="59.4630001218" lon="17.8607030432">
        <ele>21.6</ele>
        <time>2013-03-10T15:15:31Z</time>
      </trkpt>
      <trkpt lat="59.4631286163" lon="17.8610106589">
        <ele>21.6</ele>
        <time>2013-03-10T15:15:34Z</time>
      </trkpt>
      <trkpt lat="59.4631659996" lon="17.8611315259">
        <ele>21.6</ele>
        <time>2013-03-10T15:15:35Z</time>
      </trkpt>
      <trkpt lat="59.4631975155" lon="17.8612624512">
        <ele>21.6</ele>
        <time>2013-03-10T15:15:36Z</time>
      </trkpt>
      <trkpt lat="59.4632192246" lon="17.861392203">
        <ele>21.6</ele>
        <time>2013-03-10T15:15:37Z</time>
      </trkpt>
      <trkpt lat="59.4632318813" lon="17.8616474319">
        <ele>21.6</ele>
        <time>2013-03-10T15:15:39Z</time>
      </trkpt>
      <trkpt lat="59.4632146984" lon="17.8619165747">
        <ele>21.6</ele>
        <time>2013-03-10T15:15:41Z</time>
      </trkpt>
      <trkpt lat="59.4631983537" lon="17.8623470691">
        <ele>21.6</ele>
        <time>2013-03-10T15:15:44Z</time>
      </trkpt>
      <trkpt lat="59.4631998624" lon="17.8629145237">
        <ele>21.2</ele>
        <time>2013-03-10T15:15:48Z</time>
      </trkpt>
      <trkpt lat="59.4631981861" lon="17.8630583571">
        <ele>20.8</ele>
        <time>2013-03-10T15:15:49Z</time>
      </trkpt>
      <trkpt lat="59.4631955039" lon="17.8632016876">
        <ele>19.8</ele>
        <time>2013-03-10T15:15:50Z</time>
      </trkpt>
      <trkpt lat="59.4631929893" lon="17.8633504663">
        <ele>19.4</ele>
        <time>2013-03-10T15:15:51Z</time>
      </trkpt>
      <trkpt lat="59.4631853618" lon="17.8642576393">
        <ele>19.4</ele>
        <time>2013-03-10T15:15:58Z</time>
      </trkpt>
      <trkpt lat="59.4631805003" lon="17.8647657501">
        <ele>19</ele>
        <time>2013-03-10T15:16:02Z</time>
      </trkpt>
      <trkpt lat="59.4631798297" lon="17.8648918139">
        <ele>18.6</ele>
        <time>2013-03-10T15:16:03Z</time>
      </trkpt>
      <trkpt lat="59.4631799135" lon="17.8650170395">
        <ele>18.2</ele>
        <time>2013-03-10T15:16:04Z</time>
      </trkpt>
      <trkpt lat="59.4631800812" lon="17.8651436062">
        <ele>17.8</ele>
        <time>2013-03-10T15:16:05Z</time>
      </trkpt>
      <trkpt lat="59.4631808355" lon="17.8652609528">
        <ele>17.4</ele>
        <time>2013-03-10T15:16:06Z</time>
      </trkpt>
      <trkpt lat="59.463199611" lon="17.866034183">
        <ele>17.4</ele>
        <time>2013-03-10T15:16:13Z</time>
      </trkpt>
      <trkpt lat="59.463219057" lon="17.8669885462">
        <ele>17.4</ele>
        <time>2013-03-10T15:16:22Z</time>
      </trkpt>
      <trkpt lat="59.4632354855" lon="17.8677982377">
        <ele>17.4</ele>
        <time>2013-03-10T15:16:30Z</time>
      </trkpt>
      <trkpt lat="59.4632426101" lon="17.8679845674">
        <ele>17.4</ele>
        <time>2013-03-10T15:16:32Z</time>
      </trkpt>
      <trkpt lat="59.4632606312" lon="17.8682438195">
        <ele>17.4</ele>
        <time>2013-03-10T15:16:35Z</time>
      </trkpt>
      <trkpt lat="59.4633389182" lon="17.8685518544">
        <ele>17.4</ele>
        <time>2013-03-10T15:16:39Z</time>
      </trkpt>
      <trkpt lat="59.4633641477" lon="17.8686190772">
        <ele>17.4</ele>
        <time>2013-03-10T15:16:40Z</time>
      </trkpt>
      <trkpt lat="59.4634602043" lon="17.8688741384">
        <ele>18</ele>
        <time>2013-03-10T15:16:44Z</time>
      </trkpt>
      <trkpt lat="59.4634850985" lon="17.8689429538">
        <ele>18.4</ele>
        <time>2013-03-10T15:16:45Z</time>
      </trkpt>
      <trkpt lat="59.463503874" lon="17.869009087">
        <ele>18.8</ele>
        <time>2013-03-10T15:16:46Z</time>
      </trkpt>
      <trkpt lat="59.4635204701" lon="17.8690781539">
        <ele>19.2</ele>
        <time>2013-03-10T15:16:47Z</time>
      </trkpt>
      <trkpt lat="59.4635345517" lon="17.8691551835">
        <ele>19.8</ele>
        <time>2013-03-10T15:16:48Z</time>
      </trkpt>
      <trkpt lat="59.4635551712" lon="17.8694905433">
        <ele>19.8</ele>
        <time>2013-03-10T15:16:52Z</time>
      </trkpt>
      <trkpt lat="59.4635560932" lon="17.86984032">
        <ele>19.8</ele>
        <time>2013-03-10T15:16:56Z</time>
      </trkpt>
      <trkpt lat="59.4635477951" lon="17.8699383883">
        <ele>19.8</ele>
        <time>2013-03-10T15:16:57Z</time>
      </trkpt>
      <trkpt lat="59.4634615454" lon="17.8706432222">
        <ele>19.8</ele>
        <time>2013-03-10T15:17:04Z</time>
      </trkpt>
      <trkpt lat="59.4634319573" lon="17.8709791688">
        <ele>19.2</ele>
        <time>2013-03-10T15:17:07Z</time>
      </trkpt>
      <trkpt lat="59.4634241621" lon="17.8710857027">
        <ele>18.8</ele>
        <time>2013-03-10T15:17:08Z</time>
      </trkpt>
      <trkpt lat="59.4634222343" lon="17.8711919852">
        <ele>18.4</ele>
        <time>2013-03-10T15:17:09Z</time>
      </trkpt>
      <trkpt lat="59.4634244135" lon="17.8712940768">
        <ele>18</ele>
        <time>2013-03-10T15:17:10Z</time>
      </trkpt>
      <trkpt lat="59.4634326278" lon="17.8713974256">
        <ele>17.4</ele>
        <time>2013-03-10T15:17:11Z</time>
      </trkpt>
      <trkpt lat="59.4634678318" lon="17.8717658101">
        <ele>17.4</ele>
        <time>2013-03-10T15:17:15Z</time>
      </trkpt>
      <trkpt lat="59.4634700949" lon="17.8721051094">
        <ele>17.4</ele>
        <time>2013-03-10T15:17:20Z</time>
      </trkpt>
      <trkpt lat="59.463356604" lon="17.8721516289">
        <ele>17.4</ele>
        <time>2013-03-10T15:17:23Z</time>
      </trkpt>
      <trkpt lat="59.463314443" lon="17.8721379664">
        <ele>17.4</ele>
        <time>2013-03-10T15:17:24Z</time>
      </trkpt>
      <trkpt lat="59.4631684303" lon="17.87209371">
        <ele>17.4</ele>
        <time>2013-03-10T15:17:29Z</time>
      </trkpt>
      <trkpt lat="59.4631098408" lon="17.8720818077">
        <ele>17.4</ele>
        <time>2013-03-10T15:17:32Z</time>
      </trkpt>
      <trkpt lat="59.4630693563" lon="17.872104355">
        <ele>17.4</ele>
        <time>2013-03-10T15:17:34Z</time>
      </trkpt>
      <trkpt lat="59.4629042328" lon="17.8721026786">
        <ele>17.4</ele>
        <time>2013-03-10T15:17:40Z</time>
      </trkpt>
      <trkpt lat="59.4627835335" lon="17.8720723362">
        <ele>17.4</ele>
        <time>2013-03-10T15:17:43Z</time>
      </trkpt>
      <trkpt lat="59.4626951044" lon="17.8720646248">
        <ele>17.4</ele>
        <time>2013-03-10T15:17:45Z</time>
      </trkpt>
      <trkpt lat="59.4626493393" lon="17.8720538122">
        <ele>17.4</ele>
        <time>2013-03-10T15:17:46Z</time>
      </trkpt>
      <trkpt lat="59.462329905" lon="17.8719888524">
        <ele>17.4</ele>
        <time>2013-03-10T15:17:52Z</time>
      </trkpt>
      <trkpt lat="59.461943248" lon="17.8719261558">
        <ele>17.4</ele>
        <time>2013-03-10T15:17:59Z</time>
      </trkpt>
      <trkpt lat="59.4615438505" lon="17.8718798039">
        <ele>17.4</ele>
        <time>2013-03-10T15:18:06Z</time>
      </trkpt>
      <trkpt lat="59.461370429" lon="17.8718580948">
        <ele>17.4</ele>
        <time>2013-03-10T15:18:09Z</time>
      </trkpt>
      <trkpt lat="59.4611915592" lon="17.8718290096">
        <ele>17.4</ele>
        <time>2013-03-10T15:18:12Z</time>
      </trkpt>
      <trkpt lat="59.4608060756" lon="17.8717573444">
        <ele>17.4</ele>
        <time>2013-03-10T15:18:19Z</time>
      </trkpt>
      <trkpt lat="59.4605057521" lon="17.871806127">
        <ele>17.4</ele>
        <time>2013-03-10T15:18:25Z</time>
      </trkpt>
      <trkpt lat="59.4604603222" lon="17.8718271656">
        <ele>17.4</ele>
        <time>2013-03-10T15:18:26Z</time>
      </trkpt>
      <trkpt lat="59.4603265471" lon="17.8718608608">
        <ele>17.4</ele>
        <time>2013-03-10T15:18:29Z</time>
      </trkpt>
      <trkpt lat="59.4602821231" lon="17.8718639621">
        <ele>17.4</ele>
        <time>2013-03-10T15:18:30Z</time>
      </trkpt>
      <trkpt lat="59.4601931911" lon="17.8718597712">
        <ele>17.4</ele>
        <time>2013-03-10T15:18:32Z</time>
      </trkpt>
      <trkpt lat="59.4600244634" lon="17.8718214659">
        <ele>18</ele>
        <time>2013-03-10T15:18:36Z</time>
      </trkpt>
      <trkpt lat="59.4599826378" lon="17.8718155148">
        <ele>18.4</ele>
        <time>2013-03-10T15:18:37Z</time>
      </trkpt>
      <trkpt lat="59.4599398063" lon="17.8718069652">
        <ele>18.8</ele>
        <time>2013-03-10T15:18:38Z</time>
      </trkpt>
      <trkpt lat="59.4598962204" lon="17.8717961526">
        <ele>19.2</ele>
        <time>2013-03-10T15:18:39Z</time>
      </trkpt>
      <trkpt lat="59.4598522154" lon="17.8717801431">
        <ele>19.6</ele>
        <time>2013-03-10T15:18:40Z</time>
      </trkpt>
      <trkpt lat="59.4596715855" lon="17.8717611162">
        <ele>19.6</ele>
        <time>2013-03-10T15:18:44Z</time>
      </trkpt>
      <trkpt lat="59.459587515" lon="17.8718349608">
        <ele>20</ele>
        <time>2013-03-10T15:18:46Z</time>
      </trkpt>
      <trkpt lat="59.4595457731" lon="17.871892293">
        <ele>20.6</ele>
        <time>2013-03-10T15:18:47Z</time>
      </trkpt>
      <trkpt lat="59.4595035284" lon="17.8719632038">
        <ele>21</ele>
        <time>2013-03-10T15:18:48Z</time>
      </trkpt>
      <trkpt lat="59.459466648" lon="17.8720384733">
        <ele>21.4</ele>
        <time>2013-03-10T15:18:49Z</time>
      </trkpt>
      <trkpt lat="59.4594316955" lon="17.8721168441">
        <ele>21.8</ele>
        <time>2013-03-10T15:18:50Z</time>
      </trkpt>
      <trkpt lat="59.4593228984" lon="17.8723422334">
        <ele>21.8</ele>
        <time>2013-03-10T15:18:53Z</time>
      </trkpt>
      <trkpt lat="59.4592792287" lon="17.8724009905">
        <ele>21.8</ele>
        <time>2013-03-10T15:18:54Z</time>
      </trkpt>
      <trkpt lat="59.459161463" lon="17.8725740767">
        <ele>21.8</ele>
        <time>2013-03-10T15:18:57Z</time>
      </trkpt>
      <trkpt lat="59.4591187992" lon="17.8726181655">
        <ele>21.8</ele>
        <time>2013-03-10T15:18:58Z</time>
      </trkpt>
      <trkpt lat="59.4590757162" lon="17.8726586501">
        <ele>21.8</ele>
        <time>2013-03-10T15:18:59Z</time>
      </trkpt>
      <trkpt lat="59.4590340581" lon="17.8727146412">
        <ele>21.8</ele>
        <time>2013-03-10T15:19:00Z</time>
      </trkpt>
      <trkpt lat="59.4588572001" lon="17.8729441376">
        <ele>21.8</ele>
        <time>2013-03-10T15:19:04Z</time>
      </trkpt>
      <trkpt lat="59.458815542" lon="17.8729884778">
        <ele>21.8</ele>
        <time>2013-03-10T15:19:05Z</time>
      </trkpt>
      <trkpt lat="59.458625692" lon="17.8730515097">
        <ele>21.8</ele>
        <time>2013-03-10T15:19:09Z</time>
      </trkpt>
      <trkpt lat="59.4585694494" lon="17.8730548625">
        <ele>21.8</ele>
        <time>2013-03-10T15:19:10Z</time>
      </trkpt>
      <trkpt lat="59.4582882367" lon="17.8731149607">
        <ele>21.8</ele>
        <time>2013-03-10T15:19:15Z</time>
      </trkpt>
      <trkpt lat="59.4581376139" lon="17.873204647">
        <ele>21.8</ele>
        <time>2013-03-10T15:19:18Z</time>
      </trkpt>
      <trkpt lat="59.4580483467" lon="17.8733116839">
        <ele>21.8</ele>
        <time>2013-03-10T15:19:20Z</time>
      </trkpt>
      <trkpt lat="59.4579745022" lon="17.873463983">
        <ele>21.8</ele>
        <time>2013-03-10T15:19:22Z</time>
      </trkpt>
      <trkpt lat="59.4578711533" lon="17.8736806551">
        <ele>21.8</ele>
        <time>2013-03-10T15:19:25Z</time>
      </trkpt>
      <trkpt lat="59.4576795431" lon="17.8738472873">
        <ele>21.8</ele>
        <time>2013-03-10T15:19:29Z</time>
      </trkpt>
      <trkpt lat="59.4576196963" lon="17.8738829942">
        <ele>21.8</ele>
        <time>2013-03-10T15:19:30Z</time>
      </trkpt>
      <trkpt lat="59.4574099812" lon="17.8740434238">
        <ele>21.4</ele>
        <time>2013-03-10T15:19:34Z</time>
      </trkpt>
      <trkpt lat="59.4573610309" lon="17.8741052822">
        <ele>21</ele>
        <time>2013-03-10T15:19:35Z</time>
      </trkpt>
      <trkpt lat="59.4573130864" lon="17.874172505">
        <ele>20.6</ele>
        <time>2013-03-10T15:19:36Z</time>
      </trkpt>
      <trkpt lat="59.4572640523" lon="17.8742378">
        <ele>20</ele>
        <time>2013-03-10T15:19:37Z</time>
      </trkpt>
      <trkpt lat="59.4572148506" lon="17.8743068669">
        <ele>19.6</ele>
        <time>2013-03-10T15:19:38Z</time>
      </trkpt>
      <trkpt lat="59.4571660679" lon="17.8743746765">
        <ele>19.6</ele>
        <time>2013-03-10T15:19:39Z</time>
      </trkpt>
      <trkpt lat="59.4568627269" lon="17.8747401273">
        <ele>19.6</ele>
        <time>2013-03-10T15:19:45Z</time>
      </trkpt>
      <trkpt lat="59.4568136928" lon="17.874789832">
        <ele>19.6</ele>
        <time>2013-03-10T15:19:46Z</time>
      </trkpt>
      <trkpt lat="59.4567167143" lon="17.8748925941">
        <ele>19.6</ele>
        <time>2013-03-10T15:19:48Z</time>
      </trkpt>
      <trkpt lat="59.4565386827" lon="17.8751677718">
        <ele>19.6</ele>
        <time>2013-03-10T15:19:52Z</time>
      </trkpt>
      <trkpt lat="59.4562846273" lon="17.8756679198">
        <ele>19.6</ele>
        <time>2013-03-10T15:19:58Z</time>
      </trkpt>
      <trkpt lat="59.4562385269" lon="17.8757555945">
        <ele>19.6</ele>
        <time>2013-03-10T15:19:59Z</time>
      </trkpt>
      <trkpt lat="59.4560076893" lon="17.8762246456">
        <ele>19.6</ele>
        <time>2013-03-10T15:20:04Z</time>
      </trkpt>
      <trkpt lat="59.4559604154" lon="17.8763121526">
        <ele>19.6</ele>
        <time>2013-03-10T15:20:05Z</time>
      </trkpt>
      <trkpt lat="59.4557131494" lon="17.8767061858">
        <ele>19.6</ele>
        <time>2013-03-10T15:20:10Z</time>
      </trkpt>
      <trkpt lat="59.4554264046" lon="17.8769167391">
        <ele>19.6</ele>
        <time>2013-03-10T15:20:15Z</time>
      </trkpt>
      <trkpt lat="59.4550406695" lon="17.8771238558">
        <ele>19.6</ele>
        <time>2013-03-10T15:20:22Z</time>
      </trkpt>
      <trkpt lat="59.4547573613" lon="17.8772706229">
        <ele>19.6</ele>
        <time>2013-03-10T15:20:28Z</time>
      </trkpt>
      <trkpt lat="59.4545126936" lon="17.8774216648">
        <ele>19.6</ele>
        <time>2013-03-10T15:20:33Z</time>
      </trkpt>
      <trkpt lat="59.4542072572" lon="17.8775907277">
        <ele>19.6</ele>
        <time>2013-03-10T15:20:39Z</time>
      </trkpt>
      <trkpt lat="59.4540258729" lon="17.8777052244">
        <ele>19.6</ele>
        <time>2013-03-10T15:20:43Z</time>
      </trkpt>
      <trkpt lat="59.4539486756" lon="17.8777914742">
        <ele>19.6</ele>
        <time>2013-03-10T15:20:45Z</time>
      </trkpt>
      <trkpt lat="59.4538770104" lon="17.877914269">
        <ele>19.6</ele>
        <time>2013-03-10T15:20:47Z</time>
      </trkpt>
      <trkpt lat="59.453801238" lon="17.8780866009">
        <ele>19.6</ele>
        <time>2013-03-10T15:20:49Z</time>
      </trkpt>
      <trkpt lat="59.4537321711" lon="17.878278714">
        <ele>20</ele>
        <time>2013-03-10T15:20:51Z</time>
      </trkpt>
      <trkpt lat="59.4536988112" lon="17.8783708311">
        <ele>20.4</ele>
        <time>2013-03-10T15:20:52Z</time>
      </trkpt>
      <trkpt lat="59.4536665408" lon="17.8784689832">
        <ele>20.8</ele>
        <time>2013-03-10T15:20:53Z</time>
      </trkpt>
      <trkpt lat="59.4536347734" lon="17.8785634472">
        <ele>21.4</ele>
        <time>2013-03-10T15:20:54Z</time>
      </trkpt>
      <trkpt lat="59.4536033413" lon="17.8786605096">
        <ele>21.8</ele>
        <time>2013-03-10T15:20:55Z</time>
      </trkpt>
      <trkpt lat="59.453399745" lon="17.8791463245">
        <ele>21.8</ele>
        <time>2013-03-10T15:21:00Z</time>
      </trkpt>
      <trkpt lat="59.4531647165" lon="17.8795665091">
        <ele>21.8</ele>
        <time>2013-03-10T15:21:05Z</time>
      </trkpt>
      <trkpt lat="59.4531256568" lon="17.8796660023">
        <ele>21.8</ele>
        <time>2013-03-10T15:21:06Z</time>
      </trkpt>
      <trkpt lat="59.452991295" lon="17.8801513143">
        <ele>21.8</ele>
        <time>2013-03-10T15:21:11Z</time>
      </trkpt>
      <trkpt lat="59.4528985073" lon="17.8806304237">
        <ele>21.8</ele>
        <time>2013-03-10T15:21:17Z</time>
      </trkpt>
      <trkpt lat="59.4528958251" lon="17.8807228761">
        <ele>21.8</ele>
        <time>2013-03-10T15:21:18Z</time>
      </trkpt>
      <trkpt lat="59.4529239883" lon="17.8810224452">
        <ele>21.8</ele>
        <time>2013-03-10T15:21:21Z</time>
      </trkpt>
      <trkpt lat="59.4529379861" lon="17.8811260455">
        <ele>21.8</ele>
        <time>2013-03-10T15:21:22Z</time>
      </trkpt>
      <trkpt lat="59.4530481243" lon="17.8817320568">
        <ele>21.8</ele>
        <time>2013-03-10T15:21:28Z</time>
      </trkpt>
      <trkpt lat="59.453140409" lon="17.8822653133">
        <ele>21.8</ele>
        <time>2013-03-10T15:21:33Z</time>
      </trkpt>
      <trkpt lat="59.4532782074" lon="17.8829872464">
        <ele>21.8</ele>
        <time>2013-03-10T15:21:40Z</time>
      </trkpt>
      <trkpt lat="59.4532987431" lon="17.8830924392">
        <ele>21.4</ele>
        <time>2013-03-10T15:21:41Z</time>
      </trkpt>
      <trkpt lat="59.4533207036" lon="17.8831958718">
        <ele>21</ele>
        <time>2013-03-10T15:21:42Z</time>
      </trkpt>
      <trkpt lat="59.4533452626" lon="17.8832956165">
        <ele>20.4</ele>
        <time>2013-03-10T15:21:43Z</time>
      </trkpt>
      <trkpt lat="59.4533651277" lon="17.8833987138">
        <ele>20</ele>
        <time>2013-03-10T15:21:44Z</time>
      </trkpt>
      <trkpt lat="59.4533818077" lon="17.8835171501">
        <ele>19.6</ele>
        <time>2013-03-10T15:21:45Z</time>
      </trkpt>
      <trkpt lat="59.453384909" lon="17.8836309763">
        <ele>19.6</ele>
        <time>2013-03-10T15:21:46Z</time>
      </trkpt>
      <trkpt lat="59.4533815562" lon="17.8837439643">
        <ele>19.6</ele>
        <time>2013-03-10T15:21:47Z</time>
      </trkpt>
      <trkpt lat="59.4533219609" lon="17.8843953217">
        <ele>19.6</ele>
        <time>2013-03-10T15:21:53Z</time>
      </trkpt>
      <trkpt lat="59.453196903" lon="17.8850582462">
        <ele>19.2</ele>
        <time>2013-03-10T15:21:59Z</time>
      </trkpt>
      <trkpt lat="59.4531706676" lon="17.8851530455">
        <ele>18.2</ele>
        <time>2013-03-10T15:22:00Z</time>
      </trkpt>
      <trkpt lat="59.4531430074" lon="17.8852308295">
        <ele>17.8</ele>
        <time>2013-03-10T15:22:01Z</time>
      </trkpt>
      <trkpt lat="59.4531118267" lon="17.8852967113">
        <ele>17.4</ele>
        <time>2013-03-10T15:22:02Z</time>
      </trkpt>
      <trkpt lat="59.4530767065" lon="17.8853601622">
        <ele>17.4</ele>
        <time>2013-03-10T15:22:03Z</time>
      </trkpt>
      <trkpt lat="59.4528734455" lon="17.8855483359">
        <ele>17.4</ele>
        <time>2013-03-10T15:22:07Z</time>
      </trkpt>
      <trkpt lat="59.4526956654" lon="17.8855303986">
        <ele>17.4</ele>
        <time>2013-03-10T15:22:10Z</time>
      </trkpt>
      <trkpt lat="59.4526386684" lon="17.8855195022">
        <ele>17.4</ele>
        <time>2013-03-10T15:22:11Z</time>
      </trkpt>
      <trkpt lat="59.4523377582" lon="17.8854767545">
        <ele>17.4</ele>
        <time>2013-03-10T15:22:16Z</time>
      </trkpt>
      <trkpt lat="59.4521701202" lon="17.8855081866">
        <ele>17.4</ele>
        <time>2013-03-10T15:22:19Z</time>
      </trkpt>
      <trkpt lat="59.4520023146" lon="17.8855919218">
        <ele>17.4</ele>
        <time>2013-03-10T15:22:22Z</time>
      </trkpt>
      <trkpt lat="59.4516811202" lon="17.8857842864">
        <ele>17.4</ele>
        <time>2013-03-10T15:22:28Z</time>
      </trkpt>
      <trkpt lat="59.451578861" lon="17.8858355836">
        <ele>17.4</ele>
        <time>2013-03-10T15:22:30Z</time>
      </trkpt>
      <trkpt lat="59.4514265619" lon="17.8859327298">
        <ele>17.4</ele>
        <time>2013-03-10T15:22:33Z</time>
      </trkpt>
      <trkpt lat="59.4513341933" lon="17.8860205721">
        <ele>17.4</ele>
        <time>2013-03-10T15:22:35Z</time>
      </trkpt>
      <trkpt lat="59.4511958082" lon="17.8862222407">
        <ele>17.4</ele>
        <time>2013-03-10T15:22:38Z</time>
      </trkpt>
      <trkpt lat="59.4511527252" lon="17.8863068978">
        <ele>17.4</ele>
        <time>2013-03-10T15:22:39Z</time>
      </trkpt>
      <trkpt lat="59.4510306847" lon="17.8865771303">
        <ele>17</ele>
        <time>2013-03-10T15:22:42Z</time>
      </trkpt>
      <trkpt lat="59.4509933853" lon="17.8866792218">
        <ele>16.6</ele>
        <time>2013-03-10T15:22:43Z</time>
      </trkpt>
      <trkpt lat="59.450960193" lon="17.8867867616">
        <ele>16.2</ele>
        <time>2013-03-10T15:22:44Z</time>
      </trkpt>
      <trkpt lat="59.4509304372" lon="17.8868979894">
        <ele>15.8</ele>
        <time>2013-03-10T15:22:45Z</time>
      </trkpt>
      <trkpt lat="59.4509059621" lon="17.8870100554">
        <ele>15.4</ele>
        <time>2013-03-10T15:22:46Z</time>
      </trkpt>
      <trkpt lat="59.4508725183" lon="17.8872273143">
        <ele>15.4</ele>
        <time>2013-03-10T15:22:48Z</time>
      </trkpt>
      <trkpt lat="59.4508359732" lon="17.8874073575">
        <ele>15.4</ele>
        <time>2013-03-10T15:22:50Z</time>
      </trkpt>
      <trkpt lat="59.4507889508" lon="17.8875385342">
        <ele>15.4</ele>
        <time>2013-03-10T15:22:52Z</time>
      </trkpt>
      <trkpt lat="59.4507172017" lon="17.8876345908">
        <ele>15.4</ele>
        <time>2013-03-10T15:22:54Z</time>
      </trkpt>
      <trkpt lat="59.4506042137" lon="17.8877811902">
        <ele>15.4</ele>
        <time>2013-03-10T15:22:57Z</time>
      </trkpt>
      <trkpt lat="59.4504774793" lon="17.8879402787">
        <ele>15.8</ele>
        <time>2013-03-10T15:23:00Z</time>
      </trkpt>
      <trkpt lat="59.4504357375" lon="17.887985541">
        <ele>16.2</ele>
        <time>2013-03-10T15:23:01Z</time>
      </trkpt>
      <trkpt lat="59.4503927383" lon="17.888035078">
        <ele>16.6</ele>
        <time>2013-03-10T15:23:02Z</time>
      </trkpt>
      <trkpt lat="59.4503482305" lon="17.8880830225">
        <ele>17</ele>
        <time>2013-03-10T15:23:03Z</time>
      </trkpt>
      <trkpt lat="59.4503013756" lon="17.8881328948">
        <ele>17.4</ele>
        <time>2013-03-10T15:23:04Z</time>
      </trkpt>
      <trkpt lat="59.4501204942" lon="17.8882966771">
        <ele>17.4</ele>
        <time>2013-03-10T15:23:08Z</time>
      </trkpt>
      <trkpt lat="59.4500450571" lon="17.8883546798">
        <ele>17.4</ele>
        <time>2013-03-10T15:23:10Z</time>
      </trkpt>
      <trkpt lat="59.4498055024" lon="17.8884451205">
        <ele>17.4</ele>
        <time>2013-03-10T15:23:16Z</time>
      </trkpt>
      <trkpt lat="59.4497632576" lon="17.8884533348">
        <ele>17.4</ele>
        <time>2013-03-10T15:23:17Z</time>
      </trkpt>
      <trkpt lat="59.4497205938" lon="17.8884536701">
        <ele>17.4</ele>
        <time>2013-03-10T15:23:18Z</time>
      </trkpt>
      <trkpt lat="59.4495392095" lon="17.8884677517">
        <ele>17.4</ele>
        <time>2013-03-10T15:23:22Z</time>
      </trkpt>
      <trkpt lat="59.4494887504" lon="17.888462974">
        <ele>17.4</ele>
        <time>2013-03-10T15:23:23Z</time>
      </trkpt>
      <trkpt lat="59.4494423985" lon="17.8884727808">
        <ele>17.4</ele>
        <time>2013-03-10T15:23:24Z</time>
      </trkpt>
      <trkpt lat="59.4492628582" lon="17.8885912171">
        <ele>18</ele>
        <time>2013-03-10T15:23:28Z</time>
      </trkpt>
      <trkpt lat="59.4492238824" lon="17.8886384072">
        <ele>18.4</ele>
        <time>2013-03-10T15:23:29Z</time>
      </trkpt>
      <trkpt lat="59.4491875888" lon="17.8886895367">
        <ele>18.8</ele>
        <time>2013-03-10T15:23:30Z</time>
      </trkpt>
      <trkpt lat="59.4491593418" lon="17.8887521495">
        <ele>19.2</ele>
        <time>2013-03-10T15:23:31Z</time>
      </trkpt>
      <trkpt lat="59.4491371297" lon="17.8888245691">
        <ele>19.6</ele>
        <time>2013-03-10T15:23:32Z</time>
      </trkpt>
      <trkpt lat="59.4491205336" lon="17.8889090587">
        <ele>19.6</ele>
        <time>2013-03-10T15:23:33Z</time>
      </trkpt>
      <trkpt lat="59.4490963937" lon="17.8892952128">
        <ele>19.6</ele>
        <time>2013-03-10T15:23:37Z</time>
      </trkpt>
      <trkpt lat="59.4490948849" lon="17.8893969691">
        <ele>19.6</ele>
        <time>2013-03-10T15:23:38Z</time>
      </trkpt>
      <trkpt lat="59.4490479463" lon="17.8899279625">
        <ele>19.6</ele>
        <time>2013-03-10T15:23:44Z</time>
      </trkpt>
      <trkpt lat="59.4489692403" lon="17.8904088321">
        <ele>20</ele>
        <time>2013-03-10T15:23:50Z</time>
      </trkpt>
      <trkpt lat="59.4489533985" lon="17.8904894659">
        <ele>20.4</ele>
        <time>2013-03-10T15:23:51Z</time>
      </trkpt>
      <trkpt lat="59.4489388978" lon="17.8905734526">
        <ele>20.8</ele>
        <time>2013-03-10T15:23:52Z</time>
      </trkpt>
      <trkpt lat="59.4489241456" lon="17.8906548408">
        <ele>21.2</ele>
        <time>2013-03-10T15:23:53Z</time>
      </trkpt>
      <trkpt lat="59.4489086391" lon="17.8907401686">
        <ele>21.8</ele>
        <time>2013-03-10T15:23:54Z</time>
      </trkpt>
      <trkpt lat="59.4488835772" lon="17.8909152665">
        <ele>21.8</ele>
        <time>2013-03-10T15:23:56Z</time>
      </trkpt>
      <trkpt lat="59.448819791" lon="17.8915131474">
        <ele>21.8</ele>
        <time>2013-03-10T15:24:03Z</time>
      </trkpt>
      <trkpt lat="59.4488393208" lon="17.8917679572">
        <ele>21.8</ele>
        <time>2013-03-10T15:24:06Z</time>
      </trkpt>
      <trkpt lat="59.4488686575" lon="17.8920333281">
        <ele>21.8</ele>
        <time>2013-03-10T15:24:09Z</time>
      </trkpt>
      <trkpt lat="59.4488803083" lon="17.8922037321">
        <ele>22.2</ele>
        <time>2013-03-10T15:24:11Z</time>
      </trkpt>
      <trkpt lat="59.4488847507" lon="17.8922928317">
        <ele>22.6</ele>
        <time>2013-03-10T15:24:12Z</time>
      </trkpt>
      <trkpt lat="59.448886008" lon="17.8923828533">
        <ele>23</ele>
        <time>2013-03-10T15:24:13Z</time>
      </trkpt>
      <trkpt lat="59.4488779614" lon="17.8924711147">
        <ele>23.4</ele>
        <time>2013-03-10T15:24:14Z</time>
      </trkpt>
      <trkpt lat="59.4488653885" lon="17.8925597952">
        <ele>23.8</ele>
        <time>2013-03-10T15:24:15Z</time>
      </trkpt>
      <trkpt lat="59.448808224" lon="17.8928065584">
        <ele>23.8</ele>
        <time>2013-03-10T15:24:18Z</time>
      </trkpt>
      <trkpt lat="59.4487496345" lon="17.8930347975">
        <ele>23.8</ele>
        <time>2013-03-10T15:24:21Z</time>
      </trkpt>
      <trkpt lat="59.4486223972" lon="17.8935652042">
        <ele>23.8</ele>
        <time>2013-03-10T15:24:28Z</time>
      </trkpt>
      <trkpt lat="59.4485174559" lon="17.8938931879">
        <ele>23.8</ele>
        <time>2013-03-10T15:24:33Z</time>
      </trkpt>
      <trkpt lat="59.4484855208" lon="17.8939452395">
        <ele>23.8</ele>
        <time>2013-03-10T15:24:34Z</time>
      </trkpt>
      <trkpt lat="59.4483319644" lon="17.8941578883">
        <ele>23.8</ele>
        <time>2013-03-10T15:24:38Z</time>
      </trkpt>
      <trkpt lat="59.4482432839" lon="17.8942167292">
        <ele>23.8</ele>
        <time>2013-03-10T15:24:40Z</time>
      </trkpt>
      <trkpt lat="59.4479817686" lon="17.8943380153">
        <ele>23.8</ele>
        <time>2013-03-10T15:24:46Z</time>
      </trkpt>
      <trkpt lat="59.4479308067" lon="17.8943593054">
        <ele>23.8</ele>
        <time>2013-03-10T15:24:47Z</time>
      </trkpt>
      <trkpt lat="59.4475846342" lon="17.8944851177">
        <ele>23.8</ele>
        <time>2013-03-10T15:24:54Z</time>
      </trkpt>
      <trkpt lat="59.4475418865" lon="17.8945220819">
        <ele>23.8</ele>
        <time>2013-03-10T15:24:55Z</time>
      </trkpt>
      <trkpt lat="59.4473704767" lon="17.8946924021">
        <ele>23.8</ele>
        <time>2013-03-10T15:24:59Z</time>
      </trkpt>
      <trkpt lat="59.4472500288" lon="17.8948024564">
        <ele>23.8</ele>
        <time>2013-03-10T15:25:02Z</time>
      </trkpt>
      <trkpt lat="59.4471581631" lon="17.8948022888">
        <ele>23.8</ele>
        <time>2013-03-10T15:25:04Z</time>
      </trkpt>
      <trkpt lat="59.4470575803" lon="17.8948055577">
        <ele>23.8</ele>
        <time>2013-03-10T15:25:06Z</time>
      </trkpt>
      <trkpt lat="59.4468923731" lon="17.8948288594">
        <ele>23.8</ele>
        <time>2013-03-10T15:25:09Z</time>
      </trkpt>
      <trkpt lat="59.4467723443" lon="17.8948413484">
        <ele>23.8</ele>
        <time>2013-03-10T15:25:11Z</time>
      </trkpt>
      <trkpt lat="59.4465929716" lon="17.8949263409">
        <ele>23.8</ele>
        <time>2013-03-10T15:25:14Z</time>
      </trkpt>
      <trkpt lat="59.4462294486" lon="17.8951822403">
        <ele>23.8</ele>
        <time>2013-03-10T15:25:20Z</time>
      </trkpt>
      <trkpt lat="59.446049573" lon="17.8952890257">
        <ele>23.8</ele>
        <time>2013-03-10T15:25:23Z</time>
      </trkpt>
      <trkpt lat="59.4458077552" lon="17.895458843">
        <ele>23.4</ele>
        <time>2013-03-10T15:25:27Z</time>
      </trkpt>
      <trkpt lat="59.4457478246" lon="17.8955050273">
        <ele>22.8</ele>
        <time>2013-03-10T15:25:28Z</time>
      </trkpt>
      <trkpt lat="59.4456877264" lon="17.8955508763">
        <ele>22.4</ele>
        <time>2013-03-10T15:25:29Z</time>
      </trkpt>
      <trkpt lat="59.445629556" lon="17.8955976473">
        <ele>22</ele>
        <time>2013-03-10T15:25:30Z</time>
      </trkpt>
      <trkpt lat="59.445573984" lon="17.8956457594">
        <ele>21.6</ele>
        <time>2013-03-10T15:25:31Z</time>
      </trkpt>
      <trkpt lat="59.4454693779" lon="17.8957356972">
        <ele>21.6</ele>
        <time>2013-03-10T15:25:33Z</time>
      </trkpt>
      <trkpt lat="59.4454182483" lon="17.8957798698">
        <ele>21.6</ele>
        <time>2013-03-10T15:25:34Z</time>
      </trkpt>
      <trkpt lat="59.4451519554" lon="17.8959713124">
        <ele>21.6</ele>
        <time>2013-03-10T15:25:39Z</time>
      </trkpt>
      <trkpt lat="59.445093785" lon="17.8960020739">
        <ele>21.6</ele>
        <time>2013-03-10T15:25:40Z</time>
      </trkpt>
      <trkpt lat="59.4450263107" lon="17.896019173">
        <ele>21.6</ele>
        <time>2013-03-10T15:25:41Z</time>
      </trkpt>
      <trkpt lat="59.4449041026" lon="17.8960064325">
        <ele>21.2</ele>
        <time>2013-03-10T15:25:43Z</time>
      </trkpt>
      <trkpt lat="59.4448481115" lon="17.8959899202">
        <ele>20.6</ele>
        <time>2013-03-10T15:25:44Z</time>
      </trkpt>
      <trkpt lat="59.4447941321" lon="17.8959718153">
        <ele>20.2</ele>
        <time>2013-03-10T15:25:45Z</time>
      </trkpt>
      <trkpt lat="59.4447468581" lon="17.8959367789">
        <ele>19.8</ele>
        <time>2013-03-10T15:25:46Z</time>
      </trkpt>
      <trkpt lat="59.4447046134" lon="17.8959002339">
        <ele>19.4</ele>
        <time>2013-03-10T15:25:47Z</time>
      </trkpt>
      <trkpt lat="59.4446622009" lon="17.8958609227">
        <ele>19.4</ele>
        <time>2013-03-10T15:25:48Z</time>
      </trkpt>
      <trkpt lat="59.4445757836" lon="17.8957474318">
        <ele>19.4</ele>
        <time>2013-03-10T15:25:50Z</time>
      </trkpt>
      <trkpt lat="59.4444539107" lon="17.8955295024">
        <ele>19.4</ele>
        <time>2013-03-10T15:25:53Z</time>
      </trkpt>
      <trkpt lat="59.4443598658" lon="17.8954045283">
        <ele>19.4</ele>
        <time>2013-03-10T15:25:55Z</time>
      </trkpt>
      <trkpt lat="59.4443068922" lon="17.8953508003">
        <ele>19</ele>
        <time>2013-03-10T15:25:56Z</time>
      </trkpt>
      <trkpt lat="59.4442541701" lon="17.8953066277">
        <ele>18.6</ele>
        <time>2013-03-10T15:25:57Z</time>
      </trkpt>
      <trkpt lat="59.4441989333" lon="17.8952637962">
        <ele>18.2</ele>
        <time>2013-03-10T15:25:58Z</time>
      </trkpt>
      <trkpt lat="59.4441417688" lon="17.8952294304">
        <ele>17.8</ele>
        <time>2013-03-10T15:25:59Z</time>
      </trkpt>
      <trkpt lat="59.4440861968" lon="17.89520923">
        <ele>17.4</ele>
        <time>2013-03-10T15:26:00Z</time>
      </trkpt>
      <trkpt lat="59.4439214924" lon="17.8951412528">
        <ele>17.4</ele>
        <time>2013-03-10T15:26:03Z</time>
      </trkpt>
      <trkpt lat="59.4437676008" lon="17.8950940627">
        <ele>17.4</ele>
        <time>2013-03-10T15:26:06Z</time>
      </trkpt>
      <trkpt lat="59.4437200754" lon="17.8950903747">
        <ele>17</ele>
        <time>2013-03-10T15:26:07Z</time>
      </trkpt>
      <trkpt lat="59.4436720471" lon="17.8950886145">
        <ele>16.6</ele>
        <time>2013-03-10T15:26:08Z</time>
      </trkpt>
      <trkpt lat="59.443624857" lon="17.8950834177">
        <ele>16.2</ele>
        <time>2013-03-10T15:26:09Z</time>
      </trkpt>
      <trkpt lat="59.4435773316" lon="17.8950768798">
        <ele>15.8</ele>
        <time>2013-03-10T15:26:10Z</time>
      </trkpt>
      <trkpt lat="59.4435304768" lon="17.8950678274">
        <ele>15.4</ele>
        <time>2013-03-10T15:26:11Z</time>
      </trkpt>
      <trkpt lat="59.4434790119" lon="17.8950784724">
        <ele>15.4</ele>
        <time>2013-03-10T15:26:12Z</time>
      </trkpt>
      <trkpt lat="59.4433780939" lon="17.8951154366">
        <ele>15.4</ele>
        <time>2013-03-10T15:26:14Z</time>
      </trkpt>
      <trkpt lat="59.443186316" lon="17.8951016902">
        <ele>15.4</ele>
        <time>2013-03-10T15:26:19Z</time>
      </trkpt>
      <trkpt lat="59.4431528722" lon="17.8950190447">
        <ele>15.4</ele>
        <time>2013-03-10T15:26:22Z</time>
      </trkpt>
      <trkpt lat="59.4431519502" lon="17.8949871097">
        <ele>15</ele>
        <time>2013-03-10T15:26:23Z</time>
      </trkpt>
      <trkpt lat="59.4431527884" lon="17.8949431885">
        <ele>14.4</ele>
        <time>2013-03-10T15:26:24Z</time>
      </trkpt>
      <trkpt lat="59.4431641878" lon="17.8948995188">
        <ele>14</ele>
        <time>2013-03-10T15:26:25Z</time>
      </trkpt>
      <trkpt lat="59.4431874056" lon="17.8948449526">
        <ele>13.6</ele>
        <time>2013-03-10T15:26:26Z</time>
      </trkpt>
      <trkpt lat="59.4432129704" lon="17.8947872852">
        <ele>13.2</ele>
        <time>2013-03-10T15:26:27Z</time>
      </trkpt>
      <trkpt lat="59.4434002221" lon="17.8944168052">
        <ele>13.2</ele>
        <time>2013-03-10T15:26:32Z</time>
      </trkpt>
      <trkpt lat="59.4436999588" lon="17.8937382904">
        <ele>13.2</ele>
        <time>2013-03-10T15:26:40Z</time>
      </trkpt>
      <trkpt lat="59.4439040581" lon="17.8932623661">
        <ele>13.2</ele>
        <time>2013-03-10T15:26:46Z</time>
      </trkpt>
      <trkpt lat="59.4439766453" lon="17.8929993421">
        <ele>13.6</ele>
        <time>2013-03-10T15:26:49Z</time>
      </trkpt>
      <trkpt lat="59.4439980192" lon="17.8929182891">
        <ele>14.2</ele>
        <time>2013-03-10T15:26:50Z</time>
      </trkpt>
      <trkpt lat="59.4440172137" lon="17.8928399183">
        <ele>14.6</ele>
        <time>2013-03-10T15:26:51Z</time>
      </trkpt>
      <trkpt lat="59.4440333908" lon="17.8927603741">
        <ele>15</ele>
        <time>2013-03-10T15:26:52Z</time>
      </trkpt>
      <trkpt lat="59.4440522501" lon="17.8926804946">
        <ele>15.4</ele>
        <time>2013-03-10T15:26:53Z</time>
      </trkpt>
      <trkpt lat="59.4440799942" lon="17.8926109248">
        <ele>15.8</ele>
        <time>2013-03-10T15:26:54Z</time>
      </trkpt>
      <trkpt lat="59.4441110072" lon="17.8925412712">
        <ele>16.2</ele>
        <time>2013-03-10T15:26:55Z</time>
      </trkpt>
      <trkpt lat="59.4441421041" lon="17.8924751381">
        <ele>17</ele>
        <time>2013-03-10T15:26:56Z</time>
      </trkpt>
      <trkpt lat="59.4441681718" lon="17.8924002039">
        <ele>17.4</ele>
        <time>2013-03-10T15:26:57Z</time>
      </trkpt>
      <trkpt lat="59.4443384082" lon="17.8919195019">
        <ele>17.4</ele>
        <time>2013-03-10T15:27:03Z</time>
      </trkpt>
      <trkpt lat="59.4445045374" lon="17.8914023387">
        <ele>17.4</ele>
        <time>2013-03-10T15:27:09Z</time>
      </trkpt>
      <trkpt lat="59.4446030247" lon="17.8910752769">
        <ele>17.4</ele>
        <time>2013-03-10T15:27:13Z</time>
      </trkpt>
      <trkpt lat="59.4446384802" lon="17.8909105726">
        <ele>17.4</ele>
        <time>2013-03-10T15:27:15Z</time>
      </trkpt>
      <trkpt lat="59.4446526456" lon="17.890816863">
        <ele>17.4</ele>
        <time>2013-03-10T15:27:16Z</time>
      </trkpt>
      <trkpt lat="59.444658932" lon="17.8904830119">
        <ele>17.4</ele>
        <time>2013-03-10T15:27:19Z</time>
      </trkpt>
      <trkpt lat="59.4446192018" lon="17.8899099414">
        <ele>17.4</ele>
        <time>2013-03-10T15:27:24Z</time>
      </trkpt>
      <trkpt lat="59.4446022704" lon="17.8891911096">
        <ele>17.4</ele>
        <time>2013-03-10T15:27:31Z</time>
      </trkpt>
      <trkpt lat="59.4446885201" lon="17.8888490443">
        <ele>17.4</ele>
        <time>2013-03-10T15:27:35Z</time>
      </trkpt>
      <trkpt lat="59.4447523064" lon="17.88872231">
        <ele>17.4</ele>
        <time>2013-03-10T15:27:37Z</time>
      </trkpt>
      <trkpt lat="59.44480989" lon="17.8885896245">
        <ele>17.4</ele>
        <time>2013-03-10T15:27:39Z</time>
      </trkpt>
      <trkpt lat="59.444833527" lon="17.888507901">
        <ele>17.4</ele>
        <time>2013-03-10T15:27:40Z</time>
      </trkpt>
      <trkpt lat="59.4448776158" lon="17.8883142791">
        <ele>17.4</ele>
        <time>2013-03-10T15:27:42Z</time>
      </trkpt>
      <trkpt lat="59.4449440004" lon="17.8879983653">
        <ele>17.4</ele>
        <time>2013-03-10T15:27:45Z</time>
      </trkpt>
      <trkpt lat="59.4449922802" lon="17.8877926734">
        <ele>17.4</ele>
        <time>2013-03-10T15:27:47Z</time>
      </trkpt>
      <trkpt lat="59.445071992" lon="17.8874710599">
        <ele>17.4</ele>
        <time>2013-03-10T15:27:50Z</time>
      </trkpt>
      <trkpt lat="59.4452031688" lon="17.8870018412">
        <ele>17</ele>
        <time>2013-03-10T15:27:54Z</time>
      </trkpt>
      <trkpt lat="59.4452424799" lon="17.8868878473">
        <ele>16.6</ele>
        <time>2013-03-10T15:27:55Z</time>
      </trkpt>
      <trkpt lat="59.4452848085" lon="17.886781481">
        <ele>16.2</ele>
        <time>2013-03-10T15:27:56Z</time>
      </trkpt>
      <trkpt lat="59.4453272209" lon="17.886682407">
        <ele>15.8</ele>
        <time>2013-03-10T15:27:57Z</time>
      </trkpt>
      <trkpt lat="59.4453670349" lon="17.8865757054">
        <ele>15.4</ele>
        <time>2013-03-10T15:27:58Z</time>
      </trkpt>
      <trkpt lat="59.4454364371" lon="17.88638091">
        <ele>15</ele>
        <time>2013-03-10T15:28:00Z</time>
      </trkpt>
      <trkpt lat="59.4454704676" lon="17.8862880386">
        <ele>14.6</ele>
        <time>2013-03-10T15:28:01Z</time>
      </trkpt>
      <trkpt lat="59.4455053363" lon="17.8862015374">
        <ele>14.2</ele>
        <time>2013-03-10T15:28:02Z</time>
      </trkpt>
      <trkpt lat="59.4455423004" lon="17.8861171316">
        <ele>13.8</ele>
        <time>2013-03-10T15:28:03Z</time>
      </trkpt>
      <trkpt lat="59.4455737326" lon="17.8860259366">
        <ele>13.4</ele>
        <time>2013-03-10T15:28:04Z</time>
      </trkpt>
      <trkpt lat="59.4456709626" lon="17.8857305584">
        <ele>13.4</ele>
        <time>2013-03-10T15:28:07Z</time>
      </trkpt>
      <trkpt lat="59.445734246" lon="17.8855387805">
        <ele>13.4</ele>
        <time>2013-03-10T15:28:09Z</time>
      </trkpt>
      <trkpt lat="59.4458909037" lon="17.8850694779">
        <ele>13.4</ele>
        <time>2013-03-10T15:28:14Z</time>
      </trkpt>
      <trkpt lat="59.4460405206" lon="17.8844580183">
        <ele>13.4</ele>
        <time>2013-03-10T15:28:21Z</time>
      </trkpt>
      <trkpt lat="59.4461204839" lon="17.8839499914">
        <ele>13.4</ele>
        <time>2013-03-10T15:28:28Z</time>
      </trkpt>
      <trkpt lat="59.4462088291" lon="17.8837517594">
        <ele>13.4</ele>
        <time>2013-03-10T15:28:31Z</time>
      </trkpt>
      <trkpt lat="59.446293151" lon="17.8836432138">
        <ele>13.4</ele>
        <time>2013-03-10T15:28:33Z</time>
      </trkpt>
      <trkpt lat="59.4464437738" lon="17.8833144757">
        <ele>13.4</ele>
        <time>2013-03-10T15:28:37Z</time>
      </trkpt>
      <trkpt lat="59.4465212225" lon="17.8831351031">
        <ele>13.4</ele>
        <time>2013-03-10T15:28:39Z</time>
      </trkpt>
      <trkpt lat="59.4465526547" lon="17.8830347717">
        <ele>13.4</ele>
        <time>2013-03-10T15:28:40Z</time>
      </trkpt>
      <trkpt lat="59.4466183688" lon="17.8828411498">
        <ele>13.4</ele>
        <time>2013-03-10T15:28:42Z</time>
      </trkpt>
      <trkpt lat="59.4467957298" lon="17.8822614576">
        <ele>13</ele>
        <time>2013-03-10T15:28:48Z</time>
      </trkpt>
      <trkpt lat="59.4468252341" lon="17.8821679156">
        <ele>12.6</ele>
        <time>2013-03-10T15:28:49Z</time>
      </trkpt>
      <trkpt lat="59.4468545707" lon="17.8820787322">
        <ele>12</ele>
        <time>2013-03-10T15:28:50Z</time>
      </trkpt>
      <trkpt lat="59.4468866734" lon="17.8819858608">
        <ele>11.6</ele>
        <time>2013-03-10T15:28:51Z</time>
      </trkpt>
      <trkpt lat="59.4469145013" lon="17.8819062327">
        <ele>11.2</ele>
        <time>2013-03-10T15:28:52Z</time>
      </trkpt>
      <trkpt lat="59.4469923691" lon="17.8816985292">
        <ele>11.2</ele>
        <time>2013-03-10T15:28:55Z</time>
      </trkpt>
      <trkpt lat="59.4471256414" lon="17.8813343357">
        <ele>11.2</ele>
        <time>2013-03-10T15:29:00Z</time>
      </trkpt>
      <trkpt lat="59.4471470152" lon="17.8812390335">
        <ele>11.2</ele>
        <time>2013-03-10T15:29:01Z</time>
      </trkpt>
      <trkpt lat="59.4471994021" lon="17.8809221976">
        <ele>11.2</ele>
        <time>2013-03-10T15:29:04Z</time>
      </trkpt>
      <trkpt lat="59.4472140704" lon="17.8806851575">
        <ele>11.2</ele>
        <time>2013-03-10T15:29:06Z</time>
      </trkpt>
      <trkpt lat="59.4471937862" lon="17.880227422">
        <ele>11.2</ele>
        <time>2013-03-10T15:29:10Z</time>
      </trkpt>
      <trkpt lat="59.4471899305" lon="17.8801133443">
        <ele>11.2</ele>
        <time>2013-03-10T15:29:11Z</time>
      </trkpt>
      <trkpt lat="59.4471936186" lon="17.8799992666">
        <ele>11.2</ele>
        <time>2013-03-10T15:29:12Z</time>
      </trkpt>
      <trkpt lat="59.4472416469" lon="17.8796863703">
        <ele>11.2</ele>
        <time>2013-03-10T15:29:15Z</time>
      </trkpt>
      <trkpt lat="59.4473796129" lon="17.8790117112">
        <ele>11.2</ele>
        <time>2013-03-10T15:29:22Z</time>
      </trkpt>
      <trkpt lat="59.4475485082" lon="17.8782429233">
        <ele>11.2</ele>
        <time>2013-03-10T15:29:30Z</time>
      </trkpt>
      <trkpt lat="59.44767365" lon="17.8775994449">
        <ele>11.6</ele>
        <time>2013-03-10T15:29:37Z</time>
      </trkpt>
      <trkpt lat="59.4476885698" lon="17.8775133627">
        <ele>12</ele>
        <time>2013-03-10T15:29:38Z</time>
      </trkpt>
      <trkpt lat="59.4476992148" lon="17.8774276997">
        <ele>12.6</ele>
        <time>2013-03-10T15:29:39Z</time>
      </trkpt>
      <trkpt lat="59.4477132125" lon="17.87734145">
        <ele>13</ele>
        <time>2013-03-10T15:29:40Z</time>
      </trkpt>
      <trkpt lat="59.4477279647" lon="17.8772536915">
        <ele>13.4</ele>
        <time>2013-03-10T15:29:41Z</time>
      </trkpt>
      <trkpt lat="59.4477828661" lon="17.8768102051">
        <ele>13.4</ele>
        <time>2013-03-10T15:29:46Z</time>
      </trkpt>
      <trkpt lat="59.4478855444" lon="17.8761649665">
        <ele>13.4</ele>
        <time>2013-03-10T15:29:53Z</time>
      </trkpt>
      <trkpt lat="59.4479307229" lon="17.8757957438">
        <ele>13.4</ele>
        <time>2013-03-10T15:29:57Z</time>
      </trkpt>
      <trkpt lat="59.4479378475" lon="17.8754779021">
        <ele>13.4</ele>
        <time>2013-03-10T15:30:00Z</time>
      </trkpt>
      <trkpt lat="59.4478524359" lon="17.8750179035">
        <ele>13.4</ele>
        <time>2013-03-10T15:30:05Z</time>
      </trkpt>
      <trkpt lat="59.447786638" lon="17.8748538697">
        <ele>13.4</ele>
        <time>2013-03-10T15:30:07Z</time>
      </trkpt>
      <trkpt lat="59.4476582273" lon="17.8745153247">
        <ele>13.4</ele>
        <time>2013-03-10T15:30:11Z</time>
      </trkpt>
      <trkpt lat="59.4475216023" lon="17.8739187011">
        <ele>13.4</ele>
        <time>2013-03-10T15:30:17Z</time>
      </trkpt>
      <trkpt lat="59.4475289784" lon="17.8735124304">
        <ele>13.4</ele>
        <time>2013-03-10T15:30:21Z</time>
      </trkpt>
      <trkpt lat="59.4475382823" lon="17.8734131887">
        <ele>13.4</ele>
        <time>2013-03-10T15:30:22Z</time>
      </trkpt>
      <trkpt lat="59.4475719775" lon="17.8731595524">
        <ele>13.4</ele>
        <time>2013-03-10T15:30:26Z</time>
      </trkpt>
      <trkpt lat="59.4475635956" lon="17.8731203251">
        <ele>13.4</ele>
        <time>2013-03-10T15:30:27Z</time>
      </trkpt>
      <trkpt lat="59.4475159026" lon="17.8730445528">
        <ele>13.4</ele>
        <time>2013-03-10T15:30:30Z</time>
      </trkpt>
      <trkpt lat="59.4473998971" lon="17.8730893121">
        <ele>13.4</ele>
        <time>2013-03-10T15:30:34Z</time>
      </trkpt>
      <trkpt lat="59.4472100471" lon="17.8731580437">
        <ele>14.4</ele>
        <time>2013-03-10T15:30:38Z</time>
      </trkpt>
      <trkpt lat="59.4471603424" lon="17.8731574569">
        <ele>14.8</ele>
        <time>2013-03-10T15:30:39Z</time>
      </trkpt>
      <trkpt lat="59.4471077041" lon="17.8731556129">
        <ele>15.2</ele>
        <time>2013-03-10T15:30:40Z</time>
      </trkpt>
      <trkpt lat="59.447055401" lon="17.8731570378">
        <ele>15.8</ele>
        <time>2013-03-10T15:30:41Z</time>
      </trkpt>
      <trkpt lat="59.4467907006" lon="17.8731335685">
        <ele>15.8</ele>
        <time>2013-03-10T15:30:46Z</time>
      </trkpt>
      <trkpt lat="59.4465491343" lon="17.8731432915">
        <ele>15.4</ele>
        <time>2013-03-10T15:30:51Z</time>
      </trkpt>
      <trkpt lat="59.4465010222" lon="17.8731530984">
        <ele>15</ele>
        <time>2013-03-10T15:30:52Z</time>
      </trkpt>
      <trkpt lat="59.4464542512" lon="17.8731677667">
        <ele>14.4</ele>
        <time>2013-03-10T15:30:53Z</time>
      </trkpt>
      <trkpt lat="59.4464058876" lon="17.8731915713">
        <ele>14</ele>
        <time>2013-03-10T15:30:54Z</time>
      </trkpt>
      <trkpt lat="59.446356602" lon="17.8732162141">
        <ele>13.6</ele>
        <time>2013-03-10T15:30:55Z</time>
      </trkpt>
      <trkpt lat="59.4460299594" lon="17.8734150327">
        <ele>13.6</ele>
        <time>2013-03-10T15:31:02Z</time>
      </trkpt>
      <trkpt lat="59.4457313961" lon="17.8736592813">
        <ele>13.6</ele>
        <time>2013-03-10T15:31:09Z</time>
      </trkpt>
      <trkpt lat="59.4454015683" lon="17.8740271629">
        <ele>13.2</ele>
        <time>2013-03-10T15:31:17Z</time>
      </trkpt>
      <trkpt lat="59.4453561384" lon="17.8740549908">
        <ele>12.8</ele>
        <time>2013-03-10T15:31:18Z</time>
      </trkpt>
      <trkpt lat="59.4453069367" lon="17.8740809747">
        <ele>12.4</ele>
        <time>2013-03-10T15:31:19Z</time>
      </trkpt>
      <trkpt lat="59.44525631" lon="17.8740908653">
        <ele>12</ele>
        <time>2013-03-10T15:31:20Z</time>
      </trkpt>
      <trkpt lat="59.4452068568" lon="17.8740927932">
        <ele>11.6</ele>
        <time>2013-03-10T15:31:21Z</time>
      </trkpt>
      <trkpt lat="59.4451560625" lon="17.8741032705">
        <ele>11.6</ele>
        <time>2013-03-10T15:31:22Z</time>
      </trkpt>
      <trkpt lat="59.4450653703" lon="17.8741160948">
        <ele>11.6</ele>
        <time>2013-03-10T15:31:24Z</time>
      </trkpt>
      <trkpt lat="59.4449351994" lon="17.8741950523">
        <ele>11.6</ele>
        <time>2013-03-10T15:31:27Z</time>
      </trkpt>
      <trkpt lat="59.4448932899" lon="17.8742274065">
        <ele>11.6</ele>
        <time>2013-03-10T15:31:28Z</time>
      </trkpt>
      <trkpt lat="59.4448484468" lon="17.8742514625">
        <ele>11.6</ele>
        <time>2013-03-10T15:31:29Z</time>
      </trkpt>
      <trkpt lat="59.4447087205" lon="17.874301251">
        <ele>11.6</ele>
        <time>2013-03-10T15:31:32Z</time>
      </trkpt>
      <trkpt lat="59.4446624524" lon="17.8743098844">
        <ele>11.6</ele>
        <time>2013-03-10T15:31:33Z</time>
      </trkpt>
      <trkpt lat="59.4445215527" lon="17.8743192721">
        <ele>11.6</ele>
        <time>2013-03-10T15:31:36Z</time>
      </trkpt>
      <trkpt lat="59.4443723548" lon="17.8743135724">
        <ele>11.6</ele>
        <time>2013-03-10T15:31:39Z</time>
      </trkpt>
      <trkpt lat="59.4441399248" lon="17.874319775">
        <ele>11.6</ele>
        <time>2013-03-10T15:31:44Z</time>
      </trkpt>
      <trkpt lat="59.443759135" lon="17.8743502013">
        <ele>11.6</ele>
        <time>2013-03-10T15:31:51Z</time>
      </trkpt>
      <trkpt lat="59.4434464902" lon="17.8743160032">
        <ele>11.6</ele>
        <time>2013-03-10T15:31:57Z</time>
      </trkpt>
      <trkpt lat="59.4433563847" lon="17.8743193559">
        <ele>11.6</ele>
        <time>2013-03-10T15:31:59Z</time>
      </trkpt>
      <trkpt lat="59.4431757548" lon="17.874328576">
        <ele>11.6</ele>
        <time>2013-03-10T15:32:03Z</time>
      </trkpt>
      <trkpt lat="59.4428616012" lon="17.8744118921">
        <ele>11.6</ele>
        <time>2013-03-10T15:32:10Z</time>
      </trkpt>
      <trkpt lat="59.4426497906" lon="17.8744999859">
        <ele>11.6</ele>
        <time>2013-03-10T15:32:16Z</time>
      </trkpt>
      <trkpt lat="59.4425175242" lon="17.8745610899">
        <ele>12</ele>
        <time>2013-03-10T15:32:21Z</time>
      </trkpt>
      <trkpt lat="59.4424858406" lon="17.8745773508">
        <ele>12.4</ele>
        <time>2013-03-10T15:32:22Z</time>
      </trkpt>
      <trkpt lat="59.4424547438" lon="17.8745921868">
        <ele>12.8</ele>
        <time>2013-03-10T15:32:23Z</time>
      </trkpt>
      <trkpt lat="59.4424199589" lon="17.874594869">
        <ele>13.2</ele>
        <time>2013-03-10T15:32:24Z</time>
      </trkpt>
      <trkpt lat="59.442386096" lon="17.8746116328">
        <ele>13.6</ele>
        <time>2013-03-10T15:32:25Z</time>
      </trkpt>
      <trkpt lat="59.4423642192" lon="17.8746335095">
        <ele>13.6</ele>
        <time>2013-03-10T15:32:26Z</time>
      </trkpt>
      <trkpt lat="59.4422001016" lon="17.8746843038">
        <ele>13.6</ele>
        <time>2013-03-10T15:32:31Z</time>
      </trkpt>
      <trkpt lat="59.4419564398" lon="17.8748062605">
        <ele>13.6</ele>
        <time>2013-03-10T15:32:36Z</time>
      </trkpt>
      <trkpt lat="59.4417415279" lon="17.8749795144">
        <ele>13.6</ele>
        <time>2013-03-10T15:32:41Z</time>
      </trkpt>
      <trkpt lat="59.4416121952" lon="17.8750243575">
        <ele>13.6</ele>
        <time>2013-03-10T15:32:44Z</time>
      </trkpt>
      <trkpt lat="59.4414334931" lon="17.875069536">
        <ele>13.6</ele>
        <time>2013-03-10T15:32:48Z</time>
      </trkpt>
      <trkpt lat="59.4411460777" lon="17.8751349986">
        <ele>13.6</ele>
        <time>2013-03-10T15:32:55Z</time>
      </trkpt>
      <trkpt lat="59.4410123864" lon="17.875137597">
        <ele>14</ele>
        <time>2013-03-10T15:32:59Z</time>
      </trkpt>
      <trkpt lat="59.4409798646" lon="17.8751257785">
        <ele>14.6</ele>
        <time>2013-03-10T15:33:00Z</time>
      </trkpt>
      <trkpt lat="59.4409454988" lon="17.875114463">
        <ele>15</ele>
        <time>2013-03-10T15:33:01Z</time>
      </trkpt>
      <trkpt lat="59.4409113845" lon="17.8751031474">
        <ele>15.4</ele>
        <time>2013-03-10T15:33:02Z</time>
      </trkpt>
      <trkpt lat="59.4408788627" lon="17.8750897364">
        <ele>15.8</ele>
        <time>2013-03-10T15:33:03Z</time>
      </trkpt>
      <trkpt lat="59.4407447523" lon="17.875023687">
        <ele>15.8</ele>
        <time>2013-03-10T15:33:08Z</time>
      </trkpt>
      <trkpt lat="59.4407210316" lon="17.8750080966">
        <ele>16.2</ele>
        <time>2013-03-10T15:33:09Z</time>
      </trkpt>
      <trkpt lat="59.4406924493" lon="17.874981526">
        <ele>16.6</ele>
        <time>2013-03-10T15:33:10Z</time>
      </trkpt>
      <trkpt lat="59.4406643699" lon="17.8749474955">
        <ele>17</ele>
        <time>2013-03-10T15:33:11Z</time>
      </trkpt>
      <trkpt lat="59.4406379669" lon="17.8749315699">
        <ele>17.6</ele>
        <time>2013-03-10T15:33:12Z</time>
      </trkpt>
      <trkpt lat="59.4406074568" lon="17.8749156443">
        <ele>18</ele>
        <time>2013-03-10T15:33:13Z</time>
      </trkpt>
      <trkpt lat="59.4405771143" lon="17.8748987129">
        <ele>18</ele>
        <time>2013-03-10T15:33:14Z</time>
      </trkpt>
      <trkpt lat="59.4403194547" lon="17.8747478387">
        <ele>18</ele>
        <time>2013-03-10T15:33:21Z</time>
      </trkpt>
      <trkpt lat="59.440196157" lon="17.8746623433">
        <ele>18</ele>
        <time>2013-03-10T15:33:24Z</time>
      </trkpt>
      <trkpt lat="59.4400272617" lon="17.8745765964">
        <ele>18</ele>
        <time>2013-03-10T15:33:28Z</time>
      </trkpt>
      <trkpt lat="59.4397016249" lon="17.8744468446">
        <ele>18</ele>
        <time>2013-03-10T15:33:36Z</time>
      </trkpt>
      <trkpt lat="59.4396199852" lon="17.8744322601">
        <ele>18.4</ele>
        <time>2013-03-10T15:33:38Z</time>
      </trkpt>
      <trkpt lat="59.4395810093" lon="17.8744304161">
        <ele>18.8</ele>
        <time>2013-03-10T15:33:39Z</time>
      </trkpt>
      <trkpt lat="59.4395318914" lon="17.8744422346">
        <ele>19.2</ele>
        <time>2013-03-10T15:33:40Z</time>
      </trkpt>
      <trkpt lat="59.4394794207" lon="17.8744596689">
        <ele>19.6</ele>
        <time>2013-03-10T15:33:41Z</time>
      </trkpt>
      <trkpt lat="59.4394298837" lon="17.8744784444">
        <ele>20</ele>
        <time>2013-03-10T15:33:42Z</time>
      </trkpt>
      <trkpt lat="59.439382023" lon="17.8744790311">
        <ele>20</ele>
        <time>2013-03-10T15:33:43Z</time>
      </trkpt>
      <trkpt lat="59.4392004711" lon="17.8744289912">
        <ele>20</ele>
        <time>2013-03-10T15:33:47Z</time>
      </trkpt>
      <trkpt lat="59.4391587292" lon="17.8744081202">
        <ele>20</ele>
        <time>2013-03-10T15:33:48Z</time>
      </trkpt>
      <trkpt lat="59.4389298195" lon="17.8744106348">
        <ele>20</ele>
        <time>2013-03-10T15:33:53Z</time>
      </trkpt>
      <trkpt lat="59.4386232096" lon="17.8745364471">
        <ele>20</ele>
        <time>2013-03-10T15:34:00Z</time>
      </trkpt>
      <trkpt lat="59.4384471059" lon="17.8746137283">
        <ele>20</ele>
        <time>2013-03-10T15:34:05Z</time>
      </trkpt>
      <trkpt lat="59.4381851715" lon="17.8746312464">
        <ele>20</ele>
        <time>2013-03-10T15:34:11Z</time>
      </trkpt>
      <trkpt lat="59.4378711017" lon="17.874660164">
        <ele>20</ele>
        <time>2013-03-10T15:34:17Z</time>
      </trkpt>
      <trkpt lat="59.437454689" lon="17.8746667857">
        <ele>20</ele>
        <time>2013-03-10T15:34:25Z</time>
      </trkpt>
      <trkpt lat="59.4373499152" lon="17.87466293">
        <ele>19.6</ele>
        <time>2013-03-10T15:34:27Z</time>
      </trkpt>
      <trkpt lat="59.4372997076" lon="17.8746605831">
        <ele>19.2</ele>
        <time>2013-03-10T15:34:28Z</time>
      </trkpt>
      <trkpt lat="59.437243968" lon="17.8746596611">
        <ele>18.8</ele>
        <time>2013-03-10T15:34:29Z</time>
      </trkpt>
      <trkpt lat="59.4371878931" lon="17.8746686297">
        <ele>18.4</ele>
        <time>2013-03-10T15:34:30Z</time>
      </trkpt>
      <trkpt lat="59.4371304771" lon="17.8746908417">
        <ele>17.8</ele>
        <time>2013-03-10T15:34:31Z</time>
      </trkpt>
      <trkpt lat="59.4370742345" lon="17.8747234473">
        <ele>17.4</ele>
        <time>2013-03-10T15:34:32Z</time>
      </trkpt>
      <trkpt lat="59.4370158965" lon="17.8747557176">
        <ele>17</ele>
        <time>2013-03-10T15:34:33Z</time>
      </trkpt>
      <trkpt lat="59.4369635934" lon="17.8747964537">
        <ele>16.6</ele>
        <time>2013-03-10T15:34:34Z</time>
      </trkpt>
      <trkpt lat="59.4369110389" lon="17.8748428056">
        <ele>16.2</ele>
        <time>2013-03-10T15:34:35Z</time>
      </trkpt>
      <trkpt lat="59.4368611666" lon="17.8748847151">
        <ele>15.8</ele>
        <time>2013-03-10T15:34:36Z</time>
      </trkpt>
      <trkpt lat="59.436767457" lon="17.8749795982">
        <ele>15.8</ele>
        <time>2013-03-10T15:34:38Z</time>
      </trkpt>
      <trkpt lat="59.4366320893" lon="17.8751277902">
        <ele>15.8</ele>
        <time>2013-03-10T15:34:41Z</time>
      </trkpt>
      <trkpt lat="59.4365035109" lon="17.8752499145">
        <ele>15.8</ele>
        <time>2013-03-10T15:34:44Z</time>
      </trkpt>
      <trkpt lat="59.4363072068" lon="17.8755183867">
        <ele>15.8</ele>
        <time>2013-03-10T15:34:49Z</time>
      </trkpt>
      <trkpt lat="59.4360562528" lon="17.8759021101">
        <ele>15.8</ele>
        <time>2013-03-10T15:34:56Z</time>
      </trkpt>
      <trkpt lat="59.4358455318" lon="17.8762779545">
        <ele>15.8</ele>
        <time>2013-03-10T15:35:02Z</time>
      </trkpt>
      <trkpt lat="59.4356644828" lon="17.8766317545">
        <ele>15.8</ele>
        <time>2013-03-10T15:35:08Z</time>
      </trkpt>
      <trkpt lat="59.4355105911" lon="17.8769848001">
        <ele>15.8</ele>
        <time>2013-03-10T15:35:14Z</time>
      </trkpt>
      <trkpt lat="59.4352696114" lon="17.8774316392">
        <ele>15.8</ele>
        <time>2013-03-10T15:35:22Z</time>
      </trkpt>
      <trkpt lat="59.4351889776" lon="17.8775794959">
        <ele>16.2</ele>
        <time>2013-03-10T15:35:25Z</time>
      </trkpt>
      <trkpt lat="59.4351643348" lon="17.8776286139">
        <ele>16.6</ele>
        <time>2013-03-10T15:35:26Z</time>
      </trkpt>
      <trkpt lat="59.4351344952" lon="17.8776810007">
        <ele>17</ele>
        <time>2013-03-10T15:35:27Z</time>
      </trkpt>
      <trkpt lat="59.4351068349" lon="17.8777321303">
        <ele>17.4</ele>
        <time>2013-03-10T15:35:28Z</time>
      </trkpt>
      <trkpt lat="59.4350847067" lon="17.8777821703">
        <ele>17.8</ele>
        <time>2013-03-10T15:35:29Z</time>
      </trkpt>
      <trkpt lat="59.4349708805" lon="17.8779873592">
        <ele>17.8</ele>
        <time>2013-03-10T15:35:33Z</time>
      </trkpt>
      <trkpt lat="59.4348558809" lon="17.8783237248">
        <ele>17.8</ele>
        <time>2013-03-10T15:35:39Z</time>
      </trkpt>
      <trkpt lat="59.434757645" lon="17.8787360305">
        <ele>17.8</ele>
        <time>2013-03-10T15:35:45Z</time>
      </trkpt>
      <trkpt lat="59.4347130533" lon="17.8789560554">
        <ele>18.4</ele>
        <time>2013-03-10T15:35:48Z</time>
      </trkpt>
      <trkpt lat="59.4347024921" lon="17.8790260442">
        <ele>18.8</ele>
        <time>2013-03-10T15:35:49Z</time>
      </trkpt>
      <trkpt lat="59.4346930205" lon="17.8791088574">
        <ele>19.2</ele>
        <time>2013-03-10T15:35:50Z</time>
      </trkpt>
      <trkpt lat="59.4346879076" lon="17.8791955262">
        <ele>19.6</ele>
        <time>2013-03-10T15:35:51Z</time>
      </trkpt>
      <trkpt lat="59.4346832137" lon="17.8792844582">
        <ele>20</ele>
        <time>2013-03-10T15:35:52Z</time>
      </trkpt>
      <trkpt lat="59.4346977144" lon="17.8796302954">
        <ele>20</ele>
        <time>2013-03-10T15:35:56Z</time>
      </trkpt>
      <trkpt lat="59.4347068507" lon="17.8799465445">
        <ele>20</ele>
        <time>2013-03-10T15:35:59Z</time>
      </trkpt>
      <trkpt lat="59.4347008157" lon="17.8800423496">
        <ele>20</ele>
        <time>2013-03-10T15:36:00Z</time>
      </trkpt>
      <trkpt lat="59.4346884105" lon="17.880136646">
        <ele>20</ele>
        <time>2013-03-10T15:36:01Z</time>
      </trkpt>
      <trkpt lat="59.4346413042" lon="17.8803826547">
        <ele>20</ele>
        <time>2013-03-10T15:36:04Z</time>
      </trkpt>
      <trkpt lat="59.4346151527" lon="17.8804513863">
        <ele>20</ele>
        <time>2013-03-10T15:36:05Z</time>
      </trkpt>
      <trkpt lat="59.4344377079" lon="17.8807286596">
        <ele>20</ele>
        <time>2013-03-10T15:36:10Z</time>
      </trkpt>
      <trkpt lat="59.4343948764" lon="17.8807770231">
        <ele>20</ele>
        <time>2013-03-10T15:36:11Z</time>
      </trkpt>
      <trkpt lat="59.4341848259" lon="17.8810258818">
        <ele>20</ele>
        <time>2013-03-10T15:36:16Z</time>
      </trkpt>
      <trkpt lat="59.4339196226" lon="17.8813867225">
        <ele>20</ele>
        <time>2013-03-10T15:36:23Z</time>
      </trkpt>
      <trkpt lat="59.4338405813" lon="17.881507841">
        <ele>19.6</ele>
        <time>2013-03-10T15:36:25Z</time>
      </trkpt>
      <trkpt lat="59.4338047906" lon="17.881565257">
        <ele>19.2</ele>
        <time>2013-03-10T15:36:26Z</time>
      </trkpt>
      <trkpt lat="59.4337696704" lon="17.8816237627">
        <ele>18.8</ele>
        <time>2013-03-10T15:36:27Z</time>
      </trkpt>
      <trkpt lat="59.4337295211" lon="17.8816825198">
        <ele>18.2</ele>
        <time>2013-03-10T15:36:28Z</time>
      </trkpt>
      <trkpt lat="59.4336970832" lon="17.881753263">
        <ele>17.8</ele>
        <time>2013-03-10T15:36:29Z</time>
      </trkpt>
      <trkpt lat="59.4335739531" lon="17.8820920594">
        <ele>17.8</ele>
        <time>2013-03-10T15:36:34Z</time>
      </trkpt>
      <trkpt lat="59.4334041358" lon="17.8826927902">
        <ele>17.8</ele>
        <time>2013-03-10T15:36:42Z</time>
      </trkpt>
      <trkpt lat="59.4332935785" lon="17.8830594145">
        <ele>17.8</ele>
        <time>2013-03-10T15:36:48Z</time>
      </trkpt>
      <trkpt lat="59.4332392638" lon="17.8832325007">
        <ele>18.2</ele>
        <time>2013-03-10T15:36:51Z</time>
      </trkpt>
      <trkpt lat="59.4332157945" lon="17.8832961194">
        <ele>18.6</ele>
        <time>2013-03-10T15:36:52Z</time>
      </trkpt>
      <trkpt lat="59.4331940854" lon="17.8833633422">
        <ele>19.2</ele>
        <time>2013-03-10T15:36:53Z</time>
      </trkpt>
      <trkpt lat="59.4331691911" lon="17.8834298945">
        <ele>19.6</ele>
        <time>2013-03-10T15:36:54Z</time>
      </trkpt>
      <trkpt lat="59.433145638" lon="17.8834930102">
        <ele>20</ele>
        <time>2013-03-10T15:36:55Z</time>
      </trkpt>
      <trkpt lat="59.4330040677" lon="17.8837883884">
        <ele>20</ele>
        <time>2013-03-10T15:37:00Z</time>
      </trkpt>
      <trkpt lat="59.4328995454" lon="17.8840060663">
        <ele>20</ele>
        <time>2013-03-10T15:37:05Z</time>
      </trkpt>
      <trkpt lat="59.4328122898" lon="17.8842927273">
        <ele>20</ele>
        <time>2013-03-10T15:37:10Z</time>
      </trkpt>
      <trkpt lat="59.4328013095" lon="17.8843585252">
        <ele>20.8</ele>
        <time>2013-03-10T15:37:11Z</time>
      </trkpt>
      <trkpt lat="59.43278815" lon="17.8844284302">
        <ele>21.2</ele>
        <time>2013-03-10T15:37:12Z</time>
      </trkpt>
      <trkpt lat="59.4327749065" lon="17.8845091479">
        <ele>21.6</ele>
        <time>2013-03-10T15:37:13Z</time>
      </trkpt>
      <trkpt lat="59.4327580589" lon="17.8845950624">
        <ele>22</ele>
        <time>2013-03-10T15:37:14Z</time>
      </trkpt>
      <trkpt lat="59.4327267944" lon="17.8847660532">
        <ele>22</ele>
        <time>2013-03-10T15:37:16Z</time>
      </trkpt>
      <trkpt lat="59.432651525" lon="17.8851556439">
        <ele>22</ele>
        <time>2013-03-10T15:37:21Z</time>
      </trkpt>
      <trkpt lat="59.4325450749" lon="17.885358402">
        <ele>22</ele>
        <time>2013-03-10T15:37:25Z</time>
      </trkpt>
      <trkpt lat="59.4324498565" lon="17.8854505191">
        <ele>22</ele>
        <time>2013-03-10T15:37:27Z</time>
      </trkpt>
      <trkpt lat="59.4322988984" lon="17.8855746551">
        <ele>22</ele>
        <time>2013-03-10T15:37:30Z</time>
      </trkpt>
      <trkpt lat="59.4321139099" lon="17.8857298879">
        <ele>22</ele>
        <time>2013-03-10T15:37:34Z</time>
      </trkpt>
      <trkpt lat="59.4320099744" lon="17.8857764074">
        <ele>21.2</ele>
        <time>2013-03-10T15:37:36Z</time>
      </trkpt>
      <trkpt lat="59.4319599344" lon="17.8858060793">
        <ele>20.8</ele>
        <time>2013-03-10T15:37:37Z</time>
      </trkpt>
      <trkpt lat="59.4319098106" lon="17.8858297163">
        <ele>20.4</ele>
        <time>2013-03-10T15:37:38Z</time>
      </trkpt>
      <trkpt lat="59.4318537357" lon="17.8858561193">
        <ele>20</ele>
        <time>2013-03-10T15:37:39Z</time>
      </trkpt>
      <trkpt lat="59.431805456" lon="17.8859011301">
        <ele>20</ele>
        <time>2013-03-10T15:37:40Z</time>
      </trkpt>
      <trkpt lat="59.4317534882" lon="17.8859213304">
        <ele>20</ele>
        <time>2013-03-10T15:37:41Z</time>
      </trkpt>
      <trkpt lat="59.4316098224" lon="17.8860105139">
        <ele>19.4</ele>
        <time>2013-03-10T15:37:44Z</time>
      </trkpt>
      <trkpt lat="59.4315648116" lon="17.8860536806">
        <ele>19</ele>
        <time>2013-03-10T15:37:45Z</time>
      </trkpt>
      <trkpt lat="59.4315223992" lon="17.8860953387">
        <ele>18.4</ele>
        <time>2013-03-10T15:37:46Z</time>
      </trkpt>
      <trkpt lat="59.4314840939" lon="17.8861281119">
        <ele>18</ele>
        <time>2013-03-10T15:37:47Z</time>
      </trkpt>
      <trkpt lat="59.431446543" lon="17.8861556046">
        <ele>17.4</ele>
        <time>2013-03-10T15:37:48Z</time>
      </trkpt>
      <trkpt lat="59.4312399292" lon="17.8863089095">
        <ele>17</ele>
        <time>2013-03-10T15:37:54Z</time>
      </trkpt>
      <trkpt lat="59.4312109278" lon="17.8863430238">
        <ele>16.6</ele>
        <time>2013-03-10T15:37:55Z</time>
      </trkpt>
      <trkpt lat="59.4311794119" lon="17.8863731987">
        <ele>16.2</ele>
        <time>2013-03-10T15:37:56Z</time>
      </trkpt>
      <trkpt lat="59.4311531765" lon="17.8864071454">
        <ele>15.8</ele>
        <time>2013-03-10T15:37:57Z</time>
      </trkpt>
      <trkpt lat="59.4311271088" lon="17.886462885">
        <ele>15.4</ele>
        <time>2013-03-10T15:37:58Z</time>
      </trkpt>
      <trkpt lat="59.4310976884" lon="17.886534215">
        <ele>15.4</ele>
        <time>2013-03-10T15:37:59Z</time>
      </trkpt>
      <trkpt lat="59.4310685193" lon="17.8866019407">
        <ele>15.4</ele>
        <time>2013-03-10T15:38:00Z</time>
      </trkpt>
      <trkpt lat="59.4309883046" lon="17.8867657231">
        <ele>15</ele>
        <time>2013-03-10T15:38:03Z</time>
      </trkpt>
      <trkpt lat="59.4309562019" lon="17.8868200378">
        <ele>14.6</ele>
        <time>2013-03-10T15:38:04Z</time>
      </trkpt>
      <trkpt lat="59.4309238478" lon="17.886878292">
        <ele>14.2</ele>
        <time>2013-03-10T15:38:05Z</time>
      </trkpt>
      <trkpt lat="59.4308905716" lon="17.8869289186">
        <ele>13.8</ele>
        <time>2013-03-10T15:38:06Z</time>
      </trkpt>
      <trkpt lat="59.4308486621" lon="17.8869785395">
        <ele>13.2</ele>
        <time>2013-03-10T15:38:07Z</time>
      </trkpt>
      <trkpt lat="59.4307324052" lon="17.8870929524">
        <ele>13.2</ele>
        <time>2013-03-10T15:38:10Z</time>
      </trkpt>
      <trkpt lat="59.4306031563" lon="17.8870471034">
        <ele>12.8</ele>
        <time>2013-03-10T15:38:14Z</time>
      </trkpt>
      <trkpt lat="59.4305796031" lon="17.8870520488">
        <ele>12.4</ele>
        <time>2013-03-10T15:38:15Z</time>
      </trkpt>
      <trkpt lat="59.4305550442" lon="17.887053306">
        <ele>12</ele>
        <time>2013-03-10T15:38:16Z</time>
      </trkpt>
      <trkpt lat="59.430532413" lon="17.8870697346">
        <ele>11.6</ele>
        <time>2013-03-10T15:38:17Z</time>
      </trkpt>
      <trkpt lat="59.4305059262" lon="17.8871055253">
        <ele>11.2</ele>
        <time>2013-03-10T15:38:18Z</time>
      </trkpt>
      <trkpt lat="59.4304734883" lon="17.8871672999">
        <ele>11.2</ele>
        <time>2013-03-10T15:38:19Z</time>
      </trkpt>
      <trkpt lat="59.4304552995" lon="17.8872459221">
        <ele>11.2</ele>
        <time>2013-03-10T15:38:20Z</time>
      </trkpt>
      <trkpt lat="59.4303859812" lon="17.8874435673">
        <ele>11.2</ele>
        <time>2013-03-10T15:38:23Z</time>
      </trkpt>
      <trkpt lat="59.4302553912" lon="17.8878260334">
        <ele>11.2</ele>
        <time>2013-03-10T15:38:28Z</time>
      </trkpt>
      <trkpt lat="59.4301537188" lon="17.888029043">
        <ele>10.8</ele>
        <time>2013-03-10T15:38:31Z</time>
      </trkpt>
      <trkpt lat="59.4301227058" lon="17.8880903985">
        <ele>10.4</ele>
        <time>2013-03-10T15:38:32Z</time>
      </trkpt>
      <trkpt lat="59.4300954646" lon="17.8881566155">
        <ele>10</ele>
        <time>2013-03-10T15:38:33Z</time>
      </trkpt>
      <trkpt lat="59.4300677205" lon="17.8882266044">
        <ele>9.6</ele>
        <time>2013-03-10T15:38:34Z</time>
      </trkpt>
      <trkpt lat="59.4300419042" lon="17.8882967609">
        <ele>9</ele>
        <time>2013-03-10T15:38:35Z</time>
      </trkpt>
      <trkpt lat="59.4300250566" lon="17.8883796579">
        <ele>9</ele>
        <time>2013-03-10T15:38:36Z</time>
      </trkpt>
      <trkpt lat="59.4299379687" lon="17.8886369822">
        <ele>9</ele>
        <time>2013-03-10T15:38:39Z</time>
      </trkpt>
      <trkpt lat="59.429788687" lon="17.8890378047">
        <ele>9</ele>
        <time>2013-03-10T15:38:44Z</time>
      </trkpt>
      <trkpt lat="59.4297627031" lon="17.8891011718">
        <ele>9</ele>
        <time>2013-03-10T15:38:45Z</time>
      </trkpt>
      <trkpt lat="59.4297351267" lon="17.8891891818">
        <ele>9</ele>
        <time>2013-03-10T15:38:46Z</time>
      </trkpt>
      <trkpt lat="59.4296627071" lon="17.8894500265">
        <ele>9.6</ele>
        <time>2013-03-10T15:38:49Z</time>
      </trkpt>
      <trkpt lat="59.4296282575" lon="17.8895449096">
        <ele>10.4</ele>
        <time>2013-03-10T15:38:50Z</time>
      </trkpt>
      <trkpt lat="59.4296008487" lon="17.8896550478">
        <ele>10.8</ele>
        <time>2013-03-10T15:38:51Z</time>
      </trkpt>
      <trkpt lat="59.4295786366" lon="17.8897537866">
        <ele>11.2</ele>
        <time>2013-03-10T15:38:52Z</time>
      </trkpt>
      <trkpt lat="59.4295543291" lon="17.8898479991">
        <ele>11.8</ele>
        <time>2013-03-10T15:38:53Z</time>
      </trkpt>
      <trkpt lat="59.4295291834" lon="17.8899347518">
        <ele>12.2</ele>
        <time>2013-03-10T15:38:54Z</time>
      </trkpt>
      <trkpt lat="59.4295051274" lon="17.8900111947">
        <ele>12.6</ele>
        <time>2013-03-10T15:38:55Z</time>
      </trkpt>
      <trkpt lat="59.4294823286" lon="17.890089314">
        <ele>13.2</ele>
        <time>2013-03-10T15:38:56Z</time>
      </trkpt>
      <trkpt lat="59.4294621282" lon="17.8901599735">
        <ele>13.6</ele>
        <time>2013-03-10T15:38:57Z</time>
      </trkpt>
      <trkpt lat="59.429367748" lon="17.8904620571">
        <ele>13.6</ele>
        <time>2013-03-10T15:39:01Z</time>
      </trkpt>
      <trkpt lat="59.4293118407" lon="17.8906126799">
        <ele>13.6</ele>
        <time>2013-03-10T15:39:03Z</time>
      </trkpt>
      <trkpt lat="59.4291802449" lon="17.8909054596">
        <ele>13.6</ele>
        <time>2013-03-10T15:39:07Z</time>
      </trkpt>
      <trkpt lat="59.4289270277" lon="17.8914769376">
        <ele>13.6</ele>
        <time>2013-03-10T15:39:14Z</time>
      </trkpt>
      <trkpt lat="59.4286742296" lon="17.8920666043">
        <ele>13.6</ele>
        <time>2013-03-10T15:39:21Z</time>
      </trkpt>
      <trkpt lat="59.4283705534" lon="17.892781245">
        <ele>13.6</ele>
        <time>2013-03-10T15:39:30Z</time>
      </trkpt>
      <trkpt lat="59.4280822998" lon="17.8934367096">
        <ele>13.6</ele>
        <time>2013-03-10T15:39:39Z</time>
      </trkpt>
      <trkpt lat="59.4279621034" lon="17.8936469277">
        <ele>13.2</ele>
        <time>2013-03-10T15:39:42Z</time>
      </trkpt>
      <trkpt lat="59.4279170088" lon="17.8937030864">
        <ele>12.8</ele>
        <time>2013-03-10T15:39:43Z</time>
      </trkpt>
      <trkpt lat="59.4278756022" lon="17.8937617597">
        <ele>12.2</ele>
        <time>2013-03-10T15:39:44Z</time>
      </trkpt>
      <trkpt lat="59.427827993" lon="17.8938192595">
        <ele>11.8</ele>
        <time>2013-03-10T15:39:45Z</time>
      </trkpt>
      <trkpt lat="59.4277789589" lon="17.893878771">
        <ele>11.4</ele>
        <time>2013-03-10T15:39:46Z</time>
      </trkpt>
      <trkpt lat="59.4274773781" lon="17.894258974">
        <ele>11.4</ele>
        <time>2013-03-10T15:39:53Z</time>
      </trkpt>
      <trkpt lat="59.4271156153" lon="17.8947306235">
        <ele>11.4</ele>
        <time>2013-03-10T15:40:01Z</time>
      </trkpt>
      <trkpt lat="59.4268354922" lon="17.8950939789">
        <ele>11</ele>
        <time>2013-03-10T15:40:07Z</time>
      </trkpt>
      <trkpt lat="59.4267870448" lon="17.8951612017">
        <ele>10.6</ele>
        <time>2013-03-10T15:40:08Z</time>
      </trkpt>
      <trkpt lat="59.4267412797" lon="17.8952298495">
        <ele>10.2</ele>
        <time>2013-03-10T15:40:09Z</time>
      </trkpt>
      <trkpt lat="59.4267007951" lon="17.8953045322">
        <ele>9.8</ele>
        <time>2013-03-10T15:40:10Z</time>
      </trkpt>
      <trkpt lat="59.4266630765" lon="17.8953844955">
        <ele>9.2</ele>
        <time>2013-03-10T15:40:11Z</time>
      </trkpt>
      <trkpt lat="59.4265783355" lon="17.8956137405">
        <ele>9.2</ele>
        <time>2013-03-10T15:40:14Z</time>
      </trkpt>
      <trkpt lat="59.4264521879" lon="17.895993692">
        <ele>9.2</ele>
        <time>2013-03-10T15:40:20Z</time>
      </trkpt>
      <trkpt lat="59.4263460731" lon="17.8963883957">
        <ele>9.2</ele>
        <time>2013-03-10T15:40:26Z</time>
      </trkpt>
      <trkpt lat="59.4262869807" lon="17.8965617334">
        <ele>9.8</ele>
        <time>2013-03-10T15:40:29Z</time>
      </trkpt>
      <trkpt lat="59.4262670318" lon="17.896618395">
        <ele>10.2</ele>
        <time>2013-03-10T15:40:30Z</time>
      </trkpt>
      <trkpt lat="59.4262523634" lon="17.8966777389">
        <ele>10.6</ele>
        <time>2013-03-10T15:40:31Z</time>
      </trkpt>
      <trkpt lat="59.4262337556" lon="17.896730461">
        <ele>11</ele>
        <time>2013-03-10T15:40:32Z</time>
      </trkpt>
      <trkpt lat="59.4262158183" lon="17.8967830994">
        <ele>11.4</ele>
        <time>2013-03-10T15:40:33Z</time>
      </trkpt>
      <trkpt lat="59.4260672073" lon="17.8970674972">
        <ele>11.4</ele>
        <time>2013-03-10T15:40:39Z</time>
      </trkpt>
      <trkpt lat="59.4258322626" lon="17.8973783819">
        <ele>11.4</ele>
        <time>2013-03-10T15:40:46Z</time>
      </trkpt>
      <trkpt lat="59.4255134989" lon="17.8977824733">
        <ele>11.4</ele>
        <time>2013-03-10T15:40:54Z</time>
      </trkpt>
      <trkpt lat="59.425105049" lon="17.8983396182">
        <ele>11</ele>
        <time>2013-03-10T15:41:03Z</time>
      </trkpt>
      <trkpt lat="59.425062888" lon="17.8984039074">
        <ele>10.6</ele>
        <time>2013-03-10T15:41:04Z</time>
      </trkpt>
      <trkpt lat="59.4250278517" lon="17.8984697891">
        <ele>10.2</ele>
        <time>2013-03-10T15:41:05Z</time>
      </trkpt>
      <trkpt lat="59.4249953299" lon="17.8985419573">
        <ele>9.8</ele>
        <time>2013-03-10T15:41:06Z</time>
      </trkpt>
      <trkpt lat="59.4249611317" lon="17.8986100183">
        <ele>9.2</ele>
        <time>2013-03-10T15:41:07Z</time>
      </trkpt>
      <trkpt lat="59.4248617224" lon="17.8988090046">
        <ele>9.2</ele>
        <time>2013-03-10T15:41:10Z</time>
      </trkpt>
      <trkpt lat="59.4246986944" lon="17.8991005271">
        <ele>9.2</ele>
        <time>2013-03-10T15:41:15Z</time>
      </trkpt>
      <trkpt lat="59.4246731296" lon="17.8991695939">
        <ele>9.2</ele>
        <time>2013-03-10T15:41:16Z</time>
      </trkpt>
      <trkpt lat="59.4245873828" lon="17.8993782194">
        <ele>9.2</ele>
        <time>2013-03-10T15:41:19Z</time>
      </trkpt>
      <trkpt lat="59.4244990376" lon="17.8995648844">
        <ele>9.2</ele>
        <time>2013-03-10T15:41:22Z</time>
      </trkpt>
      <trkpt lat="59.4243298908" lon="17.8999678023">
        <ele>9.2</ele>
        <time>2013-03-10T15:41:29Z</time>
      </trkpt>
      <trkpt lat="59.4241460758" lon="17.9003269667">
        <ele>9.2</ele>
        <time>2013-03-10T15:41:36Z</time>
      </trkpt>
      <trkpt lat="59.4239890828" lon="17.9006930043">
        <ele>9.2</ele>
        <time>2013-03-10T15:41:42Z</time>
      </trkpt>
      <trkpt lat="59.4239357739" lon="17.9008145418">
        <ele>9.2</ele>
        <time>2013-03-10T15:41:44Z</time>
      </trkpt>
      <trkpt lat="59.4237877495" lon="17.9011019572">
        <ele>9.2</ele>
        <time>2013-03-10T15:41:49Z</time>
      </trkpt>
      <trkpt lat="59.4235340294" lon="17.9017278336">
        <ele>9.2</ele>
        <time>2013-03-10T15:41:59Z</time>
      </trkpt>
      <trkpt lat="59.4234300939" lon="17.9019502055">
        <ele>9.2</ele>
        <time>2013-03-10T15:42:04Z</time>
      </trkpt>
      <trkpt lat="59.4233435088" lon="17.9019049432">
        <ele>9.2</ele>
        <time>2013-03-10T15:42:08Z</time>
      </trkpt>
      <trkpt lat="59.4232130865" lon="17.9016332858">
        <ele>9.2</ele>
        <time>2013-03-10T15:42:13Z</time>
      </trkpt>
      <trkpt lat="59.4230524893" lon="17.901246964">
        <ele>9.2</ele>
        <time>2013-03-10T15:42:19Z</time>
      </trkpt>
      <trkpt lat="59.4229227375" lon="17.9009534299">
        <ele>9.2</ele>
        <time>2013-03-10T15:42:24Z</time>
      </trkpt>
      <trkpt lat="59.4228829234" lon="17.9009040605">
        <ele>9.2</ele>
        <time>2013-03-10T15:42:25Z</time>
      </trkpt>
      <trkpt lat="59.4227255114" lon="17.9007189882">
        <ele>9.2</ele>
        <time>2013-03-10T15:42:29Z</time>
      </trkpt>
      <trkpt lat="59.4225683507" lon="17.9006196626">
        <ele>9.2</ele>
        <time>2013-03-10T15:42:33Z</time>
      </trkpt>
      <trkpt lat="59.4224855376" lon="17.900605162">
        <ele>9.2</ele>
        <time>2013-03-10T15:42:35Z</time>
      </trkpt>
      <trkpt lat="59.4224401077" lon="17.9006078442">
        <ele>9.2</ele>
        <time>2013-03-10T15:42:36Z</time>
      </trkpt>
      <trkpt lat="59.4223577974" lon="17.9006129571">
        <ele>9.6</ele>
        <time>2013-03-10T15:42:38Z</time>
      </trkpt>
      <trkpt lat="59.4223168099" lon="17.9006141306">
        <ele>10.2</ele>
        <time>2013-03-10T15:42:39Z</time>
      </trkpt>
      <trkpt lat="59.4222760739" lon="17.9006131248">
        <ele>10.6</ele>
        <time>2013-03-10T15:42:40Z</time>
      </trkpt>
      <trkpt lat="59.4222372657" lon="17.9005996299">
        <ele>11</ele>
        <time>2013-03-10T15:42:41Z</time>
      </trkpt>
      <trkpt lat="59.4222017264" lon="17.900596361">
        <ele>11.4</ele>
        <time>2013-03-10T15:42:42Z</time>
      </trkpt>
      <trkpt lat="59.4219716433" lon="17.9005138831">
        <ele>11.4</ele>
        <time>2013-03-10T15:42:48Z</time>
      </trkpt>
      <trkpt lat="59.421804592" lon="17.9004021523">
        <ele>11.8</ele>
        <time>2013-03-10T15:42:52Z</time>
      </trkpt>
      <trkpt lat="59.421761509" lon="17.9003791021">
        <ele>12.2</ele>
        <time>2013-03-10T15:42:53Z</time>
      </trkpt>
      <trkpt lat="59.4217210245" lon="17.9003621707">
        <ele>12.8</ele>
        <time>2013-03-10T15:42:54Z</time>
      </trkpt>
      <trkpt lat="59.4216799532" lon="17.9003455745">
        <ele>13.6</ele>
        <time>2013-03-10T15:42:55Z</time>
      </trkpt>
      <trkpt lat="59.4215721619" lon="17.9002692992">
        <ele>13.6</ele>
        <time>2013-03-10T15:42:58Z</time>
      </trkpt>
      <trkpt lat="59.4215137401" lon="17.9001672077">
        <ele>13.6</ele>
        <time>2013-03-10T15:43:00Z</time>
      </trkpt>
      <trkpt lat="59.4214001653" lon="17.8998958856">
        <ele>13.6</ele>
        <time>2013-03-10T15:43:04Z</time>
      </trkpt>
      <trkpt lat="59.4213479461" lon="17.8997102265">
        <ele>13.6</ele>
        <time>2013-03-10T15:43:06Z</time>
      </trkpt>
      <trkpt lat="59.4211508876" lon="17.8991475496">
        <ele>13.6</ele>
        <time>2013-03-10T15:43:13Z</time>
      </trkpt>
      <trkpt lat="59.4211167733" lon="17.8990688435">
        <ele>13.6</ele>
        <time>2013-03-10T15:43:14Z</time>
      </trkpt>
      <trkpt lat="59.4210501372" lon="17.8989027143">
        <ele>13.6</ele>
        <time>2013-03-10T15:43:16Z</time>
      </trkpt>
      <trkpt lat="59.4209508955" lon="17.8986563702">
        <ele>13.6</ele>
        <time>2013-03-10T15:43:19Z</time>
      </trkpt>
      <trkpt lat="59.4208887018" lon="17.8985055798">
        <ele>13.6</ele>
        <time>2013-03-10T15:43:21Z</time>
      </trkpt>
      <trkpt lat="59.420811253" lon="17.8983687034">
        <ele>13.6</ele>
        <time>2013-03-10T15:43:23Z</time>
      </trkpt>
      <trkpt lat="59.420733469" lon="17.8982509377">
        <ele>13.6</ele>
        <time>2013-03-10T15:43:25Z</time>
      </trkpt>
      <trkpt lat="59.4206480574" lon="17.8981550488">
        <ele>13.6</ele>
        <time>2013-03-10T15:43:27Z</time>
      </trkpt>
      <trkpt lat="59.4205680103" lon="17.8980294879">
        <ele>13.6</ele>
        <time>2013-03-10T15:43:29Z</time>
      </trkpt>
      <trkpt lat="59.4204253504" lon="17.8976669707">
        <ele>13.6</ele>
        <time>2013-03-10T15:43:35Z</time>
      </trkpt>
      <trkpt lat="59.420404228" lon="17.8975928747">
        <ele>13.6</ele>
        <time>2013-03-10T15:43:36Z</time>
      </trkpt>
      <trkpt lat="59.42031714" lon="17.8973477042">
        <ele>13.6</ele>
        <time>2013-03-10T15:43:39Z</time>
      </trkpt>
      <trkpt lat="59.4201866339" lon="17.8969636455">
        <ele>13.2</ele>
        <time>2013-03-10T15:43:43Z</time>
      </trkpt>
      <trkpt lat="59.4201532739" lon="17.8968621407">
        <ele>12.8</ele>
        <time>2013-03-10T15:43:44Z</time>
      </trkpt>
      <trkpt lat="59.4201230991" lon="17.896755942">
        <ele>11.8</ele>
        <time>2013-03-10T15:43:45Z</time>
      </trkpt>
      <trkpt lat="59.4200959417" lon="17.8966431217">
        <ele>11.4</ele>
        <time>2013-03-10T15:43:46Z</time>
      </trkpt>
      <trkpt lat="59.4200497574" lon="17.8964013877">
        <ele>11</ele>
        <time>2013-03-10T15:43:48Z</time>
      </trkpt>
      <trkpt lat="59.4200273778" lon="17.8962811912">
        <ele>10.6</ele>
        <time>2013-03-10T15:43:49Z</time>
      </trkpt>
      <trkpt lat="59.4200004719" lon="17.8961569715">
        <ele>10.2</ele>
        <time>2013-03-10T15:43:50Z</time>
      </trkpt>
      <trkpt lat="59.4199790142" lon="17.8960416365">
        <ele>9.8</ele>
        <time>2013-03-10T15:43:51Z</time>
      </trkpt>
      <trkpt lat="59.4199600711" lon="17.8959294029">
        <ele>9.2</ele>
        <time>2013-03-10T15:43:52Z</time>
      </trkpt>
      <trkpt lat="59.419829984" lon="17.8952335375">
        <ele>9.2</ele>
        <time>2013-03-10T15:43:59Z</time>
      </trkpt>
      <trkpt lat="59.4197669521" lon="17.8949009437">
        <ele>9.2</ele>
        <time>2013-03-10T15:44:03Z</time>
      </trkpt>
      <trkpt lat="59.4197420579" lon="17.8947435317">
        <ele>9.2</ele>
        <time>2013-03-10T15:44:05Z</time>
      </trkpt>
      <trkpt lat="59.419729485" lon="17.8946731237">
        <ele>9.2</ele>
        <time>2013-03-10T15:44:06Z</time>
      </trkpt>
      <trkpt lat="59.4196725719" lon="17.8944106026">
        <ele>9.6</ele>
        <time>2013-03-10T15:44:10Z</time>
      </trkpt>
      <trkpt lat="59.4196555567" lon="17.8943464811">
        <ele>10</ele>
        <time>2013-03-10T15:44:11Z</time>
      </trkpt>
      <trkpt lat="59.4196407207" lon="17.8942813537">
        <ele>10.4</ele>
        <time>2013-03-10T15:44:12Z</time>
      </trkpt>
      <trkpt lat="59.419629489" lon="17.894205246">
        <ele>10.8</ele>
        <time>2013-03-10T15:44:13Z</time>
      </trkpt>
      <trkpt lat="59.4196151559" lon="17.8941317368">
        <ele>11.2</ele>
        <time>2013-03-10T15:44:14Z</time>
      </trkpt>
      <trkpt lat="59.419560925" lon="17.8938661144">
        <ele>11.2</ele>
        <time>2013-03-10T15:44:18Z</time>
      </trkpt>
      <trkpt lat="59.4195356117" lon="17.8934276572">
        <ele>11.2</ele>
        <time>2013-03-10T15:44:24Z</time>
      </trkpt>
      <trkpt lat="59.4195800357" lon="17.8930700015">
        <ele>11.6</ele>
        <time>2013-03-10T15:44:29Z</time>
      </trkpt>
      <trkpt lat="59.4195952908" lon="17.8930036169">
        <ele>12.2</ele>
        <time>2013-03-10T15:44:30Z</time>
      </trkpt>
      <trkpt lat="59.4196134795" lon="17.8929419261">
        <ele>12.6</ele>
        <time>2013-03-10T15:44:31Z</time>
      </trkpt>
      <trkpt lat="59.4196335961" lon="17.8928795647">
        <ele>13</ele>
        <time>2013-03-10T15:44:32Z</time>
      </trkpt>
      <trkpt lat="59.4196578198" lon="17.8928161976">
        <ele>13.4</ele>
        <time>2013-03-10T15:44:33Z</time>
      </trkpt>
      <trkpt lat="59.4196867373" lon="17.8927529142">
        <ele>13.4</ele>
        <time>2013-03-10T15:44:34Z</time>
      </trkpt>
      <trkpt lat="59.4198576443" lon="17.8924563626">
        <ele>13.4</ele>
        <time>2013-03-10T15:44:39Z</time>
      </trkpt>
      <trkpt lat="59.419896201" lon="17.8924081667">
        <ele>13.4</ele>
        <time>2013-03-10T15:44:40Z</time>
      </trkpt>
      <trkpt lat="59.4201484962" lon="17.8920570489">
        <ele>13.4</ele>
        <time>2013-03-10T15:44:47Z</time>
      </trkpt>
      <trkpt lat="59.4203569541" lon="17.8917276402">
        <ele>13.4</ele>
        <time>2013-03-10T15:44:54Z</time>
      </trkpt>
      <trkpt lat="59.4205681779" lon="17.8914004947">
        <ele>13.4</ele>
        <time>2013-03-10T15:45:00Z</time>
      </trkpt>
      <trkpt lat="59.4206005321" lon="17.8913384686">
        <ele>13.4</ele>
        <time>2013-03-10T15:45:01Z</time>
      </trkpt>
      <trkpt lat="59.4207039647" lon="17.8910142567">
        <ele>13.4</ele>
        <time>2013-03-10T15:45:05Z</time>
      </trkpt>
      <trkpt lat="59.4207213991" lon="17.8909206309">
        <ele>13.4</ele>
        <time>2013-03-10T15:45:06Z</time>
      </trkpt>
      <trkpt lat="59.4207872808" lon="17.8903155415">
        <ele>13.4</ele>
        <time>2013-03-10T15:45:12Z</time>
      </trkpt>
      <trkpt lat="59.4207974229" lon="17.8902176409">
        <ele>13.4</ele>
        <time>2013-03-10T15:45:13Z</time>
      </trkpt>
      <trkpt lat="59.4208250832" lon="17.8900306407">
        <ele>12.8</ele>
        <time>2013-03-10T15:45:15Z</time>
      </trkpt>
      <trkpt lat="59.420847379" lon="17.8899518509">
        <ele>12.4</ele>
        <time>2013-03-10T15:45:16Z</time>
      </trkpt>
      <trkpt lat="59.4208751231" lon="17.8898765814">
        <ele>12</ele>
        <time>2013-03-10T15:45:17Z</time>
      </trkpt>
      <trkpt lat="59.420903873" lon="17.8898000547">
        <ele>11.6</ele>
        <time>2013-03-10T15:45:18Z</time>
      </trkpt>
      <trkpt lat="59.4209299407" lon="17.8897227736">
        <ele>11</ele>
        <time>2013-03-10T15:45:19Z</time>
      </trkpt>
      <trkpt lat="59.4210413362" lon="17.8893952927">
        <ele>11</ele>
        <time>2013-03-10T15:45:23Z</time>
      </trkpt>
      <trkpt lat="59.4212364668" lon="17.8889485375">
        <ele>11</ele>
        <time>2013-03-10T15:45:29Z</time>
      </trkpt>
      <trkpt lat="59.4212652167" lon="17.8888724298">
        <ele>11</ele>
        <time>2013-03-10T15:45:30Z</time>
      </trkpt>
      <trkpt lat="59.4212958107" lon="17.8888005969">
        <ele>10.6</ele>
        <time>2013-03-10T15:45:31Z</time>
      </trkpt>
      <trkpt lat="59.4213287515" lon="17.8887343799">
        <ele>10.2</ele>
        <time>2013-03-10T15:45:32Z</time>
      </trkpt>
      <trkpt lat="59.4213626144" lon="17.8886669894">
        <ele>9.8</ele>
        <time>2013-03-10T15:45:33Z</time>
      </trkpt>
      <trkpt lat="59.4213932084" lon="17.888594486">
        <ele>9.4</ele>
        <time>2013-03-10T15:45:34Z</time>
      </trkpt>
      <trkpt lat="59.4214210363" lon="17.8885145227">
        <ele>8.8</ele>
        <time>2013-03-10T15:45:35Z</time>
      </trkpt>
      <trkpt lat="59.4215020054" lon="17.8882695197">
        <ele>8.8</ele>
        <time>2013-03-10T15:45:38Z</time>
      </trkpt>
      <trkpt lat="59.4215636962" lon="17.8880186495">
        <ele>8.8</ele>
        <time>2013-03-10T15:45:41Z</time>
      </trkpt>
      <trkpt lat="59.4216118083" lon="17.887746573">
        <ele>8.8</ele>
        <time>2013-03-10T15:45:44Z</time>
      </trkpt>
      <trkpt lat="59.4216569029" lon="17.8874852253">
        <ele>8.8</ele>
        <time>2013-03-10T15:45:47Z</time>
      </trkpt>
      <trkpt lat="59.4217987247" lon="17.88688198">
        <ele>8.8</ele>
        <time>2013-03-10T15:45:55Z</time>
      </trkpt>
      <trkpt lat="59.4218460824" lon="17.8866591053">
        <ele>8.8</ele>
        <time>2013-03-10T15:45:58Z</time>
      </trkpt>
      <trkpt lat="59.4218635168" lon="17.8864148567">
        <ele>8.8</ele>
        <time>2013-03-10T15:46:01Z</time>
      </trkpt>
      <trkpt lat="59.4218636844" lon="17.8863369889">
        <ele>8.8</ele>
        <time>2013-03-10T15:46:02Z</time>
      </trkpt>
      <trkpt lat="59.4218533747" lon="17.8858972744">
        <ele>8.8</ele>
        <time>2013-03-10T15:46:08Z</time>
      </trkpt>
      <trkpt lat="59.4218288157" lon="17.8856606534">
        <ele>8.8</ele>
        <time>2013-03-10T15:46:12Z</time>
      </trkpt>
      <trkpt lat="59.4218313303" lon="17.885623773">
        <ele>8.8</ele>
        <time>2013-03-10T15:46:13Z</time>
      </trkpt>
      <trkpt lat="59.4218470044" lon="17.8855923409">
        <ele>8.8</ele>
        <time>2013-03-10T15:46:16Z</time>
      </trkpt>
      <trkpt lat="59.4218618404" lon="17.8855841266">
        <ele>8.8</ele>
        <time>2013-03-10T15:46:20Z</time>
      </trkpt>
      <trkpt lat="59.4218246248" lon="17.8857030658">
        <ele>11</ele>
        <time>2013-03-10T15:46:42Z</time>
      </trkpt>
      <trkpt lat="59.4217583239" lon="17.8855638424">
        <ele>11</ele>
        <time>2013-03-10T15:46:49Z</time>
      </trkpt>
      <trkpt lat="59.421693448" lon="17.8855280517">
        <ele>11</ele>
        <time>2013-03-10T15:46:55Z</time>
      </trkpt>
      <trkpt lat="59.4216150773" lon="17.8854947756">
        <ele>11</ele>
        <time>2013-03-10T15:47:02Z</time>
      </trkpt>
      <trkpt lat="59.421511477" lon="17.8853508583">
        <ele>11</ele>
        <time>2013-03-10T15:49:33Z</time>
      </trkpt>
      <trkpt lat="59.4214256463" lon="17.8851971343">
        <ele>11</ele>
        <time>2013-03-10T15:49:38Z</time>
      </trkpt>
      <trkpt lat="59.4214050268" lon="17.8851473458">
        <ele>11</ele>
        <time>2013-03-10T15:49:39Z</time>
      </trkpt>
      <trkpt lat="59.4213943818" lon="17.8850855712">
        <ele>11</ele>
        <time>2013-03-10T15:49:40Z</time>
      </trkpt>
      <trkpt lat="59.4213886821" lon="17.8849321824">
        <ele>11</ele>
        <time>2013-03-10T15:49:42Z</time>
      </trkpt>
      <trkpt lat="59.4214171806" lon="17.8846938012">
        <ele>11</ele>
        <time>2013-03-10T15:49:45Z</time>
      </trkpt>
      <trkpt lat="59.4214360399" lon="17.8845466988">
        <ele>11</ele>
        <time>2013-03-10T15:49:47Z</time>
      </trkpt>
      <trkpt lat="59.4214439189" lon="17.8844797275">
        <ele>11</ele>
        <time>2013-03-10T15:49:48Z</time>
      </trkpt>
      <trkpt lat="59.4214865827" lon="17.8841182161">
        <ele>11</ele>
        <time>2013-03-10T15:49:53Z</time>
      </trkpt>
      <trkpt lat="59.4215609302" lon="17.8835348359">
        <ele>11</ele>
        <time>2013-03-10T15:50:00Z</time>
      </trkpt>
      <trkpt lat="59.4215724972" lon="17.8834559622">
        <ele>11</ele>
        <time>2013-03-10T15:50:01Z</time>
      </trkpt>
      <trkpt lat="59.4216132332" lon="17.8831952013">
        <ele>11</ele>
        <time>2013-03-10T15:50:04Z</time>
      </trkpt>
      <trkpt lat="59.4216355291" lon="17.8830326762">
        <ele>11</ele>
        <time>2013-03-10T15:50:06Z</time>
      </trkpt>
      <trkpt lat="59.4216540531" lon="17.8828600091">
        <ele>11</ele>
        <time>2013-03-10T15:50:08Z</time>
      </trkpt>
      <trkpt lat="59.421681881" lon="17.8825486215">
        <ele>11</ele>
        <time>2013-03-10T15:50:12Z</time>
      </trkpt>
      <trkpt lat="59.421696214" lon="17.8823916285">
        <ele>11</ele>
        <time>2013-03-10T15:50:14Z</time>
      </trkpt>
      <trkpt lat="59.4217077811" lon="17.8822281815">
        <ele>11</ele>
        <time>2013-03-10T15:50:16Z</time>
      </trkpt>
      <trkpt lat="59.4217157439" lon="17.8820531674">
        <ele>11</ele>
        <time>2013-03-10T15:50:18Z</time>
      </trkpt>
      <trkpt lat="59.4217218627" lon="17.8819571947">
        <ele>11</ele>
        <time>2013-03-10T15:50:19Z</time>
      </trkpt>
      <trkpt lat="59.4217779376" lon="17.8812669452">
        <ele>11</ele>
        <time>2013-03-10T15:50:27Z</time>
      </trkpt>
      <trkpt lat="59.4218436517" lon="17.8806824753">
        <ele>11</ele>
        <time>2013-03-10T15:50:34Z</time>
      </trkpt>
      <trkpt lat="59.4219094496" lon="17.8801747836">
        <ele>11</ele>
        <time>2013-03-10T15:50:40Z</time>
      </trkpt>
      <trkpt lat="59.4219220224" lon="17.8800871928">
        <ele>11</ele>
        <time>2013-03-10T15:50:41Z</time>
      </trkpt>
      <trkpt lat="59.4220152292" lon="17.8792800996">
        <ele>11</ele>
        <time>2013-03-10T15:50:50Z</time>
      </trkpt>
      <trkpt lat="59.4220987967" lon="17.8787298279">
        <ele>11</ele>
        <time>2013-03-10T15:50:56Z</time>
      </trkpt>
      <trkpt lat="59.4221393651" lon="17.8785540594">
        <ele>11</ele>
        <time>2013-03-10T15:50:58Z</time>
      </trkpt>
      <trkpt lat="59.4222376848" lon="17.8782461084">
        <ele>11</ele>
        <time>2013-03-10T15:51:02Z</time>
      </trkpt>
      <trkpt lat="59.4224298817" lon="17.8777494809">
        <ele>11</ele>
        <time>2013-03-10T15:51:09Z</time>
      </trkpt>
      <trkpt lat="59.4225782414" lon="17.8772641689">
        <ele>11</ele>
        <time>2013-03-10T15:51:16Z</time>
      </trkpt>
      <trkpt lat="59.4226447937" lon="17.8770057549">
        <ele>11</ele>
        <time>2013-03-10T15:51:21Z</time>
      </trkpt>
      <trkpt lat="59.42264186" lon="17.8769753286">
        <ele>11</ele>
        <time>2013-03-10T15:51:22Z</time>
      </trkpt>
      <trkpt lat="59.4226157085" lon="17.8769541224">
        <ele>11</ele>
        <time>2013-03-10T15:51:24Z</time>
      </trkpt>
      <trkpt lat="59.4225740504" lon="17.8768164916">
        <ele>11</ele>
        <time>2013-03-10T15:51:29Z</time>
      </trkpt>
      <trkpt lat="59.4225758106" lon="17.8765241309">
        <ele>11</ele>
        <time>2013-03-10T15:51:34Z</time>
      </trkpt>
      <trkpt lat="59.4225939155" lon="17.8764600932">
        <ele>11</ele>
        <time>2013-03-10T15:51:35Z</time>
      </trkpt>
      <trkpt lat="59.4227032993" lon="17.8760988333">
        <ele>11</ele>
        <time>2013-03-10T15:51:40Z</time>
      </trkpt>
      <trkpt lat="59.4227230806" lon="17.8760239829">
        <ele>11</ele>
        <time>2013-03-10T15:51:41Z</time>
      </trkpt>
      <trkpt lat="59.4228215679" lon="17.875655347">
        <ele>11</ele>
        <time>2013-03-10T15:51:46Z</time>
      </trkpt>
      <trkpt lat="59.4228469651" lon="17.8754993598">
        <ele>11.4</ele>
        <time>2013-03-10T15:51:48Z</time>
      </trkpt>
      <trkpt lat="59.4228584483" lon="17.8754205699">
        <ele>11.8</ele>
        <time>2013-03-10T15:51:49Z</time>
      </trkpt>
      <trkpt lat="59.4228676684" lon="17.8753387626">
        <ele>12.4</ele>
        <time>2013-03-10T15:51:50Z</time>
      </trkpt>
      <trkpt lat="59.4228721108" lon="17.8752545245">
        <ele>12.8</ele>
        <time>2013-03-10T15:51:51Z</time>
      </trkpt>
      <trkpt lat="59.422872027" lon="17.8751705379">
        <ele>13.2</ele>
        <time>2013-03-10T15:51:52Z</time>
      </trkpt>
      <trkpt lat="59.4228679198" lon="17.8750877247">
        <ele>13.2</ele>
        <time>2013-03-10T15:51:53Z</time>
      </trkpt>
      <trkpt lat="59.4228469651" lon="17.8749200867">
        <ele>13.2</ele>
        <time>2013-03-10T15:51:55Z</time>
      </trkpt>
      <trkpt lat="59.4228019543" lon="17.8746753352">
        <ele>13.2</ele>
        <time>2013-03-10T15:51:58Z</time>
      </trkpt>
      <trkpt lat="59.4226397645" lon="17.8742828108">
        <ele>13.2</ele>
        <time>2013-03-10T15:52:03Z</time>
      </trkpt>
      <trkpt lat="59.4223955998" lon="17.873874277">
        <ele>13.2</ele>
        <time>2013-03-10T15:52:09Z</time>
      </trkpt>
      <trkpt lat="59.4220682028" lon="17.873356108">
        <ele>13.2</ele>
        <time>2013-03-10T15:52:17Z</time>
      </trkpt>
      <trkpt lat="59.4218494352" lon="17.8729306427">
        <ele>13.2</ele>
        <time>2013-03-10T15:52:23Z</time>
      </trkpt>
      <trkpt lat="59.421742985" lon="17.872571143">
        <ele>13.2</ele>
        <time>2013-03-10T15:52:27Z</time>
      </trkpt>
      <trkpt lat="59.4217294064" lon="17.8724749188">
        <ele>13.2</ele>
        <time>2013-03-10T15:52:28Z</time>
      </trkpt>
      <trkpt lat="59.4217087869" lon="17.8722786147">
        <ele>13.2</ele>
        <time>2013-03-10T15:52:30Z</time>
      </trkpt>
      <trkpt lat="59.4216647819" lon="17.871770923">
        <ele>13.2</ele>
        <time>2013-03-10T15:52:35Z</time>
      </trkpt>
      <trkpt lat="59.421629997" lon="17.8709970222">
        <ele>13.2</ele>
        <time>2013-03-10T15:52:42Z</time>
      </trkpt>
      <trkpt lat="59.4216351938" lon="17.870686389">
        <ele>13.2</ele>
        <time>2013-03-10T15:52:45Z</time>
      </trkpt>
      <trkpt lat="59.4216754269" lon="17.8703920167">
        <ele>13.2</ele>
        <time>2013-03-10T15:52:48Z</time>
      </trkpt>
      <trkpt lat="59.4218237866" lon="17.8698073792">
        <ele>13.2</ele>
        <time>2013-03-10T15:52:55Z</time>
      </trkpt>
      <trkpt lat="59.4219689611" lon="17.8693001066">
        <ele>13.2</ele>
        <time>2013-03-10T15:53:02Z</time>
      </trkpt>
      <trkpt lat="59.4220877326" lon="17.8689023854">
        <ele>13.2</ele>
        <time>2013-03-10T15:53:09Z</time>
      </trkpt>
      <trkpt lat="59.4221223498" lon="17.8687846197">
        <ele>14</ele>
        <time>2013-03-10T15:53:11Z</time>
      </trkpt>
      <trkpt lat="59.4221379402" lon="17.8687261141">
        <ele>14.4</ele>
        <time>2013-03-10T15:53:12Z</time>
      </trkpt>
      <trkpt lat="59.42215286" lon="17.8686605676">
        <ele>14.8</ele>
        <time>2013-03-10T15:53:13Z</time>
      </trkpt>
      <trkpt lat="59.4221681988" lon="17.868588148">
        <ele>15.2</ele>
        <time>2013-03-10T15:53:14Z</time>
      </trkpt>
      <trkpt lat="59.422202397" lon="17.8684275508">
        <ele>15.2</ele>
        <time>2013-03-10T15:53:16Z</time>
      </trkpt>
      <trkpt lat="59.4222357569" lon="17.8682476752">
        <ele>15.6</ele>
        <time>2013-03-10T15:53:18Z</time>
      </trkpt>
      <trkpt lat="59.4222480783" lon="17.8681526245">
        <ele>16</ele>
        <time>2013-03-10T15:53:19Z</time>
      </trkpt>
      <trkpt lat="59.4222569632" lon="17.8680564002">
        <ele>16.4</ele>
        <time>2013-03-10T15:53:20Z</time>
      </trkpt>
      <trkpt lat="59.4222629143" lon="17.8679646184">
        <ele>16.8</ele>
        <time>2013-03-10T15:53:21Z</time>
      </trkpt>
      <trkpt lat="59.4222624114" lon="17.8678758541">
        <ele>17.2</ele>
        <time>2013-03-10T15:53:22Z</time>
      </trkpt>
      <trkpt lat="59.4222601483" lon="17.8677873413">
        <ele>17.2</ele>
        <time>2013-03-10T15:53:23Z</time>
      </trkpt>
      <trkpt lat="59.4222442227" lon="17.8675187852">
        <ele>17.2</ele>
        <time>2013-03-10T15:53:26Z</time>
      </trkpt>
      <trkpt lat="59.4222057497" lon="17.8671846826">
        <ele>17.2</ele>
        <time>2013-03-10T15:53:30Z</time>
      </trkpt>
      <trkpt lat="59.4221314023" lon="17.8666836965">
        <ele>17.2</ele>
        <time>2013-03-10T15:53:36Z</time>
      </trkpt>
      <trkpt lat="59.4221054184" lon="17.8665210038">
        <ele>17.2</ele>
        <time>2013-03-10T15:53:38Z</time>
      </trkpt>
      <trkpt lat="59.42204356" lon="17.866210622">
        <ele>17.2</ele>
        <time>2013-03-10T15:53:42Z</time>
      </trkpt>
      <trkpt lat="59.4219990521" lon="17.8660809541">
        <ele>17.2</ele>
        <time>2013-03-10T15:53:44Z</time>
      </trkpt>
      <trkpt lat="59.4218339287" lon="17.8656577519">
        <ele>17.2</ele>
        <time>2013-03-10T15:53:51Z</time>
      </trkpt>
      <trkpt lat="59.4217896722" lon="17.8655426684">
        <ele>17.6</ele>
        <time>2013-03-10T15:53:53Z</time>
      </trkpt>
      <trkpt lat="59.4217648618" lon="17.8654843304">
        <ele>18.2</ele>
        <time>2013-03-10T15:53:54Z</time>
      </trkpt>
      <trkpt lat="59.4217372015" lon="17.8654225558">
        <ele>18.6</ele>
        <time>2013-03-10T15:53:55Z</time>
      </trkpt>
      <trkpt lat="59.421716163" lon="17.8653632958">
        <ele>19</ele>
        <time>2013-03-10T15:53:56Z</time>
      </trkpt>
      <trkpt lat="59.4217001535" lon="17.8653081429">
        <ele>19.4</ele>
        <time>2013-03-10T15:53:57Z</time>
      </trkpt>
      <trkpt lat="59.4216651172" lon="17.8650197217">
        <ele>20</ele>
        <time>2013-03-10T15:54:01Z</time>
      </trkpt>
      <trkpt lat="59.4216647819" lon="17.8649433626">
        <ele>20.4</ele>
        <time>2013-03-10T15:54:02Z</time>
      </trkpt>
      <trkpt lat="59.4216678832" lon="17.8648692666">
        <ele>20.8</ele>
        <time>2013-03-10T15:54:03Z</time>
      </trkpt>
      <trkpt lat="59.4216757622" lon="17.8647912311">
        <ele>21.4</ele>
        <time>2013-03-10T15:54:04Z</time>
      </trkpt>
      <trkpt lat="59.4216896762" lon="17.8647191468">
        <ele>21.8</ele>
        <time>2013-03-10T15:54:05Z</time>
      </trkpt>
      <trkpt lat="59.4217288196" lon="17.8645924962">
        <ele>21.8</ele>
        <time>2013-03-10T15:54:07Z</time>
      </trkpt>
      <trkpt lat="59.4218898359" lon="17.8643105291">
        <ele>21.8</ele>
        <time>2013-03-10T15:54:12Z</time>
      </trkpt>
      <trkpt lat="59.4219717271" lon="17.8642076832">
        <ele>21.8</ele>
        <time>2013-03-10T15:54:14Z</time>
      </trkpt>
      <trkpt lat="59.4221515189" lon="17.8640280591">
        <ele>21.8</ele>
        <time>2013-03-10T15:54:18Z</time>
      </trkpt>
      <trkpt lat="59.422236176" lon="17.8639348524">
        <ele>21.8</ele>
        <time>2013-03-10T15:54:20Z</time>
      </trkpt>
      <trkpt lat="59.4223880561" lon="17.8637252211">
        <ele>21.8</ele>
        <time>2013-03-10T15:54:24Z</time>
      </trkpt>
      <trkpt lat="59.4225459711" lon="17.8635212894">
        <ele>21.8</ele>
        <time>2013-03-10T15:54:28Z</time>
      </trkpt>
      <trkpt lat="59.4225769003" lon="17.8634535637">
        <ele>21.8</ele>
        <time>2013-03-10T15:54:29Z</time>
      </trkpt>
      <trkpt lat="59.4226524212" lon="17.8631166113">
        <ele>21.8</ele>
        <time>2013-03-10T15:54:33Z</time>
      </trkpt>
      <trkpt lat="59.4226323046" lon="17.8627449579">
        <ele>21.8</ele>
        <time>2013-03-10T15:54:37Z</time>
      </trkpt>
      <trkpt lat="59.4225680155" lon="17.862375819">
        <ele>21.8</ele>
        <time>2013-03-10T15:54:41Z</time>
      </trkpt>
      <trkpt lat="59.4225357451" lon="17.8621934288">
        <ele>21.8</ele>
        <time>2013-03-10T15:54:43Z</time>
      </trkpt>
      <trkpt lat="59.4225004573" lon="17.86201414">
        <ele>21.8</ele>
        <time>2013-03-10T15:54:45Z</time>
      </trkpt>
      <trkpt lat="59.4224679356" lon="17.8618213563">
        <ele>21.8</ele>
        <time>2013-03-10T15:54:47Z</time>
      </trkpt>
      <trkpt lat="59.4224204102" lon="17.8616485215">
        <ele>21.8</ele>
        <time>2013-03-10T15:54:49Z</time>
      </trkpt>
      <trkpt lat="59.4223567078" lon="17.8614583362">
        <ele>21.8</ele>
        <time>2013-03-10T15:54:52Z</time>
      </trkpt>
      <trkpt lat="59.4223520977" lon="17.8612996668">
        <ele>21.8</ele>
        <time>2013-03-10T15:54:56Z</time>
      </trkpt>
      <trkpt lat="59.4223935043" lon="17.8612103158">
        <ele>21.8</ele>
        <time>2013-03-10T15:55:02Z</time>
      </trkpt>
      <trkpt lat="59.4224780777" lon="17.8610936397">
        <ele>21.8</ele>
        <time>2013-03-10T15:55:07Z</time>
      </trkpt>
      <trkpt lat="59.4226610546" lon="17.8609111658">
        <ele>21.8</ele>
        <time>2013-03-10T15:55:13Z</time>
      </trkpt>
      <trkpt lat="59.4228798221" lon="17.860761465">
        <ele>21.8</ele>
        <time>2013-03-10T15:55:19Z</time>
      </trkpt>
      <trkpt lat="59.4229447819" lon="17.8606979302">
        <ele>21.8</ele>
        <time>2013-03-10T15:55:22Z</time>
      </trkpt>
      <trkpt lat="59.4229607075" lon="17.8606329705">
        <ele>21.8</ele>
        <time>2013-03-10T15:55:24Z</time>
      </trkpt>
      <trkpt lat="59.4229552592" lon="17.8605468046">
        <ele>21.8</ele>
        <time>2013-03-10T15:55:26Z</time>
      </trkpt>
      <trkpt lat="59.4229402556" lon="17.8603816811">
        <ele>21.8</ele>
        <time>2013-03-10T15:55:30Z</time>
      </trkpt>
      <trkpt lat="59.4229313708" lon="17.8602334892">
        <ele>21.8</ele>
        <time>2013-03-10T15:55:33Z</time>
      </trkpt>
      <trkpt lat="59.4229455362" lon="17.8601462336">
        <ele>21.8</ele>
        <time>2013-03-10T15:55:35Z</time>
      </trkpt>
      <trkpt lat="59.4230021979" lon="17.8600172361">
        <ele>21.4</ele>
        <time>2013-03-10T15:55:38Z</time>
      </trkpt>
      <trkpt lat="59.4230309478" lon="17.8599758295">
        <ele>20.4</ele>
        <time>2013-03-10T15:55:39Z</time>
      </trkpt>
      <trkpt lat="59.423067912" lon="17.8599284718">
        <ele>20</ele>
        <time>2013-03-10T15:55:40Z</time>
      </trkpt>
      <trkpt lat="59.4231075584" lon="17.8598714749">
        <ele>19.6</ele>
        <time>2013-03-10T15:55:41Z</time>
      </trkpt>
      <trkpt lat="59.423281399" lon="17.8596004042">
        <ele>19.6</ele>
        <time>2013-03-10T15:55:45Z</time>
      </trkpt>
      <trkpt lat="59.4234242265" lon="17.8594364543">
        <ele>19.6</ele>
        <time>2013-03-10T15:55:48Z</time>
      </trkpt>
      <trkpt lat="59.4235190258" lon="17.8593780324">
        <ele>19.6</ele>
        <time>2013-03-10T15:55:50Z</time>
      </trkpt>
      <trkpt lat="59.4237173416" lon="17.8593483605">
        <ele>19.6</ele>
        <time>2013-03-10T15:55:54Z</time>
      </trkpt>
      <trkpt lat="59.4238217801" lon="17.859356491">
        <ele>19.6</ele>
        <time>2013-03-10T15:55:56Z</time>
      </trkpt>
      <trkpt lat="59.423972319" lon="17.8593260647">
        <ele>19.6</ele>
        <time>2013-03-10T15:55:59Z</time>
      </trkpt>
      <trkpt lat="59.4240703034" lon="17.8592542318">
        <ele>19.6</ele>
        <time>2013-03-10T15:56:01Z</time>
      </trkpt>
      <trkpt lat="59.4243648434" lon="17.8589522319">
        <ele>19.2</ele>
        <time>2013-03-10T15:56:07Z</time>
      </trkpt>
      <trkpt lat="59.4244045736" lon="17.8588871046">
        <ele>18.6</ele>
        <time>2013-03-10T15:56:08Z</time>
      </trkpt>
      <trkpt lat="59.4244419568" lon="17.8588316164">
        <ele>18.2</ele>
        <time>2013-03-10T15:56:09Z</time>
      </trkpt>
      <trkpt lat="59.4244774961" lon="17.858778978">
        <ele>17.6</ele>
        <time>2013-03-10T15:56:10Z</time>
      </trkpt>
      <trkpt lat="59.4245132868" lon="17.8587261721">
        <ele>17.2</ele>
        <time>2013-03-10T15:56:11Z</time>
      </trkpt>
      <trkpt lat="59.4245461439" lon="17.8586691752">
        <ele>17.2</ele>
        <time>2013-03-10T15:56:12Z</time>
      </trkpt>
      <trkpt lat="59.4245784142" lon="17.8586107533">
        <ele>17.2</ele>
        <time>2013-03-10T15:56:13Z</time>
      </trkpt>
      <trkpt lat="59.4247530092" lon="17.858296013">
        <ele>17.2</ele>
        <time>2013-03-10T15:56:19Z</time>
      </trkpt>
      <trkpt lat="59.4248178851" lon="17.8582096794">
        <ele>17.6</ele>
        <time>2013-03-10T15:56:21Z</time>
      </trkpt>
      <trkpt lat="59.4248490657" lon="17.8581763194">
        <ele>18</ele>
        <time>2013-03-10T15:56:22Z</time>
      </trkpt>
      <trkpt lat="59.4248810846" lon="17.8581457255">
        <ele>18.6</ele>
        <time>2013-03-10T15:56:23Z</time>
      </trkpt>
      <trkpt lat="59.4249140255" lon="17.8581193225">
        <ele>19</ele>
        <time>2013-03-10T15:56:24Z</time>
      </trkpt>
      <trkpt lat="59.4249472178" lon="17.85810105">
        <ele>19.4</ele>
        <time>2013-03-10T15:56:25Z</time>
      </trkpt>
      <trkpt lat="59.425160118" lon="17.8579773331">
        <ele>19.4</ele>
        <time>2013-03-10T15:56:32Z</time>
      </trkpt>
      <trkpt lat="59.4252977488" lon="17.8578714697">
        <ele>19.4</ele>
        <time>2013-03-10T15:56:37Z</time>
      </trkpt>
      <trkpt lat="59.4254145925" lon="17.8577874831">
        <ele>19.4</ele>
        <time>2013-03-10T15:56:40Z</time>
      </trkpt>
      <trkpt lat="59.4255304304" lon="17.857707855">
        <ele>19.4</ele>
        <time>2013-03-10T15:56:43Z</time>
      </trkpt>
      <trkpt lat="59.4257160056" lon="17.857657396">
        <ele>19.4</ele>
        <time>2013-03-10T15:56:48Z</time>
      </trkpt>
      <trkpt lat="59.4258346933" lon="17.8576688792">
        <ele>19.4</ele>
        <time>2013-03-10T15:56:51Z</time>
      </trkpt>
      <trkpt lat="59.4259346894" lon="17.8576721482">
        <ele>19</ele>
        <time>2013-03-10T15:56:53Z</time>
      </trkpt>
      <trkpt lat="59.4259848132" lon="17.8576721482">
        <ele>18.4</ele>
        <time>2013-03-10T15:56:54Z</time>
      </trkpt>
      <trkpt lat="59.4260337635" lon="17.8576761715">
        <ele>18</ele>
        <time>2013-03-10T15:56:55Z</time>
      </trkpt>
      <trkpt lat="59.4260786066" lon="17.8576742436">
        <ele>17.6</ele>
        <time>2013-03-10T15:56:56Z</time>
      </trkpt>
      <trkpt lat="59.4261293171" lon="17.8576749142">
        <ele>17.2</ele>
        <time>2013-03-10T15:56:57Z</time>
      </trkpt>
      <trkpt lat="59.4261806144" lon="17.8576774287">
        <ele>17.2</ele>
        <time>2013-03-10T15:56:58Z</time>
      </trkpt>
      <trkpt lat="59.4262844661" lon="17.8576835475">
        <ele>17.2</ele>
        <time>2013-03-10T15:57:00Z</time>
      </trkpt>
      <trkpt lat="59.4264865537" lon="17.8576436497">
        <ele>17.2</ele>
        <time>2013-03-10T15:57:04Z</time>
      </trkpt>
      <trkpt lat="59.4266722966" lon="17.8575881615">
        <ele>17.2</ele>
        <time>2013-03-10T15:57:08Z</time>
      </trkpt>
      <trkpt lat="59.4267593846" lon="17.8575590763">
        <ele>17.2</ele>
        <time>2013-03-10T15:57:10Z</time>
      </trkpt>
      <trkpt lat="59.4269970114" lon="17.8575341821">
        <ele>17.2</ele>
        <time>2013-03-10T15:57:16Z</time>
      </trkpt>
      <trkpt lat="59.4272475464" lon="17.8575057674">
        <ele>17.2</ele>
        <time>2013-03-10T15:57:22Z</time>
      </trkpt>
      <trkpt lat="59.4272865222" lon="17.8575004868">
        <ele>17.2</ele>
        <time>2013-03-10T15:57:23Z</time>
      </trkpt>
      <trkpt lat="59.4275189523" lon="17.8574853994">
        <ele>17.2</ele>
        <time>2013-03-10T15:57:29Z</time>
      </trkpt>
      <trkpt lat="59.427664043" lon="17.8574940328">
        <ele>17.6</ele>
        <time>2013-03-10T15:57:33Z</time>
      </trkpt>
      <trkpt lat="59.4276945531" lon="17.8575016603">
        <ele>18</ele>
        <time>2013-03-10T15:57:34Z</time>
      </trkpt>
      <trkpt lat="59.4277254824" lon="17.8575018279">
        <ele>18.4</ele>
        <time>2013-03-10T15:57:35Z</time>
      </trkpt>
      <trkpt lat="59.4277573336" lon="17.8574908477">
        <ele>18.8</ele>
        <time>2013-03-10T15:57:36Z</time>
      </trkpt>
      <trkpt lat="59.4277880113" lon="17.8574857347">
        <ele>19.2</ele>
        <time>2013-03-10T15:57:37Z</time>
      </trkpt>
      <trkpt lat="59.4278916954" lon="17.8574645285">
        <ele>19.2</ele>
        <time>2013-03-10T15:57:41Z</time>
      </trkpt>
      <trkpt lat="59.4279452558" lon="17.8574539673">
        <ele>19.2</ele>
        <time>2013-03-10T15:57:44Z</time>
      </trkpt>
      <trkpt lat="59.4279694795" lon="17.8574651152">
        <ele>19.2</ele>
        <time>2013-03-10T15:57:45Z</time>
      </trkpt>
      <trkpt lat="59.4281120556" lon="17.8574827172">
        <ele>19.6</ele>
        <time>2013-03-10T15:57:50Z</time>
      </trkpt>
      <trkpt lat="59.4281422304" lon="17.8574807894">
        <ele>20</ele>
        <time>2013-03-10T15:57:51Z</time>
      </trkpt>
      <trkpt lat="59.4281719862" lon="17.8574769337">
        <ele>20.4</ele>
        <time>2013-03-10T15:57:52Z</time>
      </trkpt>
      <trkpt lat="59.4282027477" lon="17.8574694738">
        <ele>20.8</ele>
        <time>2013-03-10T15:57:53Z</time>
      </trkpt>
      <trkpt lat="59.4282330902" lon="17.8574614272">
        <ele>21.2</ele>
        <time>2013-03-10T15:57:54Z</time>
      </trkpt>
      <trkpt lat="59.4283832939" lon="17.8573941205">
        <ele>21.2</ele>
        <time>2013-03-10T15:57:59Z</time>
      </trkpt>
      <trkpt lat="59.4285592299" lon="17.8572066174">
        <ele>21.2</ele>
        <time>2013-03-10T15:58:05Z</time>
      </trkpt>
      <trkpt lat="59.4287239343" lon="17.8569166875">
        <ele>21.2</ele>
        <time>2013-03-10T15:58:11Z</time>
      </trkpt>
      <trkpt lat="59.4289490721" lon="17.8566405039">
        <ele>21.2</ele>
        <time>2013-03-10T15:58:18Z</time>
      </trkpt>
      <trkpt lat="59.4291529199" lon="17.8563407672">
        <ele>21.2</ele>
        <time>2013-03-10T15:58:24Z</time>
      </trkpt>
      <trkpt lat="59.4294249964" lon="17.8559827762">
        <ele>21.2</ele>
        <time>2013-03-10T15:58:32Z</time>
      </trkpt>
      <trkpt lat="59.4294601166" lon="17.8559416211">
        <ele>21.2</ele>
        <time>2013-03-10T15:58:33Z</time>
      </trkpt>
      <trkpt lat="59.429632197" lon="17.8557055868">
        <ele>21.2</ele>
        <time>2013-03-10T15:58:38Z</time>
      </trkpt>
      <trkpt lat="59.4298459354" lon="17.855362348">
        <ele>21.2</ele>
        <time>2013-03-10T15:58:45Z</time>
      </trkpt>
      <trkpt lat="59.4300437483" lon="17.8549953884">
        <ele>21.2</ele>
        <time>2013-03-10T15:58:51Z</time>
      </trkpt>
      <trkpt lat="59.4301189339" lon="17.8548644631">
        <ele>20.8</ele>
        <time>2013-03-10T15:58:53Z</time>
      </trkpt>
      <trkpt lat="59.4301623521" lon="17.8547964859">
        <ele>20.2</ele>
        <time>2013-03-10T15:58:54Z</time>
      </trkpt>
      <trkpt lat="59.4302080335" lon="17.8547332864">
        <ele>19.8</ele>
        <time>2013-03-10T15:58:55Z</time>
      </trkpt>
      <trkpt lat="59.4302569" lon="17.8546808995">
        <ele>18.8</ele>
        <time>2013-03-10T15:58:56Z</time>
      </trkpt>
      <trkpt lat="59.4303116338" lon="17.854636224">
        <ele>18.2</ele>
        <time>2013-03-10T15:58:57Z</time>
      </trkpt>
      <trkpt lat="59.4303644397" lon="17.8545956556">
        <ele>17.8</ele>
        <time>2013-03-10T15:58:58Z</time>
      </trkpt>
      <trkpt lat="59.4304187545" lon="17.8545565959">
        <ele>17.2</ele>
        <time>2013-03-10T15:58:59Z</time>
      </trkpt>
      <trkpt lat="59.4304703031" lon="17.8545244932">
        <ele>16.6</ele>
        <time>2013-03-10T15:59:00Z</time>
      </trkpt>
      <trkpt lat="59.430519924" lon="17.8544864394">
        <ele>16.6</ele>
        <time>2013-03-10T15:59:01Z</time>
      </trkpt>
      <trkpt lat="59.4306144718" lon="17.8544175402">
        <ele>16.2</ele>
        <time>2013-03-10T15:59:03Z</time>
      </trkpt>
      <trkpt lat="59.4306623325" lon="17.8543825877">
        <ele>15.8</ele>
        <time>2013-03-10T15:59:04Z</time>
      </trkpt>
      <trkpt lat="59.430708852" lon="17.8543472161">
        <ele>15.4</ele>
        <time>2013-03-10T15:59:05Z</time>
      </trkpt>
      <trkpt lat="59.4307541981" lon="17.8543063124">
        <ele>15</ele>
        <time>2013-03-10T15:59:06Z</time>
      </trkpt>
      <trkpt lat="59.4307951856" lon="17.8542724495">
        <ele>14.6</ele>
        <time>2013-03-10T15:59:07Z</time>
      </trkpt>
      <trkpt lat="59.4308386876" lon="17.8542198112">
        <ele>14.6</ele>
        <time>2013-03-10T15:59:08Z</time>
      </trkpt>
      <trkpt lat="59.4309513404" lon="17.8539779095">
        <ele>14.2</ele>
        <time>2013-03-10T15:59:11Z</time>
      </trkpt>
      <trkpt lat="59.4309843651" lon="17.8538810148">
        <ele>13.6</ele>
        <time>2013-03-10T15:59:12Z</time>
      </trkpt>
      <trkpt lat="59.4310184794" lon="17.853786886">
        <ele>13.2</ele>
        <time>2013-03-10T15:59:13Z</time>
      </trkpt>
      <trkpt lat="59.4310504983" lon="17.8536925059">
        <ele>12.8</ele>
        <time>2013-03-10T15:59:14Z</time>
      </trkpt>
      <trkpt lat="59.4310776556" lon="17.8536075134">
        <ele>12.2</ele>
        <time>2013-03-10T15:59:15Z</time>
      </trkpt>
      <trkpt lat="59.4311889672" lon="17.8532762607">
        <ele>12.2</ele>
        <time>2013-03-10T15:59:19Z</time>
      </trkpt>
      <trkpt lat="59.4312754685" lon="17.8530035137">
        <ele>12.2</ele>
        <time>2013-03-10T15:59:22Z</time>
      </trkpt>
      <trkpt lat="59.4313283582" lon="17.8528315171">
        <ele>12.2</ele>
        <time>2013-03-10T15:59:24Z</time>
      </trkpt>
      <trkpt lat="59.4313765542" lon="17.8526557486">
        <ele>12.2</ele>
        <time>2013-03-10T15:59:26Z</time>
      </trkpt>
      <trkpt lat="59.4316219762" lon="17.8518821831">
        <ele>12.2</ele>
        <time>2013-03-10T15:59:35Z</time>
      </trkpt>
      <trkpt lat="59.4318013489" lon="17.8513039158">
        <ele>12.2</ele>
        <time>2013-03-10T15:59:42Z</time>
      </trkpt>
      <trkpt lat="59.4320227148" lon="17.8506163486">
        <ele>12.2</ele>
        <time>2013-03-10T15:59:50Z</time>
      </trkpt>
      <trkpt lat="59.4322476012" lon="17.8499362412">
        <ele>12.2</ele>
        <time>2013-03-10T15:59:58Z</time>
      </trkpt>
      <trkpt lat="59.432269478" lon="17.8498544338">
        <ele>12.2</ele>
        <time>2013-03-10T15:59:59Z</time>
      </trkpt>
      <trkpt lat="59.4323743355" lon="17.8495210857">
        <ele>12.2</ele>
        <time>2013-03-10T16:00:03Z</time>
      </trkpt>
      <trkpt lat="59.4325393752" lon="17.8490639369">
        <ele>12.2</ele>
        <time>2013-03-10T16:00:09Z</time>
      </trkpt>
      <trkpt lat="59.4325842183" lon="17.848914739">
        <ele>12.2</ele>
        <time>2013-03-10T16:00:11Z</time>
      </trkpt>
      <trkpt lat="59.4326999724" lon="17.848560939">
        <ele>12.2</ele>
        <time>2013-03-10T16:00:16Z</time>
      </trkpt>
      <trkpt lat="59.4328097753" lon="17.848278469">
        <ele>12.2</ele>
        <time>2013-03-10T16:00:21Z</time>
      </trkpt>
      <trkpt lat="59.4329430475" lon="17.8479541733">
        <ele>12.2</ele>
        <time>2013-03-10T16:00:28Z</time>
      </trkpt>
      <trkpt lat="59.4330018884" lon="17.8477675922">
        <ele>12.2</ele>
        <time>2013-03-10T16:00:34Z</time>
      </trkpt>
      <trkpt lat="59.4330769064" lon="17.8476577055">
        <ele>12.2</ele>
        <time>2013-03-10T16:00:39Z</time>
      </trkpt>
      <trkpt lat="59.4330914071" lon="17.8476189811">
        <ele>12.6</ele>
        <time>2013-03-10T16:00:40Z</time>
      </trkpt>
      <trkpt lat="59.4331036447" lon="17.8475748085">
        <ele>13</ele>
        <time>2013-03-10T16:00:41Z</time>
      </trkpt>
      <trkpt lat="59.4331152955" lon="17.847531977">
        <ele>13.6</ele>
        <time>2013-03-10T16:00:42Z</time>
      </trkpt>
      <trkpt lat="59.4331265273" lon="17.8474905704">
        <ele>14</ele>
        <time>2013-03-10T16:00:43Z</time>
      </trkpt>
      <trkpt lat="59.4331353282" lon="17.8474510078">
        <ele>14.4</ele>
        <time>2013-03-10T16:00:44Z</time>
      </trkpt>
      <trkpt lat="59.4331486555" lon="17.8474148818">
        <ele>14.4</ele>
        <time>2013-03-10T16:00:45Z</time>
      </trkpt>
      <trkpt lat="59.4331805905" lon="17.8472065078">
        <ele>14.4</ele>
        <time>2013-03-10T16:00:50Z</time>
      </trkpt>
      <trkpt lat="59.4331747232" lon="17.8471571384">
        <ele>14.8</ele>
        <time>2013-03-10T16:00:51Z</time>
      </trkpt>
      <trkpt lat="59.4331622341" lon="17.8471062603">
        <ele>15.2</ele>
        <time>2013-03-10T16:00:52Z</time>
      </trkpt>
      <trkpt lat="59.4331475658" lon="17.8470515265">
        <ele>15.6</ele>
        <time>2013-03-10T16:00:53Z</time>
      </trkpt>
      <trkpt lat="59.4331311373" lon="17.8469867344">
        <ele>16</ele>
        <time>2013-03-10T16:00:54Z</time>
      </trkpt>
      <trkpt lat="59.4331149602" lon="17.8469223614">
        <ele>16.4</ele>
        <time>2013-03-10T16:00:55Z</time>
      </trkpt>
      <trkpt lat="59.4330177302" lon="17.8464819764">
        <ele>16.4</ele>
        <time>2013-03-10T16:01:01Z</time>
      </trkpt>
      <trkpt lat="59.432981688" lon="17.846039915">
        <ele>16.4</ele>
        <time>2013-03-10T16:01:07Z</time>
      </trkpt>
      <trkpt lat="59.4329122859" lon="17.8457105901">
        <ele>16.4</ele>
        <time>2013-03-10T16:01:12Z</time>
      </trkpt>
      <trkpt lat="59.432879345" lon="17.8454838597">
        <ele>16.4</ele>
        <time>2013-03-10T16:01:17Z</time>
      </trkpt>
      <trkpt lat="59.4329845379" lon="17.8454397709">
        <ele>16.8</ele>
        <time>2013-03-10T16:01:21Z</time>
      </trkpt>
      <trkpt lat="59.4330173111" lon="17.845416134">
        <ele>17.2</ele>
        <time>2013-03-10T16:01:22Z</time>
      </trkpt>
      <trkpt lat="59.43304933" lon="17.8453837798">
        <ele>17.6</ele>
        <time>2013-03-10T16:01:23Z</time>
      </trkpt>
      <trkpt lat="59.4330809297" lon="17.8453463127">
        <ele>18.4</ele>
        <time>2013-03-10T16:01:24Z</time>
      </trkpt>
      <trkpt lat="59.4331489907" lon="17.8452762401">
        <ele>18.4</ele>
        <time>2013-03-10T16:01:26Z</time>
      </trkpt>
      <trkpt lat="59.4332654992" lon="17.8451746514">
        <ele>18.8</ele>
        <time>2013-03-10T16:01:29Z</time>
      </trkpt>
      <trkpt lat="59.4333038883" lon="17.8451386931">
        <ele>19.2</ele>
        <time>2013-03-10T16:01:30Z</time>
      </trkpt>
      <trkpt lat="59.4333408524" lon="17.8451120386">
        <ele>19.6</ele>
        <time>2013-03-10T16:01:31Z</time>
      </trkpt>
      <trkpt lat="59.4333800797" lon="17.845079936">
        <ele>20</ele>
        <time>2013-03-10T16:01:32Z</time>
      </trkpt>
      <trkpt lat="59.4334199776" lon="17.8450467436">
        <ele>20.4</ele>
        <time>2013-03-10T16:01:33Z</time>
      </trkpt>
      <trkpt lat="59.4334545948" lon="17.8450062591">
        <ele>20.4</ele>
        <time>2013-03-10T16:01:34Z</time>
      </trkpt>
      <trkpt lat="59.4336446125" lon="17.8448167443">
        <ele>20.4</ele>
        <time>2013-03-10T16:01:39Z</time>
      </trkpt>
      <trkpt lat="59.4339173595" lon="17.8445724119">
        <ele>20.4</ele>
        <time>2013-03-10T16:01:46Z</time>
      </trkpt>
      <trkpt lat="59.4340313534" lon="17.8444770259">
        <ele>20.4</ele>
        <time>2013-03-10T16:01:49Z</time>
      </trkpt>
      <trkpt lat="59.4340673117" lon="17.8444452585">
        <ele>20.8</ele>
        <time>2013-03-10T16:01:50Z</time>
      </trkpt>
      <trkpt lat="59.4341040244" lon="17.8444149998">
        <ele>21.4</ele>
        <time>2013-03-10T16:01:51Z</time>
      </trkpt>
      <trkpt lat="59.4341427488" lon="17.8443871719">
        <ele>21.8</ele>
        <time>2013-03-10T16:01:52Z</time>
      </trkpt>
      <trkpt lat="59.4341793777" lon="17.8443557398">
        <ele>22.2</ele>
        <time>2013-03-10T16:01:53Z</time>
      </trkpt>
      <trkpt lat="59.4342173477" lon="17.8443252297">
        <ele>22.6</ele>
        <time>2013-03-10T16:01:54Z</time>
      </trkpt>
      <trkpt lat="59.4343586666" lon="17.8442123255">
        <ele>22.6</ele>
        <time>2013-03-10T16:01:58Z</time>
      </trkpt>
      <trkpt lat="59.4344687209" lon="17.844113">
        <ele>22.6</ele>
        <time>2013-03-10T16:02:01Z</time>
      </trkpt>
      <trkpt lat="59.4345075291" lon="17.8440781313">
        <ele>23</ele>
        <time>2013-03-10T16:02:02Z</time>
      </trkpt>
      <trkpt lat="59.4345454153" lon="17.8440415862">
        <ele>23.4</ele>
        <time>2013-03-10T16:02:03Z</time>
      </trkpt>
      <trkpt lat="59.4345832177" lon="17.8440113275">
        <ele>23.8</ele>
        <time>2013-03-10T16:02:04Z</time>
      </trkpt>
      <trkpt lat="59.4346217744" lon="17.8439885288">
        <ele>24.2</ele>
        <time>2013-03-10T16:02:05Z</time>
      </trkpt>
      <trkpt lat="59.4346610855" lon="17.8439669035">
        <ele>24.6</ele>
        <time>2013-03-10T16:02:06Z</time>
      </trkpt>
      <trkpt lat="59.4347366902" lon="17.8439181208">
        <ele>24.6</ele>
        <time>2013-03-10T16:02:08Z</time>
      </trkpt>
      <trkpt lat="59.4349391131" lon="17.8437794004">
        <ele>25.4</ele>
        <time>2013-03-10T16:02:14Z</time>
      </trkpt>
      <trkpt lat="59.4349671087" lon="17.8437555119">
        <ele>25.8</ele>
        <time>2013-03-10T16:02:15Z</time>
      </trkpt>
      <trkpt lat="59.4349969482" lon="17.8437444478">
        <ele>26.2</ele>
        <time>2013-03-10T16:02:16Z</time>
      </trkpt>
      <trkpt lat="59.4350338286" lon="17.8437278517">
        <ele>26.6</ele>
        <time>2013-03-10T16:02:17Z</time>
      </trkpt>
      <trkpt lat="59.4351487444" lon="17.8436863613">
        <ele>26.6</ele>
        <time>2013-03-10T16:02:20Z</time>
      </trkpt>
      <trkpt lat="59.4353546877" lon="17.8436277718">
        <ele>26.6</ele>
        <time>2013-03-10T16:02:25Z</time>
      </trkpt>
      <trkpt lat="59.4353924063" lon="17.8436195575">
        <ele>26.6</ele>
        <time>2013-03-10T16:02:26Z</time>
      </trkpt>
      <trkpt lat="59.4354298734" lon="17.8436136064">
        <ele>27</ele>
        <time>2013-03-10T16:02:27Z</time>
      </trkpt>
      <trkpt lat="59.435468011" lon="17.8436044701">
        <ele>27.4</ele>
        <time>2013-03-10T16:02:28Z</time>
      </trkpt>
      <trkpt lat="59.4355074898" lon="17.8435931545">
        <ele>28</ele>
        <time>2013-03-10T16:02:29Z</time>
      </trkpt>
      <trkpt lat="59.435543951" lon="17.8435798273">
        <ele>28.4</ele>
        <time>2013-03-10T16:02:30Z</time>
      </trkpt>
      <trkpt lat="59.4355773948" lon="17.8435717807">
        <ele>28.8</ele>
        <time>2013-03-10T16:02:31Z</time>
      </trkpt>
      <trkpt lat="59.4356880359" lon="17.8435582858">
        <ele>28.8</ele>
        <time>2013-03-10T16:02:34Z</time>
      </trkpt>
      <trkpt lat="59.4358961585" lon="17.8435722836">
        <ele>28.8</ele>
        <time>2013-03-10T16:02:39Z</time>
      </trkpt>
      <trkpt lat="59.4359840008" lon="17.8435608004">
        <ele>29.2</ele>
        <time>2013-03-10T16:02:41Z</time>
      </trkpt>
      <trkpt lat="59.4360226413" lon="17.8435546816">
        <ele>29.6</ele>
        <time>2013-03-10T16:02:42Z</time>
      </trkpt>
      <trkpt lat="59.4360599408" lon="17.8435496525">
        <ele>30.2</ele>
        <time>2013-03-10T16:02:43Z</time>
      </trkpt>
      <trkpt lat="59.4360976593" lon="17.8435477246">
        <ele>30.6</ele>
        <time>2013-03-10T16:02:44Z</time>
      </trkpt>
      <trkpt lat="59.4361357132" lon="17.8435374149">
        <ele>31</ele>
        <time>2013-03-10T16:02:45Z</time>
      </trkpt>
      <trkpt lat="59.4363313467" lon="17.843467426">
        <ele>31</ele>
        <time>2013-03-10T16:02:50Z</time>
      </trkpt>
      <trkpt lat="59.4364640322" lon="17.8434361616">
        <ele>31</ele>
        <time>2013-03-10T16:02:54Z</time>
      </trkpt>
      <trkpt lat="59.4365370385" lon="17.8434136142">
        <ele>31</ele>
        <time>2013-03-10T16:02:58Z</time>
      </trkpt>
      <trkpt lat="59.4365744218" lon="17.8433582937">
        <ele>31</ele>
        <time>2013-03-10T16:03:01Z</time>
      </trkpt>
      <trkpt lat="59.4365774393" lon="17.8433142049">
        <ele>31</ele>
        <time>2013-03-10T16:03:02Z</time>
      </trkpt>
      <trkpt lat="59.4365556464" lon="17.843043721">
        <ele>31</ele>
        <time>2013-03-10T16:03:07Z</time>
      </trkpt>
      <trkpt lat="59.436627144" lon="17.8429533641">
        <ele>31</ele>
        <time>2013-03-10T16:03:10Z</time>
      </trkpt>
      <trkpt lat="59.4366531279" lon="17.8429337505">
        <ele>31</ele>
        <time>2013-03-10T16:03:11Z</time>
      </trkpt>
      <trkpt lat="59.436800314" lon="17.8428122129">
        <ele>31</ele>
        <time>2013-03-10T16:03:15Z</time>
      </trkpt>
      <trkpt lat="59.4369322451" lon="17.8426687986">
        <ele>31.4</ele>
        <time>2013-03-10T16:03:18Z</time>
      </trkpt>
      <trkpt lat="59.4369847996" lon="17.8426099577">
        <ele>31.8</ele>
        <time>2013-03-10T16:03:19Z</time>
      </trkpt>
      <trkpt lat="59.4370358454" lon="17.8425446627">
        <ele>32.2</ele>
        <time>2013-03-10T16:03:20Z</time>
      </trkpt>
      <trkpt lat="59.4370846281" lon="17.8424809602">
        <ele>32.6</ele>
        <time>2013-03-10T16:03:21Z</time>
      </trkpt>
      <trkpt lat="59.4371293874" lon="17.842419018">
        <ele>33</ele>
        <time>2013-03-10T16:03:22Z</time>
      </trkpt>
      <trkpt lat="59.4371770804" lon="17.8423657929">
        <ele>33</ele>
        <time>2013-03-10T16:03:23Z</time>
      </trkpt>
      <trkpt lat="59.4373124481" lon="17.8421839895">
        <ele>33</ele>
        <time>2013-03-10T16:03:26Z</time>
      </trkpt>
      <trkpt lat="59.4376825928" lon="17.8417074785">
        <ele>33</ele>
        <time>2013-03-10T16:03:34Z</time>
      </trkpt>
      <trkpt lat="59.4378612111" lon="17.8414796585">
        <ele>33.4</ele>
        <time>2013-03-10T16:03:38Z</time>
      </trkpt>
      <trkpt lat="59.4379041264" lon="17.8414232483">
        <ele>34</ele>
        <time>2013-03-10T16:03:39Z</time>
      </trkpt>
      <trkpt lat="59.437946455" lon="17.8413658323">
        <ele>34.4</ele>
        <time>2013-03-10T16:03:40Z</time>
      </trkpt>
      <trkpt lat="59.4379879454" lon="17.8413051473">
        <ele>34.8</ele>
        <time>2013-03-10T16:03:41Z</time>
      </trkpt>
      <trkpt lat="59.4380305255" lon="17.8412431212">
        <ele>35.2</ele>
        <time>2013-03-10T16:03:42Z</time>
      </trkpt>
      <trkpt lat="59.4382855029" lon="17.8409135449">
        <ele>35.2</ele>
        <time>2013-03-10T16:03:48Z</time>
      </trkpt>
      <trkpt lat="59.4384745147" lon="17.8407201745">
        <ele>35.2</ele>
        <time>2013-03-10T16:03:52Z</time>
      </trkpt>
      <trkpt lat="59.4385785341" lon="17.8406413008">
        <ele>35.2</ele>
        <time>2013-03-10T16:03:54Z</time>
      </trkpt>
      <trkpt lat="59.4389037518" lon="17.8404346032">
        <ele>35.2</ele>
        <time>2013-03-10T16:04:00Z</time>
      </trkpt>
      <trkpt lat="59.43919913" lon="17.840260092">
        <ele>34.8</ele>
        <time>2013-03-10T16:04:05Z</time>
      </trkpt>
      <trkpt lat="59.4392628324" lon="17.8402232955">
        <ele>34.2</ele>
        <time>2013-03-10T16:04:06Z</time>
      </trkpt>
      <trkpt lat="59.4393225954" lon="17.8401857446">
        <ele>33.8</ele>
        <time>2013-03-10T16:04:07Z</time>
      </trkpt>
      <trkpt lat="59.4393814363" lon="17.8401505406">
        <ele>33.4</ele>
        <time>2013-03-10T16:04:08Z</time>
      </trkpt>
      <trkpt lat="59.4394421213" lon="17.8401129897">
        <ele>33</ele>
        <time>2013-03-10T16:04:09Z</time>
      </trkpt>
      <trkpt lat="59.4396880462" lon="17.8399667255">
        <ele>32.6</ele>
        <time>2013-03-10T16:04:13Z</time>
      </trkpt>
      <trkpt lat="59.4397443726" lon="17.8399313539">
        <ele>32</ele>
        <time>2013-03-10T16:04:14Z</time>
      </trkpt>
      <trkpt lat="59.4398026268" lon="17.8399070464">
        <ele>31.6</ele>
        <time>2013-03-10T16:04:15Z</time>
      </trkpt>
      <trkpt lat="59.4398591208" lon="17.8398808949">
        <ele>31.2</ele>
        <time>2013-03-10T16:04:16Z</time>
      </trkpt>
      <trkpt lat="59.4399118429" lon="17.8398483731">
        <ele>30.6</ele>
        <time>2013-03-10T16:04:17Z</time>
      </trkpt>
      <trkpt lat="59.4399612123" lon="17.8398172762">
        <ele>30.6</ele>
        <time>2013-03-10T16:04:18Z</time>
      </trkpt>
      <trkpt lat="59.440122983" lon="17.8397552502">
        <ele>30.6</ele>
        <time>2013-03-10T16:04:21Z</time>
      </trkpt>
      <trkpt lat="59.440231361" lon="17.8397258297">
        <ele>30.6</ele>
        <time>2013-03-10T16:04:23Z</time>
      </trkpt>
      <trkpt lat="59.440283664" lon="17.8397204653">
        <ele>30.6</ele>
        <time>2013-03-10T16:04:24Z</time>
      </trkpt>
      <trkpt lat="59.4404497933" lon="17.83970345">
        <ele>30.6</ele>
        <time>2013-03-10T16:04:27Z</time>
      </trkpt>
      <trkpt lat="59.440707872" lon="17.8395921384">
        <ele>30.6</ele>
        <time>2013-03-10T16:04:32Z</time>
      </trkpt>
      <trkpt lat="59.4409678785" lon="17.8394515739">
        <ele>30.6</ele>
        <time>2013-03-10T16:04:37Z</time>
      </trkpt>
      <trkpt lat="59.4411725645" lon="17.8393585348">
        <ele>30.2</ele>
        <time>2013-03-10T16:04:41Z</time>
      </trkpt>
      <trkpt lat="59.4412299805" lon="17.839336239">
        <ele>29.4</ele>
        <time>2013-03-10T16:04:42Z</time>
      </trkpt>
      <trkpt lat="59.4412887377" lon="17.8393219059">
        <ele>29</ele>
        <time>2013-03-10T16:04:43Z</time>
      </trkpt>
      <trkpt lat="59.4413443935" lon="17.8393067347">
        <ele>28.6</ele>
        <time>2013-03-10T16:04:44Z</time>
      </trkpt>
      <trkpt lat="59.4417496583" lon="17.8391809224">
        <ele>28.6</ele>
        <time>2013-03-10T16:04:51Z</time>
      </trkpt>
      <trkpt lat="59.4420856887" lon="17.8390889729">
        <ele>28.6</ele>
        <time>2013-03-10T16:04:57Z</time>
      </trkpt>
      <trkpt lat="59.4425037779" lon="17.8390038128">
        <ele>28.6</ele>
        <time>2013-03-10T16:05:05Z</time>
      </trkpt>
      <trkpt lat="59.442755654" lon="17.8389448043">
        <ele>28.6</ele>
        <time>2013-03-10T16:05:10Z</time>
      </trkpt>
      <trkpt lat="59.4428446698" lon="17.8389291301">
        <ele>28.6</ele>
        <time>2013-03-10T16:05:12Z</time>
      </trkpt>
      <trkpt lat="59.4431634334" lon="17.8388877235">
        <ele>28.6</ele>
        <time>2013-03-10T16:05:19Z</time>
      </trkpt>
      <trkpt lat="59.4434754077" lon="17.8389251906">
        <ele>28.6</ele>
        <time>2013-03-10T16:05:26Z</time>
      </trkpt>
      <trkpt lat="59.4436961032" lon="17.8389735542">
        <ele>28.6</ele>
        <time>2013-03-10T16:05:32Z</time>
      </trkpt>
      <trkpt lat="59.4437203268" lon="17.8389367576">
        <ele>28.6</ele>
        <time>2013-03-10T16:05:33Z</time>
      </trkpt>
      <trkpt lat="59.4437507531" lon="17.8388161421">
        <ele>28.2</ele>
        <time>2013-03-10T16:05:35Z</time>
      </trkpt>
      <trkpt lat="59.4437577101" lon="17.8387426328">
        <ele>27.8</ele>
        <time>2013-03-10T16:05:36Z</time>
      </trkpt>
      <trkpt lat="59.4437628231" lon="17.8386589815">
        <ele>27.2</ele>
        <time>2013-03-10T16:05:37Z</time>
      </trkpt>
      <trkpt lat="59.443768858" lon="17.8385630087">
        <ele>26.8</ele>
        <time>2013-03-10T16:05:38Z</time>
      </trkpt>
      <trkpt lat="59.4437747254" lon="17.8384602466">
        <ele>26.4</ele>
        <time>2013-03-10T16:05:39Z</time>
      </trkpt>
      <trkpt lat="59.4437780781" lon="17.8383484321">
        <ele>26.4</ele>
        <time>2013-03-10T16:05:40Z</time>
      </trkpt>
      <trkpt lat="59.443784616" lon="17.838235025">
        <ele>26</ele>
        <time>2013-03-10T16:05:41Z</time>
      </trkpt>
      <trkpt lat="59.4437907348" lon="17.8381196062">
        <ele>25.6</ele>
        <time>2013-03-10T16:05:42Z</time>
      </trkpt>
      <trkpt lat="59.4437981109" lon="17.8380041036">
        <ele>25.2</ele>
        <time>2013-03-10T16:05:43Z</time>
      </trkpt>
      <trkpt lat="59.4438102646" lon="17.8379018444">
        <ele>24.6</ele>
        <time>2013-03-10T16:05:44Z</time>
      </trkpt>
      <trkpt lat="59.4438279504" lon="17.8378064584">
        <ele>24.2</ele>
        <time>2013-03-10T16:05:45Z</time>
      </trkpt>
      <trkpt lat="59.4438446304" lon="17.8377142575">
        <ele>24.2</ele>
        <time>2013-03-10T16:05:46Z</time>
      </trkpt>
      <trkpt lat="59.4438521741" lon="17.8376213022">
        <ele>24.2</ele>
        <time>2013-03-10T16:05:47Z</time>
      </trkpt>
      <trkpt lat="59.4438551916" lon="17.837355596">
        <ele>24.2</ele>
        <time>2013-03-10T16:05:50Z</time>
      </trkpt>
      <trkpt lat="59.4438729612" lon="17.8370858665">
        <ele>24.2</ele>
        <time>2013-03-10T16:05:53Z</time>
      </trkpt>
      <trkpt lat="59.4438842768" lon="17.8369087569">
        <ele>24.2</ele>
        <time>2013-03-10T16:05:55Z</time>
      </trkpt>
      <trkpt lat="59.4438862046" lon="17.8368199926">
        <ele>24.2</ele>
        <time>2013-03-10T16:05:56Z</time>
      </trkpt>
      <trkpt lat="59.4438844444" lon="17.8366559588">
        <ele>24.2</ele>
        <time>2013-03-10T16:05:58Z</time>
      </trkpt>
      <trkpt lat="59.4438759787" lon="17.8365055037">
        <ele>24.2</ele>
        <time>2013-03-10T16:06:00Z</time>
      </trkpt>
      <trkpt lat="59.4438565327" lon="17.8362666196">
        <ele>24.2</ele>
        <time>2013-03-10T16:06:03Z</time>
      </trkpt>
      <trkpt lat="59.4438489052" lon="17.8360435772">
        <ele>24.2</ele>
        <time>2013-03-10T16:06:06Z</time>
      </trkpt>
      <trkpt lat="59.443843457" lon="17.8359663799">
        <ele>24.2</ele>
        <time>2013-03-10T16:06:07Z</time>
      </trkpt>
      <trkpt lat="59.4438231728" lon="17.8356003423">
        <ele>24.8</ele>
        <time>2013-03-10T16:06:12Z</time>
      </trkpt>
      <trkpt lat="59.4438273637" lon="17.8355123324">
        <ele>25.2</ele>
        <time>2013-03-10T16:06:13Z</time>
      </trkpt>
      <trkpt lat="59.4438294592" lon="17.8354158567">
        <ele>25.6</ele>
        <time>2013-03-10T16:06:14Z</time>
      </trkpt>
      <trkpt lat="59.4438322252" lon="17.8353238235">
        <ele>26</ele>
        <time>2013-03-10T16:06:15Z</time>
      </trkpt>
      <trkpt lat="59.4438375896" lon="17.8352324607">
        <ele>26.6</ele>
        <time>2013-03-10T16:06:16Z</time>
      </trkpt>
      <trkpt lat="59.4438510845" lon="17.8351428582">
        <ele>27.2</ele>
        <time>2013-03-10T16:06:17Z</time>
      </trkpt>
      <trkpt lat="59.4438603046" lon="17.8350535072">
        <ele>27.8</ele>
        <time>2013-03-10T16:06:18Z</time>
      </trkpt>
      <trkpt lat="59.4438752244" lon="17.8349667545">
        <ele>28.2</ele>
        <time>2013-03-10T16:06:19Z</time>
      </trkpt>
      <trkpt lat="59.4438837739" lon="17.8348755594">
        <ele>28.8</ele>
        <time>2013-03-10T16:06:20Z</time>
      </trkpt>
      <trkpt lat="59.4438906471" lon="17.8347797543">
        <ele>30</ele>
        <time>2013-03-10T16:06:21Z</time>
      </trkpt>
      <trkpt lat="59.4439016273" lon="17.8347054069">
        <ele>30.4</ele>
        <time>2013-03-10T16:06:22Z</time>
      </trkpt>
      <trkpt lat="59.4439140326" lon="17.834629886">
        <ele>31</ele>
        <time>2013-03-10T16:06:23Z</time>
      </trkpt>
      <trkpt lat="59.4439933253" lon="17.8341491002">
        <ele>31</ele>
        <time>2013-03-10T16:06:29Z</time>
      </trkpt>
      <trkpt lat="59.4440576983" lon="17.8338436637">
        <ele>31</ele>
        <time>2013-03-10T16:06:33Z</time>
      </trkpt>
      <trkpt lat="59.4440969256" lon="17.8337137443">
        <ele>31.4</ele>
        <time>2013-03-10T16:06:35Z</time>
      </trkpt>
      <trkpt lat="59.4441176289" lon="17.8336520535">
        <ele>31.8</ele>
        <time>2013-03-10T16:06:36Z</time>
      </trkpt>
      <trkpt lat="59.4441395057" lon="17.8335878481">
        <ele>32.4</ele>
        <time>2013-03-10T16:06:37Z</time>
      </trkpt>
      <trkpt lat="59.4441568562" lon="17.8335176078">
        <ele>32.8</ele>
        <time>2013-03-10T16:06:38Z</time>
      </trkpt>
      <trkpt lat="59.444172698" lon="17.8334455235">
        <ele>33.2</ele>
        <time>2013-03-10T16:06:39Z</time>
      </trkpt>
      <trkpt lat="59.4442417648" lon="17.8332631333">
        <ele>33.2</ele>
        <time>2013-03-10T16:06:42Z</time>
      </trkpt>
      <trkpt lat="59.4442673296" lon="17.8331955752">
        <ele>33.6</ele>
        <time>2013-03-10T16:06:43Z</time>
      </trkpt>
      <trkpt lat="59.4442892902" lon="17.8331272627">
        <ele>34</ele>
        <time>2013-03-10T16:06:44Z</time>
      </trkpt>
      <trkpt lat="59.4443135977" lon="17.833054424">
        <ele>34.4</ele>
        <time>2013-03-10T16:06:45Z</time>
      </trkpt>
      <trkpt lat="59.4443419285" lon="17.8329934876">
        <ele>35.2</ele>
        <time>2013-03-10T16:06:46Z</time>
      </trkpt>
      <trkpt lat="59.4443748694" lon="17.8329402626">
        <ele>35.2</ele>
        <time>2013-03-10T16:06:47Z</time>
      </trkpt>
      <trkpt lat="59.444501017" lon="17.8327047312">
        <ele>35.8</ele>
        <time>2013-03-10T16:06:51Z</time>
      </trkpt>
      <trkpt lat="59.444525576" lon="17.8326634084">
        <ele>36.2</ele>
        <time>2013-03-10T16:06:52Z</time>
      </trkpt>
      <trkpt lat="59.4445449382" lon="17.8326229238">
        <ele>36.8</ele>
        <time>2013-03-10T16:06:53Z</time>
      </trkpt>
      <trkpt lat="59.4445653062" lon="17.8325785836">
        <ele>37.2</ele>
        <time>2013-03-10T16:06:54Z</time>
      </trkpt>
      <trkpt lat="59.444580226" lon="17.8325402783">
        <ele>37.8</ele>
        <time>2013-03-10T16:06:55Z</time>
      </trkpt>
      <trkpt lat="59.4446793838" lon="17.8323863866">
        <ele>37.8</ele>
        <time>2013-03-10T16:06:59Z</time>
      </trkpt>
      <trkpt lat="59.4447424157" lon="17.8322670283">
        <ele>38.2</ele>
        <time>2013-03-10T16:07:01Z</time>
      </trkpt>
      <trkpt lat="59.4447642087" lon="17.832216234">
        <ele>38.6</ele>
        <time>2013-03-10T16:07:02Z</time>
      </trkpt>
      <trkpt lat="59.4447840738" lon="17.8321672837">
        <ele>39.2</ele>
        <time>2013-03-10T16:07:03Z</time>
      </trkpt>
      <trkpt lat="59.4448056991" lon="17.8321163218">
        <ele>39.6</ele>
        <time>2013-03-10T16:07:04Z</time>
      </trkpt>
      <trkpt lat="59.4448292522" lon="17.8320665333">
        <ele>40</ele>
        <time>2013-03-10T16:07:05Z</time>
      </trkpt>
      <trkpt lat="59.4449336907" lon="17.8317666289">
        <ele>40</ele>
        <time>2013-03-10T16:07:10Z</time>
      </trkpt>
      <trkpt lat="59.4450315075" lon="17.8313519763">
        <ele>40</ele>
        <time>2013-03-10T16:07:16Z</time>
      </trkpt>
      <trkpt lat="59.4450569046" lon="17.8312857593">
        <ele>40</ele>
        <time>2013-03-10T16:07:17Z</time>
      </trkpt>
      <trkpt lat="59.4451973014" lon="17.8309739526">
        <ele>40</ele>
        <time>2013-03-10T16:07:22Z</time>
      </trkpt>
      <trkpt lat="59.4453221079" lon="17.8305562826">
        <ele>40</ele>
        <time>2013-03-10T16:07:28Z</time>
      </trkpt>
      <trkpt lat="59.4453257122" lon="17.8304723797">
        <ele>39.6</ele>
        <time>2013-03-10T16:07:29Z</time>
      </trkpt>
      <trkpt lat="59.4453251254" lon="17.8303821905">
        <ele>39.2</ele>
        <time>2013-03-10T16:07:30Z</time>
      </trkpt>
      <trkpt lat="59.445319761" lon="17.8302914145">
        <ele>38.8</ele>
        <time>2013-03-10T16:07:31Z</time>
      </trkpt>
      <trkpt lat="59.4453110438" lon="17.8301890715">
        <ele>38.4</ele>
        <time>2013-03-10T16:07:32Z</time>
      </trkpt>
      <trkpt lat="59.4453013208" lon="17.8300973735">
        <ele>38</ele>
        <time>2013-03-10T16:07:33Z</time>
      </trkpt>
      <trkpt lat="59.4452681285" lon="17.8299209345">
        <ele>38</ele>
        <time>2013-03-10T16:07:35Z</time>
      </trkpt>
      <trkpt lat="59.4452560586" lon="17.8298265543">
        <ele>38</ele>
        <time>2013-03-10T16:07:36Z</time>
      </trkpt>
      <trkpt lat="59.4452289012" lon="17.8296495286">
        <ele>37.6</ele>
        <time>2013-03-10T16:07:38Z</time>
      </trkpt>
      <trkpt lat="59.4452071083" lon="17.8295605967">
        <ele>37.2</ele>
        <time>2013-03-10T16:07:39Z</time>
      </trkpt>
      <trkpt lat="59.4451844771" lon="17.8294768615">
        <ele>36.8</ele>
        <time>2013-03-10T16:07:40Z</time>
      </trkpt>
      <trkpt lat="59.4451593314" lon="17.8293921205">
        <ele>36.4</ele>
        <time>2013-03-10T16:07:41Z</time>
      </trkpt>
      <trkpt lat="59.4451304139" lon="17.8293099778">
        <ele>35.8</ele>
        <time>2013-03-10T16:07:42Z</time>
      </trkpt>
      <trkpt lat="59.4450092954" lon="17.8289771326">
        <ele>35.8</ele>
        <time>2013-03-10T16:07:46Z</time>
      </trkpt>
      <trkpt lat="59.4448877579" lon="17.8286686787">
        <ele>35.4</ele>
        <time>2013-03-10T16:07:50Z</time>
      </trkpt>
      <trkpt lat="59.4448796274" lon="17.8285796629">
        <ele>35</ele>
        <time>2013-03-10T16:07:51Z</time>
      </trkpt>
      <trkpt lat="59.4448942119" lon="17.8284965145">
        <ele>34.6</ele>
        <time>2013-03-10T16:07:52Z</time>
      </trkpt>
      <trkpt lat="59.4449206149" lon="17.8284131145">
        <ele>34</ele>
        <time>2013-03-10T16:07:53Z</time>
      </trkpt>
      <trkpt lat="59.4449542263" lon="17.8283255237">
        <ele>33.6</ele>
        <time>2013-03-10T16:07:54Z</time>
      </trkpt>
      <trkpt lat="59.4449895141" lon="17.8282391063">
        <ele>33.6</ele>
        <time>2013-03-10T16:07:55Z</time>
      </trkpt>
      <trkpt lat="59.4450211139" lon="17.8281438041">
        <ele>33.6</ele>
        <time>2013-03-10T16:07:56Z</time>
      </trkpt>
      <trkpt lat="59.4451879137" lon="17.827558496">
        <ele>33.2</ele>
        <time>2013-03-10T16:08:02Z</time>
      </trkpt>
      <trkpt lat="59.4452107963" lon="17.8274558177">
        <ele>32.8</ele>
        <time>2013-03-10T16:08:03Z</time>
      </trkpt>
      <trkpt lat="59.4452362773" lon="17.8273523013">
        <ele>32.4</ele>
        <time>2013-03-10T16:08:04Z</time>
      </trkpt>
      <trkpt lat="59.4452609201" lon="17.8272400676">
        <ele>32</ele>
        <time>2013-03-10T16:08:05Z</time>
      </trkpt>
      <trkpt lat="59.4452834674" lon="17.8271238945">
        <ele>31.4</ele>
        <time>2013-03-10T16:08:06Z</time>
      </trkpt>
      <trkpt lat="59.4453218565" lon="17.8268836693">
        <ele>31</ele>
        <time>2013-03-10T16:08:08Z</time>
      </trkpt>
      <trkpt lat="59.4453393746" lon="17.8267437753">
        <ele>30.6</ele>
        <time>2013-03-10T16:08:09Z</time>
      </trkpt>
      <trkpt lat="59.4453551326" lon="17.8266072342">
        <ele>30.2</ele>
        <time>2013-03-10T16:08:10Z</time>
      </trkpt>
      <trkpt lat="59.4453583177" lon="17.8264636522">
        <ele>29.8</ele>
        <time>2013-03-10T16:08:11Z</time>
      </trkpt>
      <trkpt lat="59.4453651909" lon="17.8263164661">
        <ele>29.2</ele>
        <time>2013-03-10T16:08:12Z</time>
      </trkpt>
      <trkpt lat="59.4453697171" lon="17.826170621">
        <ele>28.6</ele>
        <time>2013-03-10T16:08:13Z</time>
      </trkpt>
      <trkpt lat="59.4453767579" lon="17.8260388576">
        <ele>28</ele>
        <time>2013-03-10T16:08:14Z</time>
      </trkpt>
      <trkpt lat="59.4453837987" lon="17.8259320721">
        <ele>27.4</ele>
        <time>2013-03-10T16:08:15Z</time>
      </trkpt>
      <trkpt lat="59.4453863133" lon="17.8258400389">
        <ele>26.8</ele>
        <time>2013-03-10T16:08:16Z</time>
      </trkpt>
      <trkpt lat="59.4453875706" lon="17.825757561">
        <ele>26.8</ele>
        <time>2013-03-10T16:08:17Z</time>
      </trkpt>
      <trkpt lat="59.4453951981" lon="17.8256833812">
        <ele>26.4</ele>
        <time>2013-03-10T16:08:18Z</time>
      </trkpt>
      <trkpt lat="59.4454148117" lon="17.8256140629">
        <ele>26</ele>
        <time>2013-03-10T16:08:19Z</time>
      </trkpt>
      <trkpt lat="59.4454454895" lon="17.8255557248">
        <ele>25.6</ele>
        <time>2013-03-10T16:08:20Z</time>
      </trkpt>
      <trkpt lat="59.4454851359" lon="17.825516749">
        <ele>25.2</ele>
        <time>2013-03-10T16:08:21Z</time>
      </trkpt>
      <trkpt lat="59.4455336671" lon="17.8255083671">
        <ele>24.8</ele>
        <time>2013-03-10T16:08:22Z</time>
      </trkpt>
      <trkpt lat="59.4456380217" lon="17.8255365303">
        <ele>24.8</ele>
        <time>2013-03-10T16:08:24Z</time>
      </trkpt>
      <trkpt lat="59.4457457292" lon="17.8255568145">
        <ele>24.8</ele>
        <time>2013-03-10T16:08:26Z</time>
      </trkpt>
      <trkpt lat="59.4459696097" lon="17.825583888">
        <ele>24.8</ele>
        <time>2013-03-10T16:08:30Z</time>
      </trkpt>
      <trkpt lat="59.4460253493" lon="17.8255785236">
        <ele>24.8</ele>
        <time>2013-03-10T16:08:31Z</time>
      </trkpt>
      <trkpt lat="59.4463093281" lon="17.8255592452">
        <ele>24.8</ele>
        <time>2013-03-10T16:08:36Z</time>
      </trkpt>
      <trkpt lat="59.446588613" lon="17.825497303">
        <ele>24.8</ele>
        <time>2013-03-10T16:08:41Z</time>
      </trkpt>
      <trkpt lat="59.4466453585" lon="17.8254889211">
        <ele>24.8</ele>
        <time>2013-03-10T16:08:42Z</time>
      </trkpt>
      <trkpt lat="59.4468720889" lon="17.8254555611">
        <ele>24.8</ele>
        <time>2013-03-10T16:08:46Z</time>
      </trkpt>
      <trkpt lat="59.447137376" lon="17.8253626897">
        <ele>24.8</ele>
        <time>2013-03-10T16:08:51Z</time>
      </trkpt>
      <trkpt lat="59.4473437384" lon="17.8252503722">
        <ele>24.8</ele>
        <time>2013-03-10T16:08:55Z</time>
      </trkpt>
      <trkpt lat="59.4473921858" lon="17.8251903578">
        <ele>24.8</ele>
        <time>2013-03-10T16:08:56Z</time>
      </trkpt>
      <trkpt lat="59.4474745799" lon="17.824906882">
        <ele>24.8</ele>
        <time>2013-03-10T16:08:59Z</time>
      </trkpt>
      <trkpt lat="59.4474401302" lon="17.8245907167">
        <ele>24.8</ele>
        <time>2013-03-10T16:09:02Z</time>
      </trkpt>
      <trkpt lat="59.4473681297" lon="17.8240717094">
        <ele>24.8</ele>
        <time>2013-03-10T16:09:07Z</time>
      </trkpt>
      <trkpt lat="59.4473258849" lon="17.8237148081">
        <ele>24.8</ele>
        <time>2013-03-10T16:09:10Z</time>
      </trkpt>
      <trkpt lat="59.4473035891" lon="17.8234651113">
        <ele>24.8</ele>
        <time>2013-03-10T16:09:12Z</time>
      </trkpt>
      <trkpt lat="59.4472763479" lon="17.8232289932">
        <ele>24.8</ele>
        <time>2013-03-10T16:09:14Z</time>
      </trkpt>
      <trkpt lat="59.4472399705" lon="17.8229877621">
        <ele>24.8</ele>
        <time>2013-03-10T16:09:16Z</time>
      </trkpt>
      <trkpt lat="59.447224464" lon="17.8228650511">
        <ele>24.8</ele>
        <time>2013-03-10T16:09:17Z</time>
      </trkpt>
      <trkpt lat="59.4472058561" lon="17.8227473692">
        <ele>25.2</ele>
        <time>2013-03-10T16:09:18Z</time>
      </trkpt>
      <trkpt lat="59.4471925289" lon="17.8226092355">
        <ele>25.8</ele>
        <time>2013-03-10T16:09:19Z</time>
      </trkpt>
      <trkpt lat="59.4471805428" lon="17.82248862">
        <ele>26.2</ele>
        <time>2013-03-10T16:09:20Z</time>
      </trkpt>
      <trkpt lat="59.447166545" lon="17.8223766378">
        <ele>26.6</ele>
        <time>2013-03-10T16:09:21Z</time>
      </trkpt>
      <trkpt lat="59.4471554809" lon="17.8222713611">
        <ele>27</ele>
        <time>2013-03-10T16:09:22Z</time>
      </trkpt>
      <trkpt lat="59.4471242164" lon="17.8218613186">
        <ele>27.4</ele>
        <time>2013-03-10T16:09:26Z</time>
      </trkpt>
      <trkpt lat="59.4471155831" lon="17.8217557905">
        <ele>27.8</ele>
        <time>2013-03-10T16:09:27Z</time>
      </trkpt>
      <trkpt lat="59.4471103025" lon="17.8216498433">
        <ele>28.4</ele>
        <time>2013-03-10T16:09:28Z</time>
      </trkpt>
      <trkpt lat="59.4471080394" lon="17.8215438122">
        <ele>28.8</ele>
        <time>2013-03-10T16:09:29Z</time>
      </trkpt>
      <trkpt lat="59.4471074526" lon="17.8214356019">
        <ele>29.2</ele>
        <time>2013-03-10T16:09:30Z</time>
      </trkpt>
      <trkpt lat="59.4471121465" lon="17.8207684865">
        <ele>29.2</ele>
        <time>2013-03-10T16:09:36Z</time>
      </trkpt>
      <trkpt lat="59.4471950435" lon="17.8199569509">
        <ele>29.2</ele>
        <time>2013-03-10T16:09:43Z</time>
      </trkpt>
      <trkpt lat="59.4472964645" lon="17.8192563079">
        <ele>29.2</ele>
        <time>2013-03-10T16:09:49Z</time>
      </trkpt>
      <trkpt lat="59.4473168325" lon="17.819131669">
        <ele>28.8</ele>
        <time>2013-03-10T16:09:50Z</time>
      </trkpt>
      <trkpt lat="59.4473357756" lon="17.8190085389">
        <ele>28.4</ele>
        <time>2013-03-10T16:09:51Z</time>
      </trkpt>
      <trkpt lat="59.4473532099" lon="17.8188821399">
        <ele>28</ele>
        <time>2013-03-10T16:09:52Z</time>
      </trkpt>
      <trkpt lat="59.4473724045" lon="17.8187518851">
        <ele>27.6</ele>
        <time>2013-03-10T16:09:53Z</time>
      </trkpt>
      <trkpt lat="59.4473940298" lon="17.8186265757">
        <ele>27.2</ele>
        <time>2013-03-10T16:09:54Z</time>
      </trkpt>
      <trkpt lat="59.4474320836" lon="17.8183661501">
        <ele>27.2</ele>
        <time>2013-03-10T16:09:56Z</time>
      </trkpt>
      <trkpt lat="59.4475534535" lon="17.8175014733">
        <ele>27.2</ele>
        <time>2013-03-10T16:10:03Z</time>
      </trkpt>
      <trkpt lat="59.4476850494" lon="17.8166563263">
        <ele>27.2</ele>
        <time>2013-03-10T16:10:11Z</time>
      </trkpt>
      <trkpt lat="59.4477919186" lon="17.8160172903">
        <ele>27.2</ele>
        <time>2013-03-10T16:10:17Z</time>
      </trkpt>
      <trkpt lat="59.4478417909" lon="17.8158167114">
        <ele>27.2</ele>
        <time>2013-03-10T16:10:19Z</time>
      </trkpt>
      <trkpt lat="59.4479369255" lon="17.8155273682">
        <ele>27.2</ele>
        <time>2013-03-10T16:10:22Z</time>
      </trkpt>
      <trkpt lat="59.4480059923" lon="17.815347325">
        <ele>27.2</ele>
        <time>2013-03-10T16:10:24Z</time>
      </trkpt>
      <trkpt lat="59.4481506639" lon="17.8150180002">
        <ele>27.2</ele>
        <time>2013-03-10T16:10:28Z</time>
      </trkpt>
      <trkpt lat="59.4484340559" lon="17.8144716679">
        <ele>27.2</ele>
        <time>2013-03-10T16:10:35Z</time>
      </trkpt>
      <trkpt lat="59.4488213835" lon="17.8137349827">
        <ele>27.2</ele>
        <time>2013-03-10T16:10:44Z</time>
      </trkpt>
      <trkpt lat="59.4489057055" lon="17.8135805043">
        <ele>26.8</ele>
        <time>2013-03-10T16:10:46Z</time>
      </trkpt>
      <trkpt lat="59.4489554939" lon="17.8135106831">
        <ele>26.4</ele>
        <time>2013-03-10T16:10:47Z</time>
      </trkpt>
      <trkpt lat="59.4490003371" lon="17.8134254392">
        <ele>26</ele>
        <time>2013-03-10T16:10:48Z</time>
      </trkpt>
      <trkpt lat="59.4490398159" lon="17.8133321486">
        <ele>25.6</ele>
        <time>2013-03-10T16:10:49Z</time>
      </trkpt>
      <trkpt lat="59.449082815" lon="17.8132435519">
        <ele>25.2</ele>
        <time>2013-03-10T16:10:50Z</time>
      </trkpt>
      <trkpt lat="59.4493115571" lon="17.8126973035">
        <ele>25.2</ele>
        <time>2013-03-10T16:10:56Z</time>
      </trkpt>
      <trkpt lat="59.4495356052" lon="17.8120276735">
        <ele>25.2</ele>
        <time>2013-03-10T16:11:03Z</time>
      </trkpt>
      <trkpt lat="59.4497329152" lon="17.8113463089">
        <ele>25.2</ele>
        <time>2013-03-10T16:11:10Z</time>
      </trkpt>
      <trkpt lat="59.4498200869" lon="17.8110423812">
        <ele>24.6</ele>
        <time>2013-03-10T16:11:13Z</time>
      </trkpt>
      <trkpt lat="59.4498530278" lon="17.8109302313">
        <ele>24.2</ele>
        <time>2013-03-10T16:11:14Z</time>
      </trkpt>
      <trkpt lat="59.449887226" lon="17.8108269663">
        <ele>23.8</ele>
        <time>2013-03-10T16:11:15Z</time>
      </trkpt>
      <trkpt lat="59.4499222623" lon="17.8107216897">
        <ele>23.4</ele>
        <time>2013-03-10T16:11:16Z</time>
      </trkpt>
      <trkpt lat="59.4499586397" lon="17.8106166645">
        <ele>23</ele>
        <time>2013-03-10T16:11:17Z</time>
      </trkpt>
      <trkpt lat="59.4499934246" lon="17.810508538">
        <ele>23</ele>
        <time>2013-03-10T16:11:18Z</time>
      </trkpt>
      <trkpt lat="59.450143293" lon="17.8100552448">
        <ele>22.6</ele>
        <time>2013-03-10T16:11:22Z</time>
      </trkpt>
      <trkpt lat="59.4501815983" lon="17.8099376467">
        <ele>22.2</ele>
        <time>2013-03-10T16:11:23Z</time>
      </trkpt>
      <trkpt lat="59.4502175566" lon="17.8098185399">
        <ele>21.8</ele>
        <time>2013-03-10T16:11:24Z</time>
      </trkpt>
      <trkpt lat="59.4502570354" lon="17.8097031212">
        <ele>21.4</ele>
        <time>2013-03-10T16:11:25Z</time>
      </trkpt>
      <trkpt lat="59.4502972685" lon="17.8095855231">
        <ele>21</ele>
        <time>2013-03-10T16:11:26Z</time>
      </trkpt>
      <trkpt lat="59.4504198119" lon="17.8092200723">
        <ele>20.6</ele>
        <time>2013-03-10T16:11:29Z</time>
      </trkpt>
      <trkpt lat="59.4504624757" lon="17.8091027257">
        <ele>20</ele>
        <time>2013-03-10T16:11:30Z</time>
      </trkpt>
      <trkpt lat="59.4505063131" lon="17.8089758237">
        <ele>19.6</ele>
        <time>2013-03-10T16:11:31Z</time>
      </trkpt>
      <trkpt lat="59.4505542576" lon="17.8088579742">
        <ele>19.2</ele>
        <time>2013-03-10T16:11:32Z</time>
      </trkpt>
      <trkpt lat="59.4506027888" lon="17.8087374425">
        <ele>18.6</ele>
        <time>2013-03-10T16:11:33Z</time>
      </trkpt>
      <trkpt lat="59.4506510685" lon="17.8086169108">
        <ele>18</ele>
        <time>2013-03-10T16:11:34Z</time>
      </trkpt>
      <trkpt lat="59.4507016952" lon="17.8084981392">
        <ele>17.4</ele>
        <time>2013-03-10T16:11:35Z</time>
      </trkpt>
      <trkpt lat="59.4507543335" lon="17.8083804574">
        <ele>17</ele>
        <time>2013-03-10T16:11:36Z</time>
      </trkpt>
      <trkpt lat="59.4508104084" lon="17.808257914">
        <ele>16.4</ele>
        <time>2013-03-10T16:11:37Z</time>
      </trkpt>
      <trkpt lat="59.4508658128" lon="17.8081463509">
        <ele>16</ele>
        <time>2013-03-10T16:11:38Z</time>
      </trkpt>
      <trkpt lat="59.4509269168" lon="17.8080414933">
        <ele>15.4</ele>
        <time>2013-03-10T16:11:39Z</time>
      </trkpt>
      <trkpt lat="59.4509857578" lon="17.807933283">
        <ele>15</ele>
        <time>2013-03-10T16:11:40Z</time>
      </trkpt>
      <trkpt lat="59.4510445987" lon="17.8078198759">
        <ele>14.2</ele>
        <time>2013-03-10T16:11:41Z</time>
      </trkpt>
      <trkpt lat="59.4512295034" lon="17.8075179599">
        <ele>13.8</ele>
        <time>2013-03-10T16:11:44Z</time>
      </trkpt>
      <trkpt lat="59.4512916133" lon="17.8074241664">
        <ele>13.4</ele>
        <time>2013-03-10T16:11:45Z</time>
      </trkpt>
      <trkpt lat="59.451350119" lon="17.8073295347">
        <ele>13</ele>
        <time>2013-03-10T16:11:46Z</time>
      </trkpt>
      <trkpt lat="59.4514048528" lon="17.8072411057">
        <ele>12.4</ele>
        <time>2013-03-10T16:11:47Z</time>
      </trkpt>
      <trkpt lat="59.4514601733" lon="17.8071574543">
        <ele>12</ele>
        <time>2013-03-10T16:11:48Z</time>
      </trkpt>
      <trkpt lat="59.4516646917" lon="17.8068244414">
        <ele>11.6</ele>
        <time>2013-03-10T16:11:52Z</time>
      </trkpt>
      <trkpt lat="59.4517133905" lon="17.8067401195">
        <ele>11.2</ele>
        <time>2013-03-10T16:11:53Z</time>
      </trkpt>
      <trkpt lat="59.451766867" lon="17.8066585636">
        <ele>10.8</ele>
        <time>2013-03-10T16:11:54Z</time>
      </trkpt>
      <trkpt lat="59.4518188348" lon="17.8065765048">
        <ele>10.4</ele>
        <time>2013-03-10T16:11:55Z</time>
      </trkpt>
      <trkpt lat="59.4518721437" lon="17.8064965415">
        <ele>10</ele>
        <time>2013-03-10T16:11:56Z</time>
      </trkpt>
      <trkpt lat="59.45214246" lon="17.8061108903">
        <ele>10</ele>
        <time>2013-03-10T16:12:01Z</time>
      </trkpt>
      <trkpt lat="59.4523085892" lon="17.8059131613">
        <ele>10</ele>
        <time>2013-03-10T16:12:04Z</time>
      </trkpt>
      <trkpt lat="59.452470779" lon="17.8057403265">
        <ele>10</ele>
        <time>2013-03-10T16:12:07Z</time>
      </trkpt>
      <trkpt lat="59.4527843459" lon="17.805469675">
        <ele>10</ele>
        <time>2013-03-10T16:12:13Z</time>
      </trkpt>
      <trkpt lat="59.4529900377" lon="17.805294158">
        <ele>10</ele>
        <time>2013-03-10T16:12:17Z</time>
      </trkpt>
      <trkpt lat="59.4530424246" lon="17.8052579482">
        <ele>10</ele>
        <time>2013-03-10T16:12:18Z</time>
      </trkpt>
      <trkpt lat="59.4534063667" lon="17.8049446327">
        <ele>10</ele>
        <time>2013-03-10T16:12:25Z</time>
      </trkpt>
      <trkpt lat="59.4536792813" lon="17.8046052496">
        <ele>10</ele>
        <time>2013-03-10T16:12:31Z</time>
      </trkpt>
      <trkpt lat="59.4537724042" lon="17.8044824548">
        <ele>10.4</ele>
        <time>2013-03-10T16:12:33Z</time>
      </trkpt>
      <trkpt lat="59.4538162416" lon="17.8044179141">
        <ele>11</ele>
        <time>2013-03-10T16:12:34Z</time>
      </trkpt>
      <trkpt lat="59.4538580673" lon="17.8043467518">
        <ele>11.4</ele>
        <time>2013-03-10T16:12:35Z</time>
      </trkpt>
      <trkpt lat="59.4538973784" lon="17.8042749189">
        <ele>11.8</ele>
        <time>2013-03-10T16:12:36Z</time>
      </trkpt>
      <trkpt lat="59.4539351807" lon="17.8041999847">
        <ele>12.4</ele>
        <time>2013-03-10T16:12:37Z</time>
      </trkpt>
      <trkpt lat="59.4541519367" lon="17.8037627848">
        <ele>12.4</ele>
        <time>2013-03-10T16:12:43Z</time>
      </trkpt>
      <trkpt lat="59.4541871407" lon="17.8036808099">
        <ele>12.4</ele>
        <time>2013-03-10T16:12:44Z</time>
      </trkpt>
      <trkpt lat="59.4543278728" lon="17.803299601">
        <ele>12.4</ele>
        <time>2013-03-10T16:12:48Z</time>
      </trkpt>
      <trkpt lat="59.4543934192" lon="17.8031001118">
        <ele>12</ele>
        <time>2013-03-10T16:12:50Z</time>
      </trkpt>
      <trkpt lat="59.4544244322" lon="17.8029918177">
        <ele>11.4</ele>
        <time>2013-03-10T16:12:51Z</time>
      </trkpt>
      <trkpt lat="59.4544536851" lon="17.8028976889">
        <ele>11</ele>
        <time>2013-03-10T16:12:52Z</time>
      </trkpt>
      <trkpt lat="59.4544803395" lon="17.8028189829">
        <ele>10.6</ele>
        <time>2013-03-10T16:12:53Z</time>
      </trkpt>
      <trkpt lat="59.4545090056" lon="17.8027447193">
        <ele>10.2</ele>
        <time>2013-03-10T16:12:54Z</time>
      </trkpt>
      <trkpt lat="59.4545414436" lon="17.8026979483">
        <ele>10.2</ele>
        <time>2013-03-10T16:12:55Z</time>
      </trkpt>
      <trkpt lat="59.4545762284" lon="17.8026986188">
        <ele>9.4</ele>
        <time>2013-03-10T16:12:56Z</time>
      </trkpt>
      <trkpt lat="59.4546143661" lon="17.8027287098">
        <ele>9</ele>
        <time>2013-03-10T16:12:57Z</time>
      </trkpt>
      <trkpt lat="59.454650995" lon="17.8027888919">
        <ele>8.6</ele>
        <time>2013-03-10T16:12:58Z</time>
      </trkpt>
      <trkpt lat="59.4546837682" lon="17.8028710345">
        <ele>8.2</ele>
        <time>2013-03-10T16:12:59Z</time>
      </trkpt>
      <trkpt lat="59.4547200619" lon="17.8029623134">
        <ele>8.2</ele>
        <time>2013-03-10T16:13:00Z</time>
      </trkpt>
      <trkpt lat="59.45490153" lon="17.8035433467">
        <ele>7.8</ele>
        <time>2013-03-10T16:13:05Z</time>
      </trkpt>
      <trkpt lat="59.4549320401" lon="17.8036576758">
        <ele>7.2</ele>
        <time>2013-03-10T16:13:06Z</time>
      </trkpt>
      <trkpt lat="59.4549516537" lon="17.8037732622">
        <ele>6.8</ele>
        <time>2013-03-10T16:13:07Z</time>
      </trkpt>
      <trkpt lat="59.4549558447" lon="17.8038874237">
        <ele>6.4</ele>
        <time>2013-03-10T16:13:08Z</time>
      </trkpt>
      <trkpt lat="59.4549408411" lon="17.8039999926">
        <ele>5.8</ele>
        <time>2013-03-10T16:13:09Z</time>
      </trkpt>
      <trkpt lat="59.4548173757" lon="17.8041760963">
        <ele>5.8</ele>
        <time>2013-03-10T16:13:12Z</time>
      </trkpt>
      <trkpt lat="59.4547151165" lon="17.8042223644">
        <ele>5.8</ele>
        <time>2013-03-10T16:13:14Z</time>
      </trkpt>
      <trkpt lat="59.4545978538" lon="17.8042838876">
        <ele>5.8</ele>
        <time>2013-03-10T16:13:16Z</time>
      </trkpt>
      <trkpt lat="59.4544841952" lon="17.8043673713">
        <ele>6.2</ele>
        <time>2013-03-10T16:13:18Z</time>
      </trkpt>
      <trkpt lat="59.4544390167" lon="17.8044180818">
        <ele>6.6</ele>
        <time>2013-03-10T16:13:19Z</time>
      </trkpt>
      <trkpt lat="59.4543857917" lon="17.804460578">
        <ele>7.4</ele>
        <time>2013-03-10T16:13:20Z</time>
      </trkpt>
      <trkpt lat="59.4543355003" lon="17.8045145574">
        <ele>7.8</ele>
        <time>2013-03-10T16:13:21Z</time>
      </trkpt>
      <trkpt lat="59.4542840354" lon="17.8045734822">
        <ele>8.2</ele>
        <time>2013-03-10T16:13:22Z</time>
      </trkpt>
      <trkpt lat="59.4542362586" lon="17.8046395316">
        <ele>8.6</ele>
        <time>2013-03-10T16:13:23Z</time>
      </trkpt>
      <trkpt lat="59.4541806866" lon="17.8047047428">
        <ele>9</ele>
        <time>2013-03-10T16:13:24Z</time>
      </trkpt>
      <trkpt lat="59.4541306466" lon="17.804761572">
        <ele>9.6</ele>
        <time>2013-03-10T16:13:25Z</time>
      </trkpt>
      <trkpt lat="59.4540874799" lon="17.8048230952">
        <ele>10</ele>
        <time>2013-03-10T16:13:26Z</time>
      </trkpt>
      <trkpt lat="59.4540459056" lon="17.8048733028">
        <ele>10</ele>
        <time>2013-03-10T16:13:27Z</time>
      </trkpt>
      <trkpt lat="59.4540081871" lon="17.8049411962">
        <ele>10</ele>
        <time>2013-03-10T16:13:28Z</time>
      </trkpt>
      <trkpt lat="59.4539858912" lon="17.8051834331">
        <ele>10</ele>
        <time>2013-03-10T16:13:31Z</time>
      </trkpt>
      <trkpt lat="59.453999889" lon="17.8052333892">
        <ele>10</ele>
        <time>2013-03-10T16:13:33Z</time>
      </trkpt>
      <trkpt lat="59.4540067622" lon="17.8052519132">
        <ele>10</ele>
        <time>2013-03-10T16:13:34Z</time>
      </trkpt>
      <trkpt lat="59.4540172395" lon="17.8052750472">
        <ele>10.4</ele>
        <time>2013-03-10T16:13:36Z</time>
      </trkpt>
      <trkpt lat="59.4540243642" lon="17.805280244">
        <ele>10.8</ele>
        <time>2013-03-10T16:13:37Z</time>
      </trkpt>
      <trkpt lat="59.4540286389" lon="17.8052967564">
        <ele>11.2</ele>
        <time>2013-03-10T16:13:38Z</time>
      </trkpt>
      <trkpt lat="59.4540443131" lon="17.8053193875">
        <ele>11.6</ele>
        <time>2013-03-10T16:13:39Z</time>
      </trkpt>
      <trkpt lat="59.4540681177" lon="17.8053632248">
        <ele>12</ele>
        <time>2013-03-10T16:13:40Z</time>
      </trkpt>
      <trkpt lat="59.4541847937" lon="17.8053458743">
        <ele>12</ele>
        <time>2013-03-10T16:13:43Z</time>
      </trkpt>
      <trkpt lat="59.4542631645" lon="17.8052265999">
        <ele>12</ele>
        <time>2013-03-10T16:13:45Z</time>
      </trkpt>
      <trkpt lat="59.4543468158" lon="17.8050945849">
        <ele>12</ele>
        <time>2013-03-10T16:13:47Z</time>
      </trkpt>
      <trkpt lat="59.4545654996" lon="17.8047521843">
        <ele>12</ele>
        <time>2013-03-10T16:13:52Z</time>
      </trkpt>
      <trkpt lat="59.454719978" lon="17.8045752424">
        <ele>12</ele>
        <time>2013-03-10T16:13:55Z</time>
      </trkpt>
      <trkpt lat="59.4547701018" lon="17.804530986">
        <ele>12</ele>
        <time>2013-03-10T16:13:56Z</time>
      </trkpt>
      <trkpt lat="59.4549753745" lon="17.8044307384">
        <ele>12</ele>
        <time>2013-03-10T16:14:00Z</time>
      </trkpt>
      <trkpt lat="59.4551712595" lon="17.8043935228">
        <ele>12</ele>
        <time>2013-03-10T16:14:04Z</time>
      </trkpt>
      <trkpt lat="59.4552545756" lon="17.8044069339">
        <ele>12</ele>
        <time>2013-03-10T16:14:06Z</time>
      </trkpt>
      <trkpt lat="59.4555012549" lon="17.8045516893">
        <ele>12.4</ele>
        <time>2013-03-10T16:14:12Z</time>
      </trkpt>
      <trkpt lat="59.4555452599" lon="17.8045867256">
        <ele>12.8</ele>
        <time>2013-03-10T16:14:13Z</time>
      </trkpt>
      <trkpt lat="59.4555870856" lon="17.80462545">
        <ele>13.2</ele>
        <time>2013-03-10T16:14:14Z</time>
      </trkpt>
      <trkpt lat="59.4556316773" lon="17.8046692873">
        <ele>13.6</ele>
        <time>2013-03-10T16:14:15Z</time>
      </trkpt>
      <trkpt lat="59.4556735868" lon="17.8047139628">
        <ele>14.2</ele>
        <time>2013-03-10T16:14:16Z</time>
      </trkpt>
      <trkpt lat="59.4558107985" lon="17.8048494144">
        <ele>14.2</ele>
        <time>2013-03-10T16:14:19Z</time>
      </trkpt>
      <trkpt lat="59.4558981379" lon="17.8049215825">
        <ele>14.2</ele>
        <time>2013-03-10T16:14:21Z</time>
      </trkpt>
      <trkpt lat="59.4559904226" lon="17.8049964329">
        <ele>14.6</ele>
        <time>2013-03-10T16:14:23Z</time>
      </trkpt>
      <trkpt lat="59.4560381156" lon="17.805034822">
        <ele>15</ele>
        <time>2013-03-10T16:14:24Z</time>
      </trkpt>
      <trkpt lat="59.4560871497" lon="17.805070026">
        <ele>15.4</ele>
        <time>2013-03-10T16:14:25Z</time>
      </trkpt>
      <trkpt lat="59.4561364353" lon="17.8051069901">
        <ele>15.8</ele>
        <time>2013-03-10T16:14:26Z</time>
      </trkpt>
      <trkpt lat="59.4561840445" lon="17.8051484805">
        <ele>16.2</ele>
        <time>2013-03-10T16:14:27Z</time>
      </trkpt>
      <trkpt lat="59.4564717951" lon="17.8053576928">
        <ele>16.2</ele>
        <time>2013-03-10T16:14:33Z</time>
      </trkpt>
      <trkpt lat="59.4568894652" lon="17.8056429288">
        <ele>16.2</ele>
        <time>2013-03-10T16:14:42Z</time>
      </trkpt>
      <trkpt lat="59.4570444465" lon="17.805640079">
        <ele>16.2</ele>
        <time>2013-03-10T16:14:45Z</time>
      </trkpt>
      <trkpt lat="59.4570903794" lon="17.8055726885">
        <ele>16.2</ele>
        <time>2013-03-10T16:14:46Z</time>
      </trkpt>
      <trkpt lat="59.4572450254" lon="17.8053006958">
        <ele>16.2</ele>
        <time>2013-03-10T16:14:50Z</time>
      </trkpt>
      <trkpt lat="59.4573785491" lon="17.8050430362">
        <ele>16.6</ele>
        <time>2013-03-10T16:14:54Z</time>
      </trkpt>
      <trkpt lat="59.4574115738" lon="17.8049722092">
        <ele>17</ele>
        <time>2013-03-10T16:14:55Z</time>
      </trkpt>
      <trkpt lat="59.4574471968" lon="17.8049090097">
        <ele>17.4</ele>
        <time>2013-03-10T16:14:56Z</time>
      </trkpt>
      <trkpt lat="59.4574862565" lon="17.8048524318">
        <ele>17.8</ele>
        <time>2013-03-10T16:14:57Z</time>
      </trkpt>
      <trkpt lat="59.4575269087" lon="17.8048003802">
        <ele>18.2</ele>
        <time>2013-03-10T16:14:58Z</time>
      </trkpt>
      <trkpt lat="59.4577489452" lon="17.8045567184">
        <ele>18.2</ele>
        <time>2013-03-10T16:15:03Z</time>
      </trkpt>
      <trkpt lat="59.4579548885" lon="17.8044034973">
        <ele>17.8</ele>
        <time>2013-03-10T16:15:07Z</time>
      </trkpt>
      <trkpt lat="59.458010712" lon="17.8043895833">
        <ele>17.4</ele>
        <time>2013-03-10T16:15:08Z</time>
      </trkpt>
      <trkpt lat="59.4580718998" lon="17.8043787707">
        <ele>17</ele>
        <time>2013-03-10T16:15:09Z</time>
      </trkpt>
      <trkpt lat="59.4581278071" lon="17.8043762561">
        <ele>16.6</ele>
        <time>2013-03-10T16:15:10Z</time>
      </trkpt>
      <trkpt lat="59.4581897494" lon="17.8043742444">
        <ele>16.2</ele>
        <time>2013-03-10T16:15:11Z</time>
      </trkpt>
      <trkpt lat="59.4584060862" lon="17.8043909244">
        <ele>16.2</ele>
        <time>2013-03-10T16:15:15Z</time>
      </trkpt>
      <trkpt lat="59.458655783" lon="17.8044270504">
        <ele>16.2</ele>
        <time>2013-03-10T16:15:20Z</time>
      </trkpt>
      <trkpt lat="59.4587429548" lon="17.8044129688">
        <ele>16.2</ele>
        <time>2013-03-10T16:15:22Z</time>
      </trkpt>
      <trkpt lat="59.4587800028" lon="17.8043992225">
        <ele>16.2</ele>
        <time>2013-03-10T16:15:23Z</time>
      </trkpt>
    </trkseg>
  </trk>
</gpx>